[[{"header":{"parameterUnit":"m.s-1","parameterCategory":1,"la1":30.6,"la2":29.2853,"lo1":-89.7004,"lo2":-87.6739,"dy":0.0162,"dx":0.0183,"nx":112,"ny":82,"refTime":"2023-04-02T06:00:00:Z","depth":0,"parameterNumber":2,"parameterNumberName":"U-component_of_WINDS"},"data":[0.0,0.0,0.0,0.0,0.0,0.0,0.0,0.0,0.0,0.0,0.0,0.0,0.0,0.0,0.0,0.0,0.0,0.0,0.0,0.0,0.0,0.0,0.0,0.0,0.0,0.0,0.0,0.0,0.0,0.0,0.0,0.0,0.0,0.0,0.0,0.0,0.0,0.0,0.0,0.0,0.0,0.0,0.0,0.0,0.0,0.0,0.0,0.0,0.0,0.0,0.0,0.0,0.0,0.0,0.0,0.0,0.0,0.0,0.0,0.0,0.0,0.0,0.0,0.0,0.0,0.0,0.0,0.0,0.0,0.0,0.0,0.0,0.0,0.0,0.0,0.0,0.0,0.0,0.0,0.0,0.0,0.0,0.0,0.0,0.0,0.0,0.0,0.0,0.0,0.0,-5.5904,-5.9368,-6.442,-6.6916,-6.5448,-6.4347,-6.2695,-6.0382,0.0,0.0,0.0,0.0,0.0,0.0,0.0,0.0,0.0,0.0,0.0,0.0,0.0,0.0,0.0,0.0,0.0,0.0,0.0,0.0,0.0,0.0,0.0,0.0,0.0,0.0,0.0,0.0,0.0,0.0,0.0,0.0,0.0,0.0,0.0,0.0,0.0,0.0,0.0,0.0,0.0,0.0,0.0,0.0,0.0,0.0,0.0,0.0,0.0,0.0,0.0,0.0,0.0,0.0,0.0,0.0,0.0,0.0,0.0,0.0,0.0,0.0,0.0,0.0,0.0,0.0,0.0,0.0,0.0,0.0,0.0,0.0,0.0,0.0,0.0,0.0,0.0,0.0,0.0,0.0,0.0,0.0,0.0,0.0,0.0,0.0,0.0,0.0,0.0,0.0,0.0,0.0,0.0,0.0,0.0,0.0,0.0,0.0,0.0,0.0,0.0,0.0,0.0,0.0,-5.7152,-6.1753,-6.4897,-6.6329,-6.5375,-6.3246,-6.1227,-5.9478,0.0,0.0,0.0,0.0,0.0,0.0,0.0,0.0,0.0,0.0,0.0,0.0,0.0,0.0,0.0,0.0,0.0,0.0,0.0,0.0,0.0,0.0,0.0,0.0,0.0,0.0,0.0,0.0,0.0,0.0,0.0,0.0,0.0,0.0,0.0,0.0,0.0,0.0,0.0,0.0,0.0,0.0,0.0,0.0,0.0,0.0,0.0,0.0,0.0,0.0,0.0,0.0,0.0,0.0,0.0,0.0,0.0,0.0,0.0,0.0,0.0,0.0,0.0,0.0,0.0,0.0,0.0,0.0,0.0,0.0,0.0,0.0,0.0,0.0,0.0,0.0,0.0,0.0,0.0,0.0,0.0,0.0,0.0,0.0,0.0,0.0,0.0,0.0,0.0,0.0,0.0,0.0,0.0,0.0,0.0,0.0,0.0,0.0,0.0,0.0,0.0,0.0,0.0,-5.7373,-5.9245,-6.3686,-6.5962,-6.6806,-6.6035,-6.3282,-6.108,-5.9942,-5.7886,0.0,0.0,0.0,0.0,0.0,0.0,0.0,0.0,0.0,0.0,0.0,0.0,0.0,0.0,0.0,0.0,0.0,0.0,0.0,0.0,0.0,0.0,0.0,0.0,0.0,0.0,0.0,0.0,0.0,0.0,0.0,0.0,0.0,0.0,0.0,0.0,0.0,0.0,0.0,0.0,0.0,0.0,0.0,0.0,0.0,0.0,0.0,0.0,0.0,0.0,0.0,0.0,0.0,0.0,0.0,0.0,0.0,0.0,0.0,0.0,0.0,0.0,0.0,0.0,0.0,0.0,0.0,0.0,0.0,0.0,0.0,0.0,0.0,0.0,0.0,0.0,0.0,0.0,0.0,0.0,0.0,0.0,0.0,0.0,0.0,0.0,0.0,0.0,0.0,0.0,0.0,0.0,0.0,0.0,0.0,0.0,0.0,0.0,0.0,0.0,0.0,0.0,-5.9648,-6.0982,-6.4897,-6.6733,-6.7283,-6.6292,-6.3392,-6.108,-5.9905,-5.7336,0.0,0.0,0.0,0.0,0.0,0.0,0.0,0.0,0.0,0.0,0.0,0.0,0.0,0.0,0.0,0.0,0.0,0.0,0.0,0.0,0.0,0.0,0.0,0.0,0.0,0.0,0.0,0.0,0.0,0.0,0.0,0.0,0.0,0.0,0.0,0.0,0.0,0.0,0.0,0.0,0.0,0.0,0.0,0.0,0.0,0.0,0.0,0.0,0.0,0.0,0.0,0.0,0.0,0.0,0.0,0.0,0.0,0.0,0.0,0.0,0.0,0.0,0.0,0.0,0.0,0.0,0.0,0.0,0.0,0.0,0.0,0.0,0.0,0.0,0.0,0.0,0.0,0.0,0.0,0.0,0.0,0.0,0.0,0.0,0.0,0.0,0.0,0.0,0.0,0.0,0.0,0.0,0.0,0.0,0.0,0.0,0.0,0.0,0.0,0.0,0.0,0.0,-5.9428,-6.1594,-6.4934,-6.6733,-6.7063,-6.5521,-6.3062,-6.0603,-5.8327,-5.7262,0.0,0.0,0.0,0.0,0.0,0.0,0.0,0.0,0.0,0.0,0.0,0.0,0.0,0.0,0.0,0.0,0.0,0.0,0.0,0.0,0.0,0.0,0.0,0.0,0.0,0.0,0.0,0.0,0.0,0.0,0.0,0.0,0.0,0.0,0.0,0.0,0.0,0.0,0.0,0.0,0.0,0.0,0.0,0.0,0.0,0.0,0.0,0.0,0.0,0.0,0.0,0.0,0.0,0.0,0.0,0.0,0.0,0.0,0.0,0.0,0.0,0.0,0.0,0.0,0.0,0.0,0.0,0.0,0.0,0.0,0.0,0.0,0.0,0.0,0.0,0.0,0.0,0.0,0.0,0.0,0.0,0.0,0.0,0.0,0.0,0.0,0.0,0.0,0.0,0.0,0.0,0.0,0.0,0.0,0.0,0.0,0.0,0.0,0.0,0.0,0.0,0.0,-5.9281,-6.1092,-6.4897,-6.5852,-6.5962,-6.5375,-6.2585,-6.0236,-5.8841,0.0,0.0,0.0,0.0,0.0,0.0,0.0,0.0,0.0,0.0,0.0,0.0,0.0,0.0,0.0,0.0,0.0,0.0,0.0,0.0,0.0,0.0,0.0,0.0,0.0,0.0,0.0,0.0,0.0,0.0,0.0,0.0,0.0,0.0,0.0,0.0,0.0,0.0,0.0,0.0,0.0,0.0,0.0,0.0,0.0,0.0,0.0,0.0,0.0,0.0,0.0,0.0,0.0,0.0,0.0,0.0,0.0,0.0,0.0,0.0,0.0,0.0,0.0,0.0,0.0,0.0,0.0,0.0,0.0,0.0,0.0,0.0,0.0,0.0,0.0,0.0,0.0,0.0,0.0,0.0,0.0,0.0,0.0,0.0,0.0,0.0,0.0,0.0,0.0,0.0,0.0,0.0,0.0,0.0,0.0,0.0,0.0,0.0,0.0,0.0,0.0,0.0,-5.8364,-5.9258,-6.097,-6.453,-6.5154,-6.5191,-6.4934,-6.1924,-5.9685,-5.8877,0.0,0.0,0.0,0.0,0.0,0.0,0.0,0.0,0.0,0.0,0.0,0.0,0.0,0.0,0.0,0.0,0.0,0.0,0.0,0.0,0.0,0.0,0.0,0.0,0.0,0.0,0.0,0.0,0.0,0.0,0.0,0.0,0.0,0.0,0.0,0.0,0.0,0.0,0.0,0.0,0.0,0.0,0.0,0.0,0.0,0.0,0.0,0.0,0.0,0.0,0.0,0.0,0.0,0.0,0.0,0.0,0.0,0.0,0.0,0.0,0.0,0.0,0.0,0.0,0.0,0.0,0.0,0.0,0.0,0.0,0.0,0.0,0.0,0.0,0.0,0.0,0.0,0.0,0.0,0.0,0.0,0.0,0.0,0.0,0.0,0.0,0.0,0.0,0.0,0.0,0.0,0.0,0.0,0.0,0.0,0.0,0.0,0.0,0.0,0.0,0.0,0.0,-5.7703,-5.9391,-6.1337,-6.3796,-6.4787,-6.4971,-6.4127,-6.108,-5.8841,0.0,0.0,0.0,0.0,0.0,0.0,0.0,0.0,0.0,0.0,0.0,0.0,0.0,0.0,0.0,0.0,0.0,0.0,0.0,0.0,0.0,0.0,0.0,0.0,0.0,0.0,0.0,0.0,0.0,0.0,0.0,0.0,0.0,0.0,0.0,0.0,0.0,0.0,0.0,0.0,0.0,0.0,0.0,0.0,0.0,0.0,0.0,0.0,0.0,0.0,0.0,0.0,0.0,0.0,0.0,0.0,0.0,0.0,0.0,0.0,0.0,0.0,0.0,0.0,0.0,0.0,0.0,0.0,0.0,0.0,0.0,0.0,0.0,0.0,0.0,0.0,0.0,0.0,0.0,0.0,0.0,0.0,0.0,0.0,0.0,0.0,0.0,0.0,0.0,0.0,0.0,0.0,0.0,0.0,0.0,0.0,0.0,0.0,0.0,0.0,0.0,0.0,0.0,-5.7703,-5.8914,-6.0493,-6.2915,-6.3429,-6.3441,-6.3209,-5.9722,-5.7666,-5.796,0.0,0.0,0.0,0.0,0.0,0.0,0.0,0.0,0.0,0.0,0.0,0.0,0.0,0.0,0.0,0.0,0.0,0.0,0.0,0.0,0.0,0.0,0.0,0.0,0.0,0.0,0.0,0.0,0.0,0.0,0.0,0.0,0.0,0.0,0.0,0.0,0.0,0.0,0.0,0.0,0.0,0.0,0.0,0.0,0.0,0.0,0.0,0.0,0.0,0.0,0.0,0.0,0.0,0.0,0.0,0.0,0.0,0.0,0.0,0.0,0.0,0.0,0.0,0.0,0.0,0.0,0.0,0.0,0.0,0.0,0.0,0.0,0.0,0.0,0.0,0.0,0.0,0.0,0.0,0.0,0.0,0.0,0.0,0.0,0.0,0.0,0.0,0.0,0.0,0.0,0.0,0.0,0.0,0.0,0.0,0.0,0.0,0.0,0.0,0.0,0.0,0.0,-5.774,-5.8988,-6.0493,-6.256,-6.278,-6.267,-6.2365,-5.9538,-5.7556,-5.7079,0.0,0.0,0.0,0.0,0.0,0.0,0.0,0.0,0.0,0.0,0.0,0.0,0.0,0.0,0.0,0.0,0.0,0.0,0.0,0.0,0.0,0.0,0.0,0.0,0.0,0.0,0.0,0.0,0.0,0.0,0.0,0.0,0.0,0.0,0.0,0.0,0.0,0.0,0.0,0.0,0.0,0.0,0.0,0.0,0.0,0.0,0.0,0.0,0.0,0.0,0.0,0.0,0.0,0.0,0.0,0.0,0.0,0.0,0.0,0.0,0.0,0.0,0.0,0.0,0.0,0.0,0.0,0.0,0.0,0.0,0.0,0.0,0.0,0.0,0.0,0.0,0.0,0.0,0.0,0.0,0.0,0.0,0.0,0.0,0.0,0.0,0.0,0.0,0.0,0.0,0.0,0.0,0.0,0.0,0.0,0.0,0.0,0.0,0.0,0.0,0.0,0.0,-5.7776,-5.9391,-6.1043,-6.2633,-6.278,-6.2475,-6.1667,-6.0052,-5.8107,-5.5757,0.0,0.0,0.0,0.0,0.0,0.0,0.0,0.0,0.0,0.0,0.0,0.0,0.0,0.0,0.0,0.0,0.0,0.0,0.0,0.0,0.0,0.0,0.0,0.0,0.0,0.0,0.0,0.0,0.0,0.0,0.0,0.0,0.0,0.0,0.0,0.0,0.0,0.0,0.0,0.0,0.0,0.0,0.0,0.0,0.0,0.0,0.0,0.0,0.0,0.0,0.0,0.0,0.0,0.0,0.0,0.0,0.0,0.0,0.0,0.0,-6.1299,0.0,0.0,0.0,0.0,0.0,0.0,0.0,0.0,0.0,0.0,0.0,0.0,0.0,0.0,0.0,0.0,0.0,0.0,0.0,0.0,0.0,0.0,0.0,0.0,0.0,0.0,0.0,0.0,0.0,0.0,0.0,0.0,0.0,0.0,0.0,0.0,0.0,0.0,0.0,0.0,0.0,-5.7776,-5.9391,-6.1043,-6.2633,-6.278,-6.2475,-6.1667,-5.9538,-5.7483,-5.5706,-5.3665,0.0,0.0,0.0,0.0,0.0,0.0,0.0,0.0,0.0,0.0,0.0,0.0,0.0,0.0,0.0,0.0,0.0,0.0,0.0,0.0,0.0,0.0,0.0,0.0,0.0,0.0,0.0,0.0,0.0,0.0,0.0,0.0,0.0,0.0,0.0,0.0,0.0,0.0,0.0,0.0,0.0,0.0,0.0,0.0,0.0,0.0,0.0,0.0,0.0,0.0,0.0,0.0,0.0,0.0,0.0,0.0,0.0,0.0,0.0,0.0,-6.3209,0.0,0.0,0.0,0.0,0.0,0.0,0.0,0.0,0.0,0.0,0.0,0.0,0.0,0.0,0.0,0.0,0.0,0.0,0.0,0.0,0.0,0.0,0.0,0.0,0.0,0.0,0.0,0.0,0.0,0.0,0.0,0.0,0.0,0.0,0.0,0.0,0.0,0.0,0.0,0.0,-5.7226,-5.8841,-6.0603,-6.256,-6.278,-6.2328,-6.1117,-5.9869,-5.796,-5.5207,-5.4216,0.0,0.0,0.0,0.0,0.0,0.0,0.0,0.0,0.0,0.0,0.0,0.0,0.0,0.0,0.0,0.0,0.0,0.0,0.0,0.0,0.0,0.0,0.0,0.0,0.0,0.0,0.0,0.0,0.0,0.0,0.0,0.0,0.0,0.0,0.0,0.0,0.0,0.0,0.0,0.0,0.0,0.0,0.0,0.0,0.0,0.0,0.0,0.0,0.0,0.0,0.0,0.0,0.0,-6.5867,-6.6623,-6.754,-6.7393,-6.8054,-6.9192,-6.6659,-6.4383,-6.2585,-6.453,0.0,0.0,0.0,0.0,0.0,0.0,0.0,0.0,0.0,0.0,0.0,0.0,0.0,0.0,0.0,0.0,0.0,0.0,0.0,0.0,0.0,0.0,0.0,0.0,-5.9294,-5.9184,-5.84,0.0,0.0,0.0,0.0,0.0,0.0,0.0,0.0,0.0,0.0,0.0,-5.6822,-5.8414,-6.0285,-6.256,-6.278,-6.212,-6.0529,-6.0419,-5.8694,-5.4656,-5.5023,-5.3995,0.0,0.0,0.0,0.0,0.0,0.0,0.0,0.0,0.0,0.0,0.0,0.0,0.0,0.0,0.0,0.0,0.0,0.0,0.0,0.0,0.0,0.0,0.0,0.0,0.0,0.0,0.0,0.0,0.0,0.0,0.0,0.0,-6.2294,-6.2996,0.0,0.0,0.0,0.0,0.0,0.0,0.0,0.0,0.0,0.0,0.0,0.0,0.0,-6.7734,-6.7631,-6.8857,-6.952,-6.9493,-6.9467,-7.0257,-7.1688,-7.0991,-7.0779,-7.0999,-7.1284,0.0,-6.5815,-6.5448,0.0,0.0,0.0,0.0,0.0,0.0,0.0,0.0,0.0,0.0,0.0,0.0,0.0,0.0,0.0,0.0,0.0,0.0,0.0,0.0,0.0,0.0,-6.1043,-5.9551,-5.9735,-6.0015,0.0,-5.8584,-5.8143,-5.8033,-5.7446,0.0,0.0,0.0,0.0,0.0,0.0,0.0,-5.7629,-5.9245,-6.0896,-6.2622,-6.278,-6.212,-6.0529,-6.0419,-5.8694,-5.4656,-5.4509,-5.3445,-5.0912,-5.0802,0.0,0.0,0.0,0.0,0.0,0.0,0.0,0.0,0.0,0.0,0.0,0.0,0.0,0.0,0.0,0.0,0.0,0.0,0.0,0.0,0.0,0.0,0.0,0.0,0.0,0.0,0.0,0.0,0.0,-6.339,-6.3466,-6.3738,-6.4018,-6.3965,0.0,0.0,0.0,0.0,0.0,0.0,0.0,0.0,0.0,-6.8673,-6.9934,-7.0763,-7.1148,-7.1847,-7.2435,-7.2876,-7.2855,-7.3413,-7.4515,-7.4147,-7.4258,-7.4632,-7.4111,-7.2606,-7.0403,-6.8715,-6.6512,-6.42,0.0,0.0,0.0,0.0,-6.398,-6.4787,-6.4861,-6.442,-6.387,-6.4127,0.0,0.0,0.0,0.0,0.0,0.0,0.0,0.0,0.0,0.0,-6.2585,-6.0933,-6.1153,-6.152,-6.0713,-5.9905,-5.9098,0.0,-5.807,-5.774,-5.6345,0.0,0.0,0.0,0.0,-5.55,-5.7116,-5.8731,-6.0529,-6.256,-6.2401,-6.1667,-6.0493,-6.0015,-5.84,-5.528,-5.506,-5.3775,-5.0912,-5.1242,-5.1206,0.0,0.0,0.0,0.0,0.0,0.0,0.0,0.0,0.0,0.0,0.0,0.0,0.0,0.0,0.0,0.0,0.0,0.0,0.0,0.0,0.0,0.0,0.0,0.0,0.0,0.0,0.0,0.0,-6.4574,-6.4574,-6.4254,-6.5103,-6.5053,0.0,0.0,0.0,0.0,0.0,0.0,-6.7893,-6.8894,-7.0018,-7.1453,-7.2957,-7.4037,-7.4625,-7.4845,-7.5359,-7.6166,-7.6166,-7.668,-7.7635,-7.7451,-7.7671,-7.8154,-7.6754,-7.5469,-7.4111,-7.1505,-6.8641,-6.5852,-6.5228,-6.4897,-6.464,-6.398,-6.4567,-6.5668,-6.6072,-6.6182,-6.6109,-6.5485,-6.4604,-6.3613,-6.2805,0.0,0.0,0.0,0.0,-6.3319,-6.2695,-6.3466,-6.4016,-6.2585,-6.2842,-6.3172,-6.2144,-6.1447,-6.0493,0.0,-5.8621,-5.8327,-5.6528,0.0,0.0,0.0,-5.4252,-5.5611,-5.7226,-5.8841,-6.0579,-6.256,-6.2071,-6.1263,-6.0456,-5.9685,-5.818,-5.5757,-5.5596,-5.4326,-5.1536,-5.1573,-5.1132,-4.9941,0.0,0.0,0.0,0.0,0.0,0.0,0.0,0.0,0.0,0.0,0.0,0.0,0.0,0.0,0.0,0.0,0.0,0.0,0.0,0.0,0.0,0.0,0.0,0.0,0.0,0.0,0.0,0.0,0.0,-6.4389,-6.4954,0.0,0.0,0.0,0.0,-6.6415,-6.7936,-6.9466,-7.0991,-7.2561,-7.378,-7.4625,-7.624,-7.7053,-7.7127,-7.7928,-7.8772,-7.9543,-7.9543,-8.0351,-8.1856,-8.1122,-8.0791,-8.0791,-7.991,-7.8185,-7.5726,-7.2569,-6.9779,-6.7577,-6.7504,-6.7026,-6.6366,-6.6329,-6.6366,-6.6329,-6.5632,-6.5375,-6.5375,-6.5301,-6.42,-6.3172,-6.4677,-6.4053,0.0,0.0,-6.5778,-6.5154,-6.5118,-6.5191,-6.5044,-6.4163,-6.4604,-6.4751,-6.3099,-6.2732,-6.1973,0.0,-5.8547,-5.8033,-5.7886,0.0,-5.495,-5.6345,-5.6638,-5.7262,-5.8854,-6.0493,-6.1814,-6.2732,-6.2071,-6.1263,-6.0456,-5.9685,-5.818,-5.5757,-5.5596,-5.484,-5.313,-5.1646,-5.0839,-5.0729,-5.0839,0.0,0.0,0.0,0.0,0.0,0.0,0.0,0.0,0.0,0.0,0.0,0.0,0.0,0.0,0.0,0.0,0.0,0.0,0.0,0.0,0.0,0.0,0.0,0.0,0.0,0.0,0.0,0.0,-6.8723,-6.9549,0.0,-6.8466,-6.8462,-6.9078,-7.034,-7.0459,-7.1671,-7.4258,-7.4441,-7.5579,-7.7965,-7.9103,-8.0204,-8.1232,-8.1525,-8.1856,-8.2113,-8.1599,-8.1636,-8.2186,-8.1893,-8.1782,-8.1746,-8.0901,-7.9764,-7.8295,-7.6093,-7.3156,-6.9963,-6.9449,-6.8752,-6.7981,-6.7467,-6.7577,-6.7944,-6.71,-6.7173,-6.7467,-6.6402,-6.5668,-6.5191,-6.5301,-6.4897,-6.4604,-6.5485,-6.5521,-6.5301,-6.5301,-6.5705,-6.5888,-6.5081,-6.5081,-6.5007,-6.387,-6.3649,-6.3062,-6.1117,-5.9685,-5.8621,-5.8107,-5.6859,-5.6161,-5.6712,-5.7262,-5.8143,-5.9795,-6.0933,-6.1924,-6.2732,-6.163,-6.0713,-6.0419,-5.9208,-5.7629,-5.5721,-5.5097,-5.3885,-5.1756,-5.1096,-5.0288,-4.9224,-4.9738,-5.0802,0.0,0.0,0.0,0.0,0.0,0.0,0.0,0.0,0.0,0.0,0.0,0.0,0.0,0.0,0.0,0.0,0.0,0.0,0.0,0.0,0.0,0.0,0.0,0.0,0.0,-6.9399,-7.1195,-7.2406,-7.3823,-7.4088,-7.2679,-7.2839,-7.3353,-7.4074,-7.4147,-7.5212,-7.7635,-7.7781,-7.8772,-8.0938,-8.1525,-8.2333,-8.3398,-8.3141,-8.2994,-8.2994,-8.2443,-8.2186,-8.2186,-8.2186,-8.2186,-8.215,-8.1636,-8.0791,-7.969,-7.8589,-7.6093,-7.2826,-7.1725,-7.066,-6.9669,-6.9119,-6.9082,-6.9192,-6.8385,-6.8458,-6.8678,-6.732,-6.6733,-6.6402,-6.5888,-6.5705,-6.5705,-6.5705,-6.5888,-6.6109,-6.6109,-6.6512,-6.6769,-6.6256,-6.6109,-6.5888,-6.5081,-6.4897,-6.442,-6.2768,-6.1337,-6.0162,-5.9355,-5.8547,-5.8217,-5.8767,-5.9281,-6.0126,-6.1484,-6.2108,-6.2658,-6.3172,-6.1777,-6.0676,-6.0419,-5.9428,-5.7776,-5.5354,-5.495,-5.3592,-5.0912,-5.1059,-5.0692,-4.9591,-5.0124,-5.0912,-5.1977,0.0,0.0,0.0,0.0,0.0,0.0,0.0,0.0,0.0,0.0,0.0,0.0,0.0,0.0,0.0,0.0,0.0,0.0,0.0,0.0,0.0,0.0,0.0,-6.9384,-7.2116,-7.4396,-7.5272,-7.7396,-7.7855,-7.5469,-7.5909,-7.6717,-7.753,-7.9066,-8.0314,-8.1158,-8.259,-8.3398,-8.3398,-8.3398,-8.3361,-8.3361,-8.259,-8.2186,-8.2186,-8.2186,-8.2186,-8.2186,-8.2186,-8.2186,-8.2186,-8.2186,-8.1305,-7.9869,-7.98,-7.8369,-7.6019,-7.4404,-7.2789,-7.1394,-7.1394,-7.0844,-7.0036,-6.9229,-6.8935,-6.8788,-6.7944,-6.7173,-6.6549,-6.6549,-6.6549,-6.6549,-6.6549,-6.71,-6.7687,-6.7687,-6.7687,-6.7687,-6.7687,-6.7677,-6.743,-6.6659,-6.6512,-6.6035,-6.442,-6.3466,-6.2658,-6.1777,-6.0933,-6.097,-6.256,-6.278,0.0,-6.398,-6.4053,-6.4053,-6.4127,-6.2622,-6.1263,-6.0493,-6.0382,-5.8621,-5.4656,-5.506,-5.4069,-5.0875,-5.1463,-5.1867,-5.1867,-5.194,-5.1169,-4.961,0.0,0.0,0.0,0.0,0.0,0.0,0.0,0.0,0.0,0.0,0.0,0.0,0.0,0.0,0.0,0.0,0.0,0.0,0.0,0.0,0.0,-6.944,-7.1533,-7.1617,-7.5411,-7.8908,-8.086,-8.2219,-8.292,-8.281,-8.248,-8.2847,-8.4242,-8.3691,-8.3875,-8.5306,-8.4132,-8.3398,-8.3398,-8.2847,-8.2517,-8.2517,-8.2296,-8.2186,-8.2186,-8.2186,-8.2186,-8.2186,-8.2186,-8.2186,-8.2186,-8.2186,-8.1636,-8.0608,-8.0021,-7.9029,-7.7745,-7.6093,-7.4441,-7.3046,-7.3046,-7.2165,-7.0881,-7.0036,-6.9376,-6.8788,-6.7944,-6.754,-6.7357,-6.7357,-6.7357,-6.7357,-6.7357,-6.7504,-6.7687,-6.7687,-6.7687,-6.7687,-6.7687,-6.7247,-6.6769,-6.6549,-6.6512,-6.6182,-6.5191,-6.5264,-6.4861,-6.2842,-6.1337,-6.097,-6.256,-6.2291,0.0,-6.3906,-6.3539,-6.3613,-6.4861,-6.2952,-6.152,-6.13,-5.9685,-5.7446,-5.4583,-5.3518,-5.205,-5.0014,-4.9554,-4.9334,-4.9334,-5.0508,-5.0578,0.0,0.0,0.0,0.0,0.0,0.0,0.0,0.0,0.0,0.0,0.0,0.0,0.0,0.0,0.0,0.0,0.0,0.0,0.0,0.0,0.0,0.0,-7.2936,-7.5763,-7.7781,-8.0241,-8.27,-8.5123,-8.6114,-8.6811,-8.7252,-8.6885,-8.6885,-8.7472,-8.6958,-8.6591,-8.6518,-8.549,-8.4462,-8.3434,-8.2957,-8.2553,-8.2186,-8.2186,-8.2186,-8.2186,-8.2186,-8.2186,-8.2186,-8.2186,-8.2186,-8.2186,-8.2186,-8.1562,-8.0461,-7.9984,-7.9103,0.0,0.0,0.0,0.0,0.0,-7.2386,-7.1211,-7.0367,-6.9559,-6.8788,-6.7944,-6.7687,-6.7687,-6.7687,-6.7687,-6.7687,-6.7687,-6.7687,-6.7687,-6.7687,-6.7687,-6.7687,-6.7687,-6.732,-6.699,-6.699,-6.699,-6.6769,-6.5962,-6.6182,0.0,-6.4604,-6.3576,-6.3392,-6.4677,-6.4457,-6.4494,-6.5485,-6.4567,-6.4347,-6.5668,-6.3576,-6.1961,-6.163,-6.0015,0.0,0.0,0.0,-5.227,-5.0675,-5.0105,0.0,0.0,0.0,-5.1202,-5.0004,-5.1271,0.0,0.0,-5.0794,-5.1135,0.0,0.0,0.0,0.0,0.0,0.0,0.0,0.0,0.0,0.0,0.0,0.0,0.0,0.0,0.0,0.0,-7.7011,-8.0828,-8.5637,-8.5894,-8.6334,-8.8353,-8.9234,-8.9674,-8.9674,-8.9492,-8.9197,-8.8647,-8.9014,-8.8353,-8.6187,-8.6591,0.0,0.0,0.0,-8.292,-8.2186,-8.2186,-8.2186,-8.2186,-8.2186,-8.2186,-8.2186,-8.2186,-8.2186,-8.2186,-8.2186,-8.1379,-8.0057,-7.9874,-7.8809,-7.7273,-7.709,-7.6099,-7.4588,-7.3083,-7.1982,-7.1211,-7.0367,0.0,0.0,-6.7944,-6.7687,-6.7687,-6.7687,-6.7687,-6.7687,-6.7687,-6.7687,-6.7687,-6.7687,-6.7687,-6.7687,-6.7687,-6.7687,-6.7687,-6.7687,-6.7687,-6.7467,-6.6769,-6.6623,-6.6623,-6.6623,-6.6476,-6.6623,-6.743,-6.7467,-6.7467,-6.754,-6.6256,-6.5632,-6.6549,0.0,0.0,-6.1777,-6.0823,-5.8621,-5.4766,-5.4289,-5.3445,-5.194,-5.1756,-5.1756,-5.1867,-5.2491,-5.2103,-5.0762,-5.1458,-5.1092,-4.9698,-5.0195,-4.9997,0.0,0.0,0.0,0.0,0.0,0.0,0.0,0.0,0.0,0.0,0.0,0.0,0.0,0.0,0.0,-7.6754,-8.0351,-8.4168,-8.9014,-9.0702,-9.1363,-9.1143,-9.1253,-9.1326,-9.1326,-9.0188,-8.9895,-9.1033,-8.9454,-8.8243,-8.7766,-8.6664,-8.5233,-8.3471,-8.2774,-8.237,-8.2186,-8.2186,-8.2186,-8.2186,0.0,0.0,-8.2186,-8.2186,-8.2186,-8.2186,-8.2186,-8.2003,-8.1636,-8.0314,-7.8809,-7.7163,-7.5873,-7.4771,-7.3817,-7.2863,-7.1982,-7.1211,-7.0367,-6.9559,-6.8788,-6.7944,-6.7687,-6.7687,-6.7687,-6.7687,0.0,-6.7687,-6.7687,-6.7687,-6.7687,-6.7687,-6.7687,-6.7687,-6.7687,-6.7687,-6.7687,-6.7687,-6.7677,-6.7504,-6.7467,-6.7467,-6.7467,-6.6402,-6.5815,-6.6623,-6.6182,-6.5999,-6.6659,-6.5888,-6.5852,-6.7283,-6.5301,-6.3503,-6.2658,-6.0615,-5.829,-5.5537,-5.3518,-5.2013,-5.1059,-5.0398,-5.0381,-5.1022,-5.0545,-5.0354,-5.0477,-5.0623,-5.0529,-5.0153,-5.0566,-5.0301,0.0,0.0,0.0,0.0,0.0,0.0,0.0,0.0,0.0,0.0,0.0,-6.5999,-6.8458,0.0,-7.5432,-8.0755,-8.3654,-8.6775,-9.1216,-9.184,-9.1987,-9.2391,-9.2464,-9.2134,-9.1289,-9.0482,-9.0005,-9.0005,-8.9271,-8.8463,-8.7655,-8.7215,-8.6077,-8.4058,-8.3618,-8.2994,-8.2186,-8.2186,-8.2186,-8.2186,-8.2186,-8.2186,-8.2186,-8.2186,-8.2186,-8.2186,-8.2186,-8.1966,-8.1452,-7.9837,-7.8442,-7.7127,-7.5512,-7.4661,-7.4147,-7.2936,-7.1982,-7.1211,-7.0367,-6.9853,-6.9302,-6.8091,-6.7944,-6.8238,-6.7797,-6.7687,-6.7687,-6.7687,-6.7687,-6.7687,-6.7687,-6.7687,-6.7687,-6.7687,-6.7687,-6.7687,-6.7687,-6.7687,-6.7687,-6.7687,-6.7687,-6.7687,-6.7687,-6.7026,-6.6623,-6.7026,-6.6769,-6.6659,-6.7026,-6.6402,-6.6366,-6.7577,-6.5521,-6.3906,-6.3503,-6.0456,-5.774,-5.5721,-5.4494,-5.3261,-5.205,-5.161,-5.1206,-5.0802,-5.0802,-5.0945,-5.1188,-5.1627,-5.1606,-5.1161,-5.1747,-5.1291,0.0,0.0,0.0,0.0,0.0,0.0,0.0,-6.2108,-6.3209,-6.4714,-6.6953,-6.9559,-7.2642,-7.5836,-7.958,-8.4315,-8.6554,-8.8977,-9.2611,-9.206,-9.1693,-9.2721,-9.2574,-9.1877,-9.0519,-9.0225,-8.9674,-8.8536,-8.8757,-8.839,-8.7068,-8.7472,-8.6701,-8.4462,-8.4389,-8.3654,-8.2223,-8.2186,-8.2186,-8.2186,-8.2186,-8.2186,-8.2186,-8.2186,-8.2186,-8.2186,-8.2039,-8.1525,-8.0645,-7.9029,-7.7855,-7.6937,-7.5322,-7.4661,-7.4515,-7.3046,-7.1982,-7.1211,-7.055,-7.022,-6.9853,-6.8385,-6.8385,-6.8752,-6.7944,-6.7687,-6.7687,-6.7687,-6.7687,-6.7687,-6.7687,-6.7687,-6.7687,-6.7687,-6.7687,-6.7687,-6.7687,-6.7687,-6.7687,-6.7687,-6.7687,-6.7687,-6.7687,-6.7687,-6.7687,-6.7687,-6.7687,-6.7687,-6.7687,-6.7136,-6.699,-6.7614,-6.5668,-6.4127,-6.3649,-6.0456,-5.7776,-5.6161,-5.6073,-5.5354,-5.3739,-5.335,-5.2653,-5.1536,-5.183,-5.205,-5.2213,-5.2852,-5.2815,-5.2213,-5.2648,-5.2087,-6.4494,-6.2879,-6.1741,-6.2401,-6.267,-6.3135,0.0,-6.5925,-6.7247,-6.8164,-7.0293,-7.2716,-7.5249,-7.8369,-8.1929,-8.6077,-8.8683,-9.0886,-9.2831,-9.3565,-9.3382,-9.2097,-9.0702,-8.9712,-8.9529,-8.8904,-8.8683,-8.9234,-8.8059,-8.7215,-8.7031,-8.6407,-8.5306,-8.3618,-8.3544,-8.3104,-8.2186,-8.2186,-8.2186,-8.2186,-8.2186,-8.2186,-8.2186,-8.2186,-8.2186,-8.215,-8.1452,-8.0681,-7.98,-7.8148,-7.6974,-7.6056,-7.4441,-7.3817,-7.3707,-7.2826,-7.1982,-7.1321,-7.1183,-7.0697,-6.9963,-6.9045,-6.8825,-6.8752,-6.7944,-6.7687,-6.7687,-6.7687,-6.7687,-6.7687,-6.7687,-6.7687,-6.7687,-6.7687,-6.7687,-6.7687,-6.7687,-6.7687,-6.7687,-6.7687,-6.7687,-6.7687,-6.7687,-6.7687,-6.7687,-6.7687,-6.7687,-6.7687,-6.7687,-6.7614,-6.7577,-6.7687,-6.6182,-6.4273,-6.2071,-6.0823,-5.9428,-5.7813,-5.774,-5.7005,-5.539,-5.3959,-5.3445,-5.3995,-5.2674,-5.2302,-5.2892,-5.2965,-5.2965,-5.2856,-5.2126,-5.1788,-6.2511,-6.2475,-6.2989,-6.2842,-6.4578,-6.6549,-6.7247,-6.8641,-7.0293,-7.2055,-7.4331,-7.6937,-7.9837,-8.2627,-8.5343,-8.7986,-8.9638,-9.1033,-9.217,-9.1436,-9.0335,-8.916,-8.7582,-8.7178,-8.8573,-8.839,-8.8169,-8.8023,-8.7399,-8.6995,-8.6995,-8.6224,-8.549,-8.4829,-8.3911,-8.3251,-8.292,-8.2443,-8.2186,-8.2186,-8.2186,-8.2186,-8.2186,-8.2186,-8.2186,-8.2186,-8.1819,-8.1232,-8.0424,-7.925,-7.8002,-7.6644,-7.5028,-7.4111,-7.3597,-7.2789,-7.2312,-7.1945,-7.1468,-7.1101,-7.066,-6.9853,-6.9302,-6.8862,-6.8495,-6.8054,-6.7687,-6.7687,-6.7687,-6.7687,-6.7687,-6.7687,-6.7687,-6.7687,-6.7687,-6.7687,-6.7687,-6.7687,-6.7687,-6.7687,-6.7687,-6.7687,-6.7687,-6.7687,-6.7687,-6.7687,-6.7687,-6.7687,-6.7687,-6.7687,-6.7504,-6.7026,-6.5999,-6.4494,-6.2475,-6.1557,-6.0603,-5.9465,-5.8951,-5.818,-5.7042,-5.5904,-5.5023,-5.4399,-5.3739,-5.3314,-5.3103,-5.3103,-5.3103,-5.3103,-5.2694,-5.2547,-6.1263,-6.2695,-6.464,-6.4237,-6.7063,-7.0073,-7.0734,-7.2312,-7.4331,-7.6754,-7.8846,-8.1048,-8.3581,-8.5857,-8.7802,-8.9197,-9.0482,-9.1326,-9.1436,-8.9784,-8.7912,-8.6224,-8.4609,-8.4278,-8.604,-8.6811,-8.7068,-8.6701,-8.6481,-8.6444,-8.6664,-8.5894,-8.538,-8.5159,-8.4022,-8.3287,-8.3067,-8.248,-8.2186,-8.2186,-8.2186,-8.2186,-8.2186,-8.2186,-8.2186,-8.2186,-8.1709,-8.1195,-8.0571,-7.9286,-7.8075,-7.6827,-7.5212,-7.4221,-7.3597,-7.2789,-7.2496,-7.2422,-7.1835,-7.1505,-7.1174,-7.0367,-6.9559,-6.8862,-6.8641,-6.8164,-6.7687,-6.7687,-6.7687,-6.7687,-6.7687,-6.7687,-6.7687,-6.7687,-6.7687,-6.7687,-6.7687,-6.7687,-6.7687,-6.7687,-6.7687,-6.7687,-6.7687,-6.7687,-6.7687,-6.7687,-6.7687,-6.7687,-6.7687,-6.7687,-6.7393,-6.6586,-6.5999,-6.4971,-6.3319,-6.2622,-6.1851,-6.0786,-5.9979,-5.9171,-5.8364,-5.7373,-5.6271,-5.5097,-5.462,-5.4106,-5.3555,-5.3314,-5.3203,-5.3203,-5.3203,-5.3146,-6.1777,-6.3943,-6.6623,-6.7357,-7.0,-7.301,-7.5359,-7.7781,-8.0204,-8.2663,-8.3838,-8.4682,-8.5563,-8.7068,-8.8426,-8.9271,-9.1436,-9.2464,-9.0849,-8.9931,-8.7912,-8.3985,-8.2113,-8.1158,-8.1232,-8.3324,-8.5013,-8.5783,-8.5123,-8.5013,-8.5783,-8.5086,-8.4278,-8.3508,-8.3434,-8.303,-8.2223,-8.2223,-8.2186,-8.2186,-8.2186,-8.2186,-8.2186,-8.2186,-8.2186,-8.2113,-8.0534,-7.9837,-7.9653,-7.7194,-7.6166,-7.5983,-7.4368,-7.3707,-7.3597,-7.2789,-7.2496,-7.2496,-7.2459,-7.1945,-7.1174,-7.0367,-6.9559,-6.8752,-6.7944,-6.7724,-6.7687,-6.7687,-6.7687,-6.7687,-6.7687,-6.7687,-6.7687,-6.7687,-6.7687,-6.7687,-6.7687,-6.7687,-6.7687,-6.7687,-6.7687,-6.7687,-6.7687,-6.7687,-6.7687,-6.7687,-6.7687,-6.7687,-6.7687,-6.7687,-6.7393,-6.6586,-6.6476,-6.5815,-6.42,-6.4016,-6.3319,-6.1667,-6.0823,-6.0015,-5.9184,-5.7643,-5.6785,-5.6748,-5.5207,-5.4399,-5.4363,-5.3592,-5.3203,-5.3203,-5.3203,-5.3203,-6.3833,-6.6806,-7.0146,-7.2018,-7.4918,-7.7818,-7.9727,-8.1636,-8.3214,-8.4022,-8.3985,-8.4058,-8.4866,-8.6334,-8.7509,-8.7766,-8.9858,-9.0702,-8.8536,-8.7509,-8.5306,-8.0755,-8.0204,-7.9543,-7.7928,-8.0461,-8.2994,-8.4866,-8.5233,-8.527,-8.5013,-8.4756,-8.4499,-8.4205,-8.3177,-8.2737,-8.2994,-8.248,-8.2186,-8.2186,-8.2186,-8.2186,-8.2186,-8.2186,-8.2186,-8.215,-8.1636,-8.0791,-7.9727,-7.8883,-7.7598,-7.6056,-7.5506,-7.4955,-7.4404,-7.3597,-7.3303,-7.323,-7.2679,-7.1982,-7.1329,-7.1615,-7.0807,-6.9743,-7.0,-6.9706,-6.9265,-6.9265,-6.9265,-6.9265,-6.9265,-6.9265,-6.9155,-6.8605,-6.8495,-6.8348,-6.7797,-6.7687,-6.7687,-6.7687,-6.7687,-6.7687,-6.7687,-6.7687,-6.7687,-6.7687,-6.7687,-6.7687,-6.7687,-6.7687,-6.7577,-6.732,-6.6806,-6.6292,-6.5742,-6.4714,-6.3833,-6.3282,-6.1961,-6.108,-6.0786,-5.9245,-5.8143,-5.7593,-5.6528,-5.5721,-5.5207,-5.4913,-5.4509,-5.3995,-5.3995,-5.3659,-6.6843,-7.0624,-7.4441,-7.657,-7.9323,-8.1856,-8.3177,-8.4058,-8.4609,-8.4609,-8.3728,-8.2957,-8.2884,-8.3728,-8.4535,-8.4829,-8.6407,-8.7252,-8.6297,-8.4939,-8.281,-7.9433,-7.8699,-7.8075,-7.7084,-7.8626,-8.0828,-8.3544,-8.4499,-8.4829,-8.4609,-8.4352,-8.4168,-8.4168,-8.2884,-8.2443,-8.2994,-8.2443,-8.2186,-8.2186,-8.2186,-8.2186,-8.2186,-8.2186,-8.2186,-8.215,-8.1599,-8.0755,-7.9727,-7.914,-7.7965,-7.6497,-7.6203,-7.5799,-7.5249,-7.4441,-7.3927,-7.356,-7.2789,-7.1982,-7.1366,-7.1908,-7.1174,-7.0183,-7.0734,-7.0513,-7.011,-7.011,-7.011,-7.011,-7.011,-6.9889,-6.9522,-6.9009,-6.8678,-6.8311,-6.7797,-6.7687,-6.7687,-6.7687,-6.7687,-6.7687,-6.7687,-6.7467,-6.7247,-6.7247,-6.7026,-6.6953,-6.721,-6.7247,-6.7136,-6.688,-6.6366,-6.6072,-6.6072,-6.4861,-6.409,-6.409,-6.2511,-6.1594,-6.1594,-6.0052,-5.8964,-5.8437,-5.7373,-5.6565,-5.6014,-5.5427,-5.4913,-5.4399,-5.4106,-5.3601,-7.0734,-7.5175,-7.9213,-8.0828,-8.2994,-8.4903,-8.5637,-8.5159,-8.4535,-8.4389,-8.303,-8.1379,-7.9727,-7.9543,-7.9947,-8.0755,-8.1746,-8.292,-8.4462,-8.2663,-8.0828,-7.991,-7.7708,-7.6864,-7.8405,-7.7855,-7.8736,-8.1893,0.0,-8.3691,-8.4499,-8.3838,-8.3398,-8.3398,-8.2627,-8.2186,-8.2186,-8.2186,-8.2186,-8.2186,-8.2186,-8.2186,-8.2186,-8.2186,-8.2186,-8.2039,-8.0498,-7.98,-7.9617,-7.8038,-7.7347,-7.72,-7.646,-7.6166,-7.6056,-7.5285,-7.4441,-7.3634,-7.2826,-7.2055,-7.1329,-7.1329,-7.0844,-7.022,-7.022,-7.022,-7.022,-7.022,-7.022,-7.022,-7.022,-6.9669,-6.9082,-6.9045,-6.8421,-6.7871,-6.7834,-6.7797,-6.7797,-6.7797,-6.7787,-6.7687,-6.7677,-6.6953,-6.6439,-6.6439,-6.5778,-6.5595,-6.6329,-6.6439,-6.6145,-6.5375,-6.5301,-6.5301,-6.5301,-6.4567,-6.409,-6.409,-6.2511,-6.1594,-6.1594,-6.0089,-5.9258,-5.9258,-5.768,-5.6895,-5.6932,-5.5317,-5.4509,-5.4509,-5.3665,-5.3161,-7.4705,-7.8888,-8.2553,-8.4168,-8.549,-8.6297,-8.5894,-8.5159,-8.3911,-8.1525,-7.9213,-7.6974,-7.4771,-7.6313,-7.8222,-7.9066,-8.2406,-8.5013,-8.5416,-8.4462,-8.27,-8.0094,-7.9213,-7.8516,-7.7708,-7.8552,-7.9764,-8.1195,-8.2039,-8.2847,-8.3654,-8.3508,-8.3398,-8.3398,-8.2627,-8.2186,-8.2186,-8.2186,-8.2186,-8.2186,-8.2186,-8.2186,-8.2186,-8.2186,-8.1856,-8.1269,-8.0865,-8.0021,-7.8883,-7.8442,-7.7892,-7.7273,-7.7053,-7.698,-7.69,-7.6093,-7.5285,-7.4478,-7.367,-7.2863,-7.2202,-7.2202,-7.2055,-7.1908,-7.1908,-7.1908,-7.1908,-7.1908,-7.1908,-7.1908,-7.1908,-7.1725,-7.1431,-7.0844,-7.055,-7.022,-6.9596,-6.9486,-6.9486,-6.9486,-6.8495,-6.7504,-6.6916,-6.6145,-6.5632,-6.5632,-6.5448,-6.5375,-6.5595,-6.5632,-6.5521,-6.5338,-6.5301,-6.5301,-6.5301,-6.4567,-6.409,-6.409,-6.2511,-6.1594,-6.1594,-6.0639,-6.0089,-6.0089,-5.851,-5.7997,-5.8561,-5.6969,-5.6198,-5.6161,-5.4766,-5.3754,-7.9837,-8.3214,-8.5894,-8.7509,-8.7435,-8.6628,-8.5086,-8.3581,-8.1452,-7.7855,-7.5432,-7.3046,-6.9926,-7.1982,-7.4294,-7.4771,-7.8626,-8.2039,-8.3471,-8.2994,-8.2223,-8.1452,-8.0755,-8.0241,-7.9989,-8.0204,-8.0645,-8.1452,-8.226,-8.2774,-8.2884,-8.3214,-8.3251,-8.2884,-8.2443,-8.2186,-8.2186,-8.2186,-8.2186,-8.2186,-8.2186,-8.2186,-8.2186,-8.2186,-8.1929,-8.1489,-8.0791,-7.9947,-7.9066,-7.8332,-7.7745,-7.7273,-7.7273,-7.7273,-7.7237,-7.679,-7.613,-7.5322,-7.4515,-7.3707,-7.2973,-7.2606,-7.2496,-7.2496,-7.2496,-7.2496,-7.2496,-7.2496,-7.2496,-7.2496,-7.2496,-7.2239,-7.1872,-7.1403,-7.1027,-7.066,-7.0183,-7.011,-7.0,-6.9633,-6.8825,-6.7871,-6.6696,-6.5852,-6.5191,-6.4824,-6.4457,-6.4174,-6.4174,-6.453,-6.464,-6.4237,-6.4174,-6.4383,-6.4751,-6.4016,-6.3686,-6.4053,-6.2842,-6.1961,-6.1594,-6.0823,-6.0089,-5.9355,-5.8107,-5.7519,-5.7629,-5.6381,-5.5941,-5.6235,-5.4252,-5.3277,-8.5013,-8.7362,-8.8867,-9.0262,-8.8793,-8.6334,-8.3838,-8.1122,-7.7965,-7.3891,-7.1615,-6.9265,-6.5632,-6.7614,-6.9963,-7.0477,-7.3964,-7.7745,-8.1012,-8.0791,-8.1048,-8.3177,-8.2076,-8.1746,-8.3251,-8.215,-8.1599,-8.2296,-8.3104,-8.3214,-8.2406,-8.292,-8.292,-8.2223,-8.2186,-8.2186,-8.2186,-8.2186,-8.2186,-8.2186,-8.2186,-8.2186,-8.2186,-8.2186,-8.2076,-8.1782,-8.0388,-7.9653,-7.936,-7.7928,-7.7273,-7.7273,-7.7273,-7.7273,-7.7273,-7.7273,-7.6717,-7.5836,-7.5139,-7.4294,-7.3413,-7.2716,-7.2496,-7.2496,-7.2496,-7.2496,-7.2496,-7.2496,-7.2496,-7.2496,-7.2496,-7.1982,-7.1468,-7.1468,-7.0917,-7.0403,-7.0403,-7.0403,-7.0146,-6.9229,-6.8898,-6.8238,-6.6623,-6.5595,-6.4751,-6.4016,-6.3282,-6.278,-6.278,-6.3466,-6.3649,-6.2879,-6.278,-6.3099,-6.387,-6.3246,-6.3135,-6.387,-6.3135,-6.2291,-6.1484,-6.0786,-5.9685,-5.818,-5.7262,-5.6528,-5.5904,-5.4913,-5.4803,-5.5559,-5.3225,-5.2412,-8.7839,-8.9454,-9.0262,-9.0519,-8.8793,-8.6187,-8.3104,-7.8956,-7.4625,-7.055,-6.7393,-6.4934,-6.3503,-6.5925,-6.9192,-7.2532,-7.6497,-8.0277,-8.3508,-8.3287,-8.2957,-8.3361,-8.259,-8.237,-8.3324,-8.3177,-8.3067,-8.3177,-8.3948,-8.4058,-8.3251,-8.27,-8.2333,-8.2186,-8.2186,-8.2186,-8.2186,-8.2186,-8.2186,-8.2186,-8.2186,-8.2186,-8.2186,-8.2186,-8.1452,-8.0204,-7.991,0.0,-7.7708,-7.742,-7.7273,-7.7273,-7.7273,-7.7273,-7.7273,-7.7273,-7.6356,-7.5102,-7.4955,-7.3964,-7.2679,-7.2569,-7.2496,-7.2496,-7.2496,-7.2496,-7.2496,-7.2496,-7.2496,-7.2496,-7.2496,-7.2422,-7.2312,-7.2312,-7.2202,-7.2092,-7.2092,-7.2092,-7.1651,-7.0183,-6.8825,-6.7393,-6.5778,-6.4237,-6.3184,-6.3062,-6.2915,-6.278,-6.278,-6.2952,-6.2989,-6.2842,-6.278,-6.2853,-6.3025,-6.289,-6.2853,-6.3025,-6.2254,-6.1447,-6.0639,-6.0456,-5.9979,-5.9001,-5.7556,-5.7079,-5.7556,-5.5427,-5.4803,-5.5537,-5.3812,-5.269,-9.0959,-9.195,-9.1803,-9.1326,-8.8133,-8.4058,-7.9947,-7.4955,-7.0,-6.5925,-6.387,-6.2401,-6.1166,-6.3943,-6.7357,-7.011,-7.3266,-7.6937,-8.1452,-8.1012,-8.1016,-8.3177,-8.3067,-8.3141,-8.3948,-8.4022,-8.3875,-8.3434,-8.3765,-8.3618,-8.281,-8.2406,-8.2186,-8.2186,-8.2186,-8.2186,-8.2186,-8.2186,-8.2186,-8.2186,-8.2186,-8.2186,-8.2186,-8.2186,-8.1562,-8.0388,-7.9984,-7.9103,-7.7965,-7.7494,-7.7273,-7.7273,-7.7273,-7.7273,-7.7273,-7.7273,-7.6796,-7.6026,-7.5212,-7.4404,-7.3634,-7.2789,-7.2496,-7.2496,-7.2496,-7.2789,-7.3046,-7.2606,-7.2789,-7.3046,-7.2606,-7.2496,-7.2496,-7.2496,-7.2496,-7.2496,-7.2496,-7.2496,-7.2018,-7.0403,-6.9486,-6.8311,-6.6256,-6.4934,-6.398,-6.3539,-6.3099,-6.278,-6.278,-6.278,-6.278,-6.278,-6.278,-6.278,-6.278,-6.278,-6.278,-6.278,-6.2438,-6.1851,-6.1043,-6.0639,-5.9832,-5.8621,-5.7409,-5.6602,-5.6124,-5.495,-5.4583,-5.495,-5.3335,-5.2601,-9.3161,-9.3565,-9.2868,-9.1803,-8.7178,-8.1672,-7.7121,-7.1468,-6.6109,-6.2365,-6.1447,-6.097,-5.9685,-6.2548,-6.5668,-6.765,-7.0146,-7.3634,-7.8809,-7.8699,-7.936,-8.2737,-8.3324,-8.3654,-8.4278,-8.4646,-8.4462,-8.3471,-8.3251,-8.2884,-8.2223,-8.2186,-8.2186,-8.2186,-8.2186,-8.2186,-8.2186,-8.2186,-8.2186,-8.2186,-8.2186,-8.2186,-8.2186,-8.2186,-8.1746,-8.0975,-8.0314,-7.958,-7.8772,-7.7928,-7.7567,-7.753,-7.7347,-7.7273,-7.7273,-7.7273,-7.7163,-7.6833,-7.5616,-7.5065,-7.4698,-7.345,-7.2789,-7.2532,-7.2716,-7.3083,-7.334,-7.2899,-7.3083,-7.3303,-7.2679,-7.2496,-7.2496,-7.2496,-7.2496,-7.2459,-7.2275,-7.2386,-7.1982,-7.0183,-6.9853,-6.9119,-6.688,-6.5705,-6.4824,-6.42,-6.3356,-6.278,-6.278,-6.278,-6.278,-6.278,-6.278,-6.278,-6.278,-6.278,-6.278,-6.278,-6.278,-6.2438,-6.163,-6.1006,-5.9905,-5.829,-5.7483,-5.6271,-5.4656,-5.4473,-5.4326,-5.4106,-5.2858,-5.2491,-9.3125,-9.3161,-9.2721,-9.1106,-8.593,-8.0314,-7.69,-7.0624,-6.4787,-6.2144,-6.1006,-6.0456,-6.0309,-6.2438,-6.5228,-6.8311,-7.1431,-7.4698,-7.8222,-7.9837,-8.1085,-8.2186,-8.2957,-8.3434,-8.3508,-8.4829,-8.5049,-8.3544,-8.2737,-8.226,-8.2186,-8.2186,-8.2186,-8.2186,-8.2186,-8.2186,-8.2186,-8.2186,-8.2186,-8.2186,-8.2186,-8.2186,-8.2186,-8.2186,-8.1746,-8.1012,-8.0938,-8.0424,0.0,-7.8809,-7.8479,-7.8405,-7.7604,-7.7273,-7.7273,-7.7273,-7.6864,-7.6203,-7.6056,-7.5506,-7.4882,-7.4735,-7.3707,-7.2642,-7.3377,-7.312,-7.2753,-7.3377,-7.312,-7.2606,-7.2532,-7.2496,-7.2496,-7.2496,-7.2496,-7.2312,-7.1578,-7.1982,-7.1798,-6.9449,-6.9009,-6.8495,-6.6806,-6.5228,-6.42,-6.409,-6.3356,-6.278,-6.278,-6.278,-6.278,-6.278,-6.278,-6.278,-6.278,-6.278,-6.278,-6.278,-6.278,-6.2438,-6.163,-6.152,-6.075,-5.9111,-5.829,-5.7079,-5.5486,-5.4766,-5.4032,-5.3314,-5.3188,-5.2747,-9.2905,-9.3455,-9.2574,-9.0445,-8.4682,-7.8699,-7.5395,-6.8641,-6.2658,-6.119,-6.0639,-6.0566,-6.1043,-6.1924,-6.3649,-6.6916,-6.7724,-6.9376,-7.3634,-7.4331,-7.5836,-7.958,-8.1158,-8.2553,-8.3985,-8.56,-8.5857,-8.4242,-8.292,-8.2186,-8.2186,-8.2186,-8.2186,-8.2186,-8.2186,-8.2186,-8.2186,-8.2186,-8.2186,-8.2186,-8.2186,-8.2186,-8.2186,-8.2186,-8.1746,-8.1012,-8.1012,-8.0534,0.0,-7.8919,-7.8589,-7.8516,-7.7671,-7.7273,-7.7273,-7.7273,-7.709,-7.6754,-7.6276,-7.5909,-7.5542,-7.5065,-7.4478,-7.3927,-7.3744,-7.3817,-7.3817,-7.3156,-7.3083,-7.312,-7.2642,-7.2496,-7.2386,-7.1908,-7.1798,-7.1688,-7.1394,-7.1174,-7.077,-6.9816,-6.9229,-6.8531,-6.743,-6.6292,-6.5375,-6.4897,-6.4127,-6.3392,-6.2879,-6.278,-6.278,-6.278,-6.278,-6.278,-6.278,-6.278,-6.278,-6.278,-6.278,-6.2658,-6.2365,-6.1851,-6.13,-6.0676,-5.9391,-5.818,-5.7042,-5.5757,-5.4693,-5.3922,-5.3424,-5.3041,-9.1033,-9.2611,-9.2391,-8.9454,-8.3801,-7.8038,-7.4478,-6.7981,-6.2328,-6.1006,-6.0933,-6.1227,-6.152,-6.1777,-6.2879,-6.5705,-6.5595,-6.6586,-7.0734,-7.1027,-7.2642,-7.7635,-7.9213,-8.0975,-8.3618,-8.5123,-8.5563,-8.4682,-8.3104,-8.2186,-8.2186,-8.2186,-8.2186,-8.2186,-8.2186,-8.2186,-8.2186,-8.2186,-8.2186,-8.2186,-8.2186,-8.2186,-8.2186,-8.2186,-8.1893,-8.1342,-8.1342,-8.0901,0.0,-7.9286,-7.8809,-7.8516,-7.7671,-7.7273,-7.7273,-7.7273,-7.7273,-7.72,-7.6644,-7.646,-7.6387,-7.5799,-7.5586,-7.5469,-7.4661,-7.4661,-7.4661,-7.3523,-7.345,-7.356,-7.301,-7.2863,-7.2716,-7.2165,-7.1651,-7.1219,-7.0991,-7.0513,-6.9963,-6.9486,-6.9119,-6.8641,-6.7834,-6.7026,-6.6329,-6.5742,-6.4971,-6.4163,-6.3282,-6.3172,-6.3099,-6.2817,-6.278,-6.278,-6.278,-6.278,-6.278,-6.278,-6.278,-6.278,-6.278,-6.2254,-6.1741,-6.1263,-6.0382,-5.9281,-5.7997,-5.7079,-5.6124,-5.5097,-5.4289,-5.3665,-8.7068,-9.0041,-9.2134,-8.8059,-8.3361,-7.8699,-7.4625,-6.9339,-6.4567,-6.2108,-6.2218,-6.2548,-6.1741,-6.2254,-6.3356,-6.5044,-6.6623,-6.8495,-7.0991,-7.1982,-7.367,-7.6907,-7.731,-7.8626,-8.1893,-8.2957,-8.3765,-8.4535,-8.3104,0.0,-8.2186,-8.2186,-8.2186,-8.2186,-8.2186,-8.2186,-8.2186,-8.2186,-8.2186,-8.2186,-8.2186,-8.2186,-8.2186,-8.2186,-8.2186,-8.2186,-8.2186,-8.1746,0.0,-8.0094,-7.9323,-7.8516,-7.7671,-7.7273,-7.7273,-7.7273,-7.7273,-7.7273,-7.7273,-7.7273,-7.7273,-7.7273,-7.7273,-7.7127,-7.6313,-7.5542,-7.4918,-7.4882,-7.4294,-7.3707,-7.367,-7.367,-7.367,-7.367,-7.2459,-7.1101,-7.0293,-7.011,-6.9633,-6.8017,-6.8348,-6.8641,-6.7834,-6.7026,-6.6512,-6.6476,-6.5815,-6.5007,-6.42,-6.409,-6.3759,-6.289,-6.278,-6.278,-6.278,-6.278,-6.278,-6.278,-6.278,-6.278,-6.278,-6.278,-6.2034,-6.0456,-6.119,-6.0382,-5.7997,-5.8804,-5.834,-5.6748,-5.5941,-5.473,-8.215,-8.4242,-8.5086,-8.2663,-7.925,-7.5689,-7.2753,-6.8568,-6.4751,-6.2842,-6.2622,-6.2707,-6.2475,-6.2658,-6.3539,-6.5778,-6.6109,-6.71,-7.0073,-7.1174,-7.3083,-7.6833,-8.0277,-8.292,-8.4499,-8.3911,-8.3508,-8.3765,-8.281,-8.2186,-8.2186,-8.2186,-8.2186,-8.2186,-8.2186,-8.2186,-8.2186,-8.2186,-8.2186,-8.2186,-8.2186,-8.2186,-8.2186,-8.2186,-8.2186,-8.2186,-8.2186,-8.1746,-8.0938,-8.0131,-7.9323,-7.8516,-7.7671,-7.7273,-7.7273,-7.7273,-7.7273,-7.7273,-7.7273,-7.7273,-7.7273,-7.7273,-7.7273,-7.7237,-7.7011,-7.6387,-7.5616,-7.5065,-7.4735,-7.4515,-7.4515,-7.4111,-7.3413,-7.2312,-7.1248,-7.0257,-6.9449,-6.8862,-6.8458,-6.8495,-6.8274,-6.7981,-6.7724,-6.7467,-6.7136,-6.6586,-6.6292,-6.5815,-6.5007,-6.442,-6.398,-6.3723,-6.3172,-6.278,-6.278,-6.278,-6.278,-6.278,-6.278,-6.278,-6.278,-6.278,-6.2291,-6.1227,-6.0933,-6.0126,-5.8841,-5.851,-5.7556,-5.5978,-5.5617,-5.462,-7.6974,-7.9947,-8.1342,-7.9727,-7.7341,-7.4551,-7.1541,-6.8201,-6.5191,-6.3184,-6.278,-6.278,-6.278,-6.278,-6.3429,-6.5301,-6.5154,-6.5852,-6.8788,-7.0403,-7.3046,-7.7708,-8.1746,-8.4352,-8.4866,-8.3985,-8.3398,-8.3398,-8.2663,-8.2186,-8.2186,-8.2186,-8.2186,-8.2186,-8.2186,-8.2186,-8.2186,-8.2186,-8.2186,-8.2186,-8.2186,-8.2186,-8.2186,-8.2186,-8.2186,-8.2186,-8.1893,-8.1305,0.0,-7.969,-7.8846,-7.8075,-7.7494,-7.7273,-7.7273,-7.7273,-7.7273,-7.7273,-7.7273,-7.7273,-7.7273,-7.7273,-7.7273,-7.7273,-7.7273,-7.6754,-7.6019,-7.5506,-7.5359,-7.5359,-7.5359,-7.4771,-7.3891,-7.2899,-7.1578,-7.044,-6.9926,-6.8935,-6.8311,-6.8788,-6.8238,-6.7687,-6.7687,-6.7687,-6.7504,-6.7026,-6.6953,-6.6659,-6.5852,-6.5301,-6.4897,-6.4604,-6.3796,-6.3282,-6.3282,-6.2989,-6.278,-6.278,-6.278,-6.278,-6.278,-6.278,-6.2438,-6.163,-6.1117,-6.0456,-5.9625,-5.8841,-5.7776,-5.6492,-5.6131,-5.5243,0.0,-7.646,-7.969,-7.8112,-7.6607,-7.4478,-7.0624,-6.8017,0.0,-6.3294,-6.278,-6.2817,-6.2879,-6.2842,-6.3135,-6.409,-6.42,-6.5044,-6.7577,-7.0257,-7.3927,-7.9396,-8.2076,-8.3434,-8.3251,-8.3361,-8.3398,-8.3324,-8.2627,-8.2186,-8.2186,-8.2186,-8.2186,-8.2186,-8.2186,-8.2186,-8.2186,-8.2186,-8.2186,-8.2186,-8.2186,-8.2186,-8.2186,-8.215,-8.215,0.0,-8.1305,-8.0534,-7.98,-7.8956,-7.8112,-7.7384,-7.731,-7.7273,-7.7273,-7.7273,-7.7273,-7.7273,-7.7273,-7.7273,-7.7273,-7.7273,-7.7273,-7.7273,-7.7273,-7.679,-7.6203,-7.6203,-7.6203,-7.6203,-7.6203,-7.5579,-7.4992,-7.4918,-7.3156,-7.1468,-7.1431,-7.0183,-6.9082,-6.9082,-6.8385,-6.7797,-6.7797,-6.7724,-6.7687,-6.7687,-6.7687,-6.743,-6.6659,-6.6549,-6.6219,-6.5485,-6.4677,-6.4163,-6.409,-6.3319,-6.278,-6.278,-6.278,-6.278,-6.278,-6.278,-6.2438,-6.163,-6.1484,-6.1043,-6.0309,-5.9551,-5.8804,-5.796,-5.7203,-5.6396,-6.5999,0.0,-7.0587,-6.9596,-6.9486,-6.9082,0.0,-6.5999,-6.5044,-6.3184,-6.278,-6.3025,-6.3686,-6.3246,-6.3503,-6.5595,-6.5411,-6.6292,-6.9963,-7.4698,-7.8993,-8.2186,-8.3618,-8.3581,-8.1746,-8.27,-8.3141,-8.2517,-8.2296,-8.2186,-8.2186,-8.2186,-8.2186,-8.2186,-8.2186,-8.2186,-8.2186,-8.2186,-8.2186,-8.2186,-8.2186,-8.2186,-8.2186,-8.1562,-8.1636,-8.2113,-8.0681,-8.0314,-8.0608,-7.9176,-7.8479,-7.8222,-7.753,-7.7273,-7.7273,-7.7273,-7.7273,-7.7273,-7.7273,-7.7273,-7.7273,-7.7273,-7.7273,-7.7273,-7.7273,-7.7163,-7.7047,-7.7047,-7.7047,-7.7047,-7.7047,-7.6423,-7.5652,-7.5065,-7.4001,-7.2973,-7.2349,-7.1431,-7.077,-7.077,-6.9596,-6.8605,-6.8605,-6.8091,-6.7687,-6.7687,-6.7687,-6.7614,-6.743,-6.688,-6.6439,-6.6256,-6.5521,-6.4787,-6.4127,-6.3319,-6.278,-6.278,-6.278,-6.278,-6.278,-6.278,-6.2438,-6.163,-6.0382,-5.9661,-5.9478,-5.9294,-5.8804,-5.7997,-5.7721,-5.6795,-6.3503,-6.5815,-6.8238,-6.8164,-6.8201,-6.7907,-6.6696,-6.5558,-6.4383,-6.3099,-6.278,-6.2952,-6.3429,-6.3429,-6.3833,-6.5191,-6.5338,-6.6843,-7.1248,-7.5139,-7.8883,-8.2443,-8.292,-8.2737,-8.2186,-8.2553,-8.2663,-8.2223,-8.2186,-8.2186,-8.2186,-8.2186,-8.2186,-8.2186,-8.2186,-8.2186,-8.2186,-8.2186,-8.2186,-8.2186,-8.2186,-8.2186,-8.2186,-8.1746,-8.1782,-8.2113,-8.0865,-8.0388,-8.0351,-7.9103,-7.8369,-7.7965,-7.7457,-7.7273,-7.7273,-7.7273,-7.7273,-7.7273,-7.7273,-7.7273,-7.7273,-7.7273,-7.7273,-7.7273,-7.7273,-7.7273,-7.7273,-7.7273,-7.7273,-7.7273,-7.7273,-7.6717,-7.5983,-7.5542,-7.4845,-7.4037,-7.323,-7.2129,-7.1211,-7.0844,-6.9449,-6.8348,-6.8348,-6.7981,-6.7834,-6.8201,-6.8238,-6.8385,-6.8752,-6.8091,-6.7614,-6.7614,-6.6549,-6.5668,-6.5228,-6.409,-6.3246,-6.2817,-6.278,-6.278,-6.278,-6.278,-6.2438,-6.163,-6.075,-5.9942,-5.9184,-5.9184,-5.8804,-5.7997,-5.7927,-5.7427,-6.311,-6.5888,-6.8788,-6.9119,-6.8862,-6.8311,-6.7504,-6.5668,-6.3906,-6.3319,-6.3074,-6.3062,-6.3147,-6.3796,-6.4273,-6.4273,-6.5375,-6.7944,-7.2936,-7.4882,-7.7414,-8.1672,-8.1709,-8.1782,-8.2774,-8.2443,-8.2186,-8.2186,-8.2186,-8.2186,-8.2186,-8.2186,-8.2186,-8.2186,-8.2186,-8.2186,-8.2186,-8.2186,-8.2186,-8.2186,-8.2186,-8.2186,-8.2186,-8.2076,-8.2076,-8.215,-8.1232,0.0,-7.991,-7.8993,-7.8185,-7.7494,-7.7347,-7.7273,-7.7273,-7.7273,-7.7273,-7.7273,-7.7273,-7.7273,-7.7273,-7.7273,-7.7273,-7.7273,-7.7273,-7.7273,-7.7273,-7.7273,-7.7273,-7.7273,-7.7273,-7.679,-7.6276,-7.6276,-7.5763,-7.5102,-7.4404,-7.301,-7.1615,-7.0807,-6.9339,-6.8201,-6.8091,-6.8054,-6.8274,-6.8972,-6.9082,-6.9339,-7.0,-6.9486,-6.9082,-6.9082,-6.776,-6.6769,-6.6512,-6.5118,-6.387,-6.2853,-6.278,-6.278,-6.278,-6.278,-6.2438,-6.163,-6.1594,-6.086,-5.9368,-5.9368,-5.8988,-5.818,-5.818,-5.8107,-6.453,-6.6366,-6.7393,-6.5485,-6.5962,-6.6659,-6.5852,-6.4861,-6.4237,-6.4824,-6.4383,-6.4127,-6.4787,-6.5044,-6.5118,-6.5118,-6.8091,-7.2312,-7.7892,-7.947,-8.0608,-8.2039,-8.27,-8.2333,-8.0534,-8.1452,-8.2186,-8.2186,-8.2186,-8.2186,-8.2186,-8.2186,-8.2186,-8.2186,-8.2186,-8.2186,-8.2186,-8.2186,-8.2186,-8.2186,-8.2186,-8.2186,-8.2186,-8.1489,-8.1562,-8.2113,0.0,-8.0277,-8.0718,-7.9213,-7.8516,-7.8332,-7.7567,-7.7273,-7.7273,-7.7273,-7.7273,-7.7273,-7.7273,-7.7273,-7.7273,-7.7273,-7.7273,-7.7273,-7.7273,-7.7273,-7.7273,-7.7273,-7.7273,-7.7273,-7.7273,-7.72,-7.709,-7.709,-7.7017,-7.6907,-7.676,-7.5476,-7.4111,-7.3303,-7.1835,-7.055,-6.9853,-6.9706,-6.9779,-6.9889,-6.9926,-6.9963,-7.0073,-7.0,-6.9926,-6.9926,-6.9082,-6.7981,-6.6623,-6.5668,-6.4457,-6.2915,-6.278,-6.278,-6.278,-6.278,-6.2438,-6.163,-6.1594,-6.1153,-6.0236,-6.0236,-5.9795,-5.9001,-5.9001,-5.8657,-6.3734,-6.5485,-6.6586,-6.4567,-6.5962,-6.7687,-6.732,-6.5962,-6.4971,-6.5778,-6.5301,-6.4714,-6.464,-6.6072,-6.7834,-6.9559,-7.1762,-7.4184,-7.679,-7.7855,-7.8846,-8.0094,-8.0975,-8.1342,-8.1122,-8.1746,-8.2186,-8.2186,-8.2186,-8.2186,-8.2186,-8.2186,-8.2186,-8.2186,-8.2186,-8.2186,-8.2186,-8.2186,-8.2186,-8.2186,-8.2186,-8.2186,-8.2186,-8.1819,-8.1856,-8.2113,0.0,-8.0388,-8.0241,-7.9066,-7.8332,-7.7855,-7.7457,-7.7273,-7.7273,-7.7273,-7.7273,-7.7273,-7.7273,-7.7273,-7.7273,-7.7273,-7.7273,-7.7273,-7.7273,-7.7273,-7.7273,-7.7273,-7.7273,-7.7273,-7.7273,-7.7273,-7.7273,-7.7273,-7.7273,-7.7163,-7.6754,-7.5726,-7.4661,-7.3854,-7.2422,-7.1211,-7.0807,-7.0403,-7.0257,-7.0697,-7.077,-7.0917,-7.1358,-7.1027,-7.0587,-7.0146,-6.9376,-6.8421,-6.7247,-6.6402,-6.5044,-6.2927,-6.278,-6.278,-6.278,-6.278,-6.2658,-6.2254,-6.2254,-6.1851,-6.1043,-6.1043,-6.0639,-5.9869,-5.9869,-5.9381,-6.3282,-6.4897,-6.6256,-6.5191,-6.6806,-6.8678,-6.8862,-6.732,-6.6219,-6.7393,-6.6843,-6.5852,-6.4861,-6.699,-7.0073,-7.367,-7.5102,-7.5983,-7.6533,-7.7157,-7.8002,-7.9286,-7.9984,-8.0828,-8.2076,-8.2186,-8.2186,-8.2186,-8.2186,-8.2186,-8.2186,-8.2186,-8.2186,-8.2186,-8.2186,-8.2113,-8.1929,-8.1929,-8.1929,-8.1929,-8.2113,-8.2113,-8.1929,-8.1929,-8.1929,-8.1856,-8.1085,-8.0241,-7.947,-7.8846,-7.8112,-7.7273,-7.7273,-7.7273,-7.7273,-7.7273,-7.7273,-7.7273,-7.7273,-7.7273,-7.7273,-7.7273,-7.7273,-7.7273,-7.7273,-7.7273,-7.7273,-7.7273,-7.7273,-7.7273,-7.7273,-7.7273,-7.7273,-7.7273,-7.7273,-7.7053,-7.6276,-7.5616,-7.4882,-7.3891,-7.2716,-7.1798,-7.1615,-7.1064,-7.0881,-7.1505,-7.1578,-7.1798,-7.2422,-7.1982,-7.1284,-7.0477,-6.9669,-6.8715,-6.7504,-6.6659,-6.5338,-6.3246,-6.2915,-6.278,-6.278,-6.278,-6.278,-6.278,-6.278,-6.2511,-6.1887,-6.1887,-6.1484,-6.0676,-6.0676,-6.0164,-6.4714,-6.5815,-6.6659,-6.7283,-6.7614,-6.7981,-6.8752,-6.8201,-6.8164,-7.0477,-6.9743,-6.8164,-6.6623,-6.7724,-7.044,-7.5175,-7.7268,-7.9103,-8.1342,-8.1709,-8.1819,-8.1929,-8.1966,-8.2076,-8.2186,-8.2186,-8.2186,-8.2186,-8.2186,-8.2186,-8.2186,-8.2186,-8.2186,-8.2186,-8.2186,-8.1819,-8.1085,-8.1085,-8.1085,-8.1122,-8.1819,-8.1819,-8.1085,-8.1085,-8.1085,-8.1048,-8.0241,-7.9433,-7.8662,-7.8626,-7.8112,-7.7273,-7.7273,-7.7273,-7.7273,-7.7273,-7.7273,-7.7273,-7.7273,-7.7273,-7.7273,-7.7273,-7.7273,-7.7273,-7.7273,-7.7273,-7.7273,-7.7273,-7.7273,-7.7273,-7.7273,-7.7273,-7.7273,-7.7273,-7.7273,-7.7053,-7.6276,-7.6056,-7.5542,-7.4001,-7.3597,-7.3303,-7.2532,-7.2386,-7.2349,-7.2422,-7.2422,-7.2422,-7.2496,-7.2459,-7.2129,-7.1321,-7.0477,-6.9082,-6.6769,-6.5852,-6.5007,-6.4053,-6.3246,-6.278,-6.278,-6.278,-6.278,-6.278,-6.278,-6.2743,-6.2732,-6.2732,-6.2291,-6.152,-6.152,-6.1007,-6.4383,-6.5154,-6.5705,-6.5485,-6.5852,-6.7063,-7.0367,-7.0146,-6.9889,-7.2275,-7.2312,-7.1394,-6.9779,-7.0807,-7.2826,-7.5652,-7.8772,-8.1158,-8.2076,-8.2186,-8.2186,-8.2186,-8.2186,-8.2186,-8.2186,-8.2186,-8.2186,-8.2186,-8.2186,-8.2186,-8.2186,-8.2186,-8.2186,-8.2186,-8.1709,-8.1305,-8.1012,-8.0498,-7.9984,-7.9507,-8.0314,-8.1048,-8.1709,-8.0718,-8.0534,-8.0938,-7.9617,-7.8883,-7.8552,-7.8038,-7.7598,-7.7273,-7.7273,-7.7273,-7.7273,-7.7273,-7.7273,-7.7273,-7.7273,-7.7273,-7.7273,-7.7273,-7.7273,-7.7273,-7.7273,-7.7273,-7.7273,-7.7273,-7.7273,-7.7273,-7.7273,-7.7273,-7.7273,-7.7273,-7.7273,-7.7053,-7.6276,-7.6497,-7.6533,-7.5395,-7.4808,-7.4368,-7.4037,-7.3156,-7.2496,-7.2496,-7.2496,-7.2496,-7.2496,-7.2496,-7.2018,-7.0697,-6.9376,-6.8238,-6.732,-6.6512,-6.5925,-6.5595,-6.4347,-6.3356,-6.2817,-6.278,-6.278,-6.278,-6.278,-6.278,-6.278,-6.278,-6.2658,-6.2365,-6.2253,-6.1725,-6.409,-6.4494,-6.4861,-6.453,-6.4714,-6.6329,-7.1651,-7.2018,-7.2055,-7.5028,-7.4001,-7.2532,-7.2459,-7.2936,-7.4184,-7.6827,-8.0021,-8.2296,-8.2553,-8.237,-8.2186,-8.2186,-8.2186,-8.2186,-8.2186,-8.2186,-8.2186,-8.2186,-8.1966,-8.1929,-8.2186,-8.1709,-8.1562,-8.1819,-8.1048,-8.0498,-8.0241,-7.969,-7.914,-7.8589,-7.8883,-7.9727,-8.1012,-7.991,-7.9727,-8.0167,-7.8809,-7.8185,-7.8148,-7.753,-7.7273,-7.7273,-7.7273,-7.7273,-7.7273,-7.7273,-7.7273,-7.7273,-7.7273,-7.7273,-7.7273,-7.7273,-7.7273,-7.7273,-7.7273,-7.7273,-7.7273,-7.7273,-7.7273,-7.7237,-7.698,-7.709,-7.7273,-7.7273,-7.7273,-7.698,-7.5946,-7.657,-7.6937,-7.5616,-7.5102,-7.4845,-7.4551,-7.3413,-7.2496,-7.2496,-7.2496,-7.2496,-7.2496,-7.2496,-7.1872,-7.0257,-6.8641,-6.7687,-6.7687,-6.7173,-6.6769,-6.6512,-6.5448,-6.4347,-6.3282,-6.3209,-6.3099,-6.278,-6.278,-6.278,-6.278,-6.278,-6.278,-6.273,-6.2654,-6.2208,-6.409,-6.409,-6.4273,-6.5118,-6.4714,-6.5815,-7.2239,-7.3707,-7.4845,-7.8956,-7.4661,-7.1138,-7.4331,-7.3634,-7.4147,-7.8993,-8.1122,-8.248,-8.3287,-8.27,-8.2186,-8.2186,-8.2186,-8.2186,-8.2186,-8.2186,-8.2186,-8.2186,-8.1452,-8.1342,-8.215,-8.0645,-8.0167,-8.0975,-8.0204,-7.9396,-7.8589,-7.8589,-7.8589,-7.8589,-7.7708,-7.7781,-7.8589,-7.8589,-7.8589,-7.8552,-7.7708,-7.7273,-7.7273,-7.7273,-7.7273,-7.7273,-7.7273,-7.7273,-7.7273,-7.7273,-7.7273,-7.7273,-7.7273,-7.7273,-7.7273,-7.7273,-7.7273,-7.7273,-7.7273,-7.7273,-7.7273,-7.7273,-7.7273,-7.709,-7.6313,-7.6717,-7.7273,-7.7273,-7.7273,-7.6833,-7.5249,-7.6136,-7.6607,-7.4147,-7.4368,-7.4661,-7.3817,-7.3046,-7.2496,-7.2496,-7.2496,-7.2496,-7.2496,-7.2496,-7.1872,-7.0293,-6.8641,-6.7714,-6.7714,-6.7687,-6.7357,-6.6549,-6.6512,-6.5778,-6.4163,-6.409,-6.3686,-6.2817,-6.278,-6.278,-6.278,-6.278,-6.273,-6.2603,-6.2603,-6.2449,-6.3356,-6.3209,-6.3539,-6.4971,-6.6402,-6.8862,-7.4184,-7.4074,-7.4331,-7.958,-7.7268,-7.4771,-7.6313,-7.6717,-7.7084,-7.7928,-8.0388,-8.226,-8.2517,-8.2333,-8.2186,-8.2186,-8.2186,-8.2186,-8.2186,-8.2186,-8.1966,-8.1415,-8.1672,-8.1452,-8.0534,-8.0608,-8.0498,-8.0167,-7.936,-7.8846,-7.8589,-7.8002,-7.7708,-7.7708,-7.742,-7.8075,-7.9396,-7.8222,-7.8038,-7.8552,-7.7708,-7.7273,-7.7273,-7.7273,-7.7273,-7.7273,-7.7273,-7.7273,-7.7273,-7.7273,-7.7273,-7.7273,-7.7273,-7.7273,-7.7273,-7.7273,-7.7273,-7.7273,-7.7273,-7.7273,-7.7273,-7.7273,-7.7273,-7.7237,-7.698,-7.6717,-7.646,-7.646,-7.646,-7.6166,-7.5139,-7.5726,-7.5909,-7.4037,-7.4368,-7.4661,-7.3817,-7.3046,-7.2496,-7.2496,-7.2496,-7.2496,-7.2496,-7.2018,-7.1468,-7.0991,-6.9522,-6.8531,-6.8531,-6.8017,-6.7577,-6.7357,-6.732,-6.6623,-6.5007,-6.4383,-6.398,-6.3723,-6.3135,-6.278,-6.278,-6.278,-6.273,-6.2603,-6.25,-6.2344,-6.387,-6.3319,-6.3404,-6.6072,-6.7577,-6.9853,-7.5322,-7.6717,-7.7818,-8.1269,-7.9103,-7.7047,-7.8516,-7.8405,-7.8222,-7.8699,-8.0718,-8.2186,-8.2186,-8.2186,-8.2186,-8.2186,-8.2186,-8.2186,-8.2186,-8.2186,-8.1856,-8.1048,-8.1158,-8.0791,-7.9837,-7.9617,-7.947,-7.9323,-7.8516,-7.8075,-7.8075,-7.753,-7.7273,-7.7273,-7.7273,-7.7855,-7.8772,-7.7781,-7.7567,-7.8075,-7.753,-7.7273,-7.7273,-7.7273,-7.7273,-7.7273,-7.7273,-7.7273,-7.7273,-7.7273,-7.7273,-7.7273,-7.7273,-7.7273,-7.7273,-7.7273,-7.7273,-7.7273,-7.7273,-7.7273,-7.7273,-7.7273,-7.7273,-7.7237,-7.6937,-7.6717,-7.6607,-7.6607,-7.6093,-7.5506,-7.5028,-7.5285,-7.5139,-7.3523,-7.3854,-7.4184,-7.334,-7.2826,-7.2496,-7.2496,-7.2496,-7.2496,-7.2496,-7.1798,-7.1293,-7.1293,-7.0146,-6.9376,-6.9376,-6.8641,-6.8164,-6.8164,-6.7871,-6.7247,-6.6292,-6.5485,-6.4751,-6.409,-6.3576,-6.3172,-6.278,-6.278,-6.273,-6.2603,-6.2449,-6.2354,-6.4897,-6.4127,-6.409,-6.8054,-6.8898,-7.0367,-7.6387,-8.0645,-8.3287,-8.3287,-8.0319,-7.8448,-8.0791,-7.9323,-7.8479,-8.0755,-8.1709,-8.2186,-8.2186,-8.2186,-8.2186,-8.2186,-8.2186,-8.2186,-8.2186,-8.2113,-8.1746,-8.0938,-8.0204,-7.9727,-7.958,-7.8222,-7.7781,-7.8479,-7.7708,-7.7273,-7.7273,-7.7273,-7.7273,-7.7273,-7.7273,-7.7273,-7.7273,-7.7273,-7.7273,-7.7273,-7.7273,-7.7273,-7.7273,-7.7273,-7.7273,-7.7273,-7.7273,-7.7273,-7.7273,-7.7273,-7.7273,-7.7273,-7.7273,-7.7273,-7.7273,-7.7273,-7.7273,-7.7273,-7.7273,-7.7273,-7.7273,-7.7273,-7.7237,-7.7047,-7.6276,-7.6607,-7.7053,-7.7053,-7.5953,-7.4918,-7.4918,-7.4845,-7.4368,-7.2899,-7.3193,-7.345,-7.2642,-7.2496,-7.2496,-7.2496,-7.2496,-7.2496,-7.2496,-7.1872,-7.1403,-7.1403,-7.0697,-7.022,-7.022,-6.9486,-6.9009,-6.9009,-6.8238,-6.7797,-6.7797,-6.6953,-6.5778,-6.4237,-6.4127,-6.3686,-6.278,-6.278,-6.273,-6.2603,-6.2449,-6.2354,-6.3503,-6.4494,-6.6366,-6.9155,-7.3523,-7.7892,-8.0534,-8.1819,-8.2443,-8.2443,-8.1746,-8.1489,-8.2663,-8.1929,-8.1305,-8.1856,-8.2076,-8.2186,-8.2186,-8.2186,-8.2186,-8.2186,-8.2186,-8.2186,-8.2186,-8.1636,-8.0901,-8.0094,-7.9874,-7.9213,-7.7928,-7.8148,-7.8112,-7.7598,-7.7384,-7.7273,-7.7273,-7.7273,-7.7273,-7.7273,-7.7273,-7.7273,-7.7273,-7.7273,-7.7273,-7.7273,-7.7273,-7.7273,-7.7273,-7.7273,-7.7273,-7.7273,-7.7273,-7.7273,-7.7273,-7.7273,-7.7273,-7.7273,-7.7273,-7.7273,-7.7273,-7.7273,-7.7273,-7.7273,-7.7273,-7.7273,-7.7273,-7.7273,-7.6864,-7.6313,-7.613,-7.5763,-7.5432,-7.5432,-7.5175,-7.4918,-7.4918,-7.4404,-7.3854,-7.3487,-7.356,-7.345,-7.2642,-7.2496,-7.2496,-7.2496,-7.2496,-7.2496,-7.2496,-7.2349,-7.2239,-7.2239,-7.1541,-7.1064,-7.1064,-7.0293,-6.9853,-6.9853,-6.9082,-6.8641,-6.8641,-6.7247,-6.6035,-6.5081,-6.442,-6.3686,-6.278,-6.278,-6.273,-6.2603,-6.2449,-6.2354,-6.4016,-6.5778,-6.8605,-7.2569,-7.7011,-8.0681,-8.1929,-8.1893,-8.1746,-8.2113,-8.2186,-8.2333,-8.2737,-8.248,-8.2186,-8.2186,-8.2186,-8.2186,-8.2186,-8.1856,-8.1782,-8.215,-8.1525,-8.1195,-8.1599,-8.0901,-8.0094,-7.9286,-7.9213,-7.8662,-7.7347,-7.7378,-7.7194,-7.6754,-7.6754,-7.6754,-7.6754,-7.6754,-7.6937,-7.7273,-7.6503,-7.6136,-7.6173,-7.6943,-7.7273,-7.7273,-7.7273,-7.7273,-7.7273,-7.7273,-7.7273,-7.7273,-7.7273,-7.7273,-7.7273,-7.7273,-7.7273,-7.7273,-7.7273,-7.7273,-7.7273,-7.7273,-7.7273,-7.7273,-7.7273,-7.7273,-7.72,-7.6827,-7.6423,-7.6019,-7.5616,-7.5212,-7.4808,-7.4441,-7.4331,-7.4331,-7.4331,-7.3707,-7.312,-7.312,-7.312,-7.2973,-7.2569,-7.2496,-7.2496,-7.2496,-7.2496,-7.2496,-7.2496,-7.2496,-7.2496,-7.2496,-7.2129,-7.1872,-7.1872,-7.1138,-7.0513,-7.011,-6.9339,-6.8752,-6.8348,-6.7504,-6.6512,-6.5338,-6.4897,-6.4053,-6.278,-6.278,-6.2755,-6.2679,-6.2552,-6.2449,-6.5081,-6.7467,-7.0917,-7.5842,-7.8956,-8.0975,-8.1636,-8.1379,-8.1195,-8.1856,-8.2113,-8.2186,-8.2186,-8.2186,-8.2186,-8.2186,-8.2186,-8.215,-8.2003,-8.1415,-8.1195,-8.1709,-8.0608,-8.0057,-8.0718,-8.0057,-7.9323,-7.8662,-7.8479,-7.8002,-7.7127,-7.646,-7.6093,-7.6093,-7.5983,-7.5946,-7.6093,-7.6093,-7.6387,-7.687,-7.5542,-7.4918,-7.4955,-7.6283,-7.687,-7.687,-7.687,-7.687,-7.687,-7.687,-7.6943,-7.7053,-7.6943,-7.6943,-7.709,-7.709,-7.709,-7.709,-7.7237,-7.72,-7.709,-7.7237,-7.72,-7.709,-7.7237,-7.72,-7.6943,-7.6276,-7.5909,-7.5542,-7.4882,-7.4698,-7.4478,-7.367,-7.3597,-7.3707,-7.3707,-7.3083,-7.2532,-7.2679,-7.2606,-7.2496,-7.2496,-7.2496,-7.2496,-7.2496,-7.2496,-7.2496,-7.2496,-7.2496,-7.2496,-7.2496,-7.2496,-7.2496,-7.2496,-7.1908,-7.1211,-7.055,-6.9633,-6.8825,-6.8128,-6.7834,-6.6953,-6.5338,-6.5301,-6.4494,-6.278,-6.278,-6.278,-6.278,-6.2629,-6.2578,-6.5081,-6.9119,-7.356,-7.5726,-7.8112,-7.9984,-8.0094,-8.0571,-8.1048,-8.1158,-8.1709,-8.2186,-8.2186,-8.2186,-8.2186,-8.2186,-8.2186,-8.1966,-8.1269,-8.1085,-8.0791,-8.0167,-7.991,-7.9837,-7.9947,-7.9213,-7.8699,-7.8589,-7.7892,-7.7121,-7.6313,-7.6166,-7.6093,-7.6093,-7.5432,-7.5395,-7.6093,-7.6093,-7.5799,-7.5249,-7.5028,-7.4918,-7.4918,-7.5139,-7.5249,-7.5249,-7.5249,-7.5249,-7.5249,-7.5249,-7.5652,-7.6203,-7.5506,-7.5652,-7.6276,-7.6276,-7.6276,-7.635,-7.7053,-7.6864,-7.6387,-7.7053,-7.6827,-7.6387,-7.709,-7.6827,-7.624,-7.613,-7.5102,-7.4001,-7.3891,-7.3854,-7.367,-7.2863,-7.3193,-7.3707,-7.3707,-7.3083,-7.2716,-7.3377,-7.2973,-7.2496,-7.2496,-7.2496,-7.2496,-7.2496,-7.2496,-7.2496,-7.2496,-7.2496,-7.2496,-7.2496,-7.2496,-7.2496,-7.2496,-7.2422,-7.2312,-7.2202,-7.077,-6.9889,-6.9779,-6.8421,-6.6953,-6.5338,-6.5301,-6.4494,-6.278,-6.278,-6.278,-6.278,-6.2526,-6.2475,-6.8385,-7.0807,-7.3303,-7.7194,-7.8295,-7.8662,-7.958,-7.9727,-7.9764,-8.0241,-8.0975,-8.1672,-8.2113,-8.2186,-8.2039,-8.1599,-8.1525,-8.1232,-8.0424,-7.9947,-7.969,-7.9764,-7.8956,-7.8589,-7.9066,-7.8369,-7.7892,-7.7892,-7.7121,-7.6497,-7.613,-7.5249,-7.4771,-7.4771,-7.4404,-7.4404,-7.4735,-7.4771,-7.4368,-7.356,-7.4001,-7.4001,-7.356,-7.356,-7.4074,-7.4918,-7.4918,-7.4918,-7.4918,-7.4918,-7.5139,-7.5395,-7.5065,-7.5139,-7.5469,-7.5946,-7.6093,-7.624,-7.7047,-7.679,-7.624,-7.7017,-7.6754,-7.6166,-7.6533,-7.6387,-7.5909,-7.4992,-7.4258,-7.3597,-7.312,-7.3046,-7.2936,-7.2569,-7.2789,-7.3156,-7.3597,-7.3083,-7.2606,-7.2973,-7.2753,-7.2496,-7.2496,-7.2496,-7.2496,-7.2496,-7.2496,-7.2496,-7.2496,-7.2496,-7.2496,-7.2496,-7.2496,-7.2496,-7.2496,-7.2496,-7.2129,-7.1211,-7.0477,-6.9706,-6.8788,-6.8054,-6.7136,-6.5999,-6.5521,-6.4494,-6.278,-6.278,-6.278,-6.278,-6.2603,-6.2552,-6.9486,-7.0844,-7.2055,-7.6533,-7.7157,-7.7047,-7.8259,-7.8259,-7.8112,-7.8736,-7.9507,-8.0314,-8.1122,-8.1599,-8.1636,-8.0828,-8.0681,-8.0424,-7.958,-7.8993,-7.8736,-7.9103,-7.7892,-7.7341,-7.8185,-7.7524,-7.7011,-7.7011,-7.646,-7.5909,-7.5506,-7.4331,-7.3707,-7.3707,-7.3487,-7.3487,-7.3707,-7.3303,-7.2973,-7.2826,-7.301,-7.2899,-7.2496,-7.2496,-7.3156,-7.4294,-7.4294,-7.4294,-7.4294,-7.4294,-7.4404,-7.4588,-7.4368,-7.4551,-7.4992,-7.5579,-7.5909,-7.6203,-7.679,-7.6497,-7.5909,-7.6466,-7.6166,-7.5542,-7.5726,-7.5652,-7.5249,-7.4037,-7.356,-7.3266,-7.2679,-7.2496,-7.2496,-7.2496,-7.2496,-7.2679,-7.3266,-7.3083,-7.2789,-7.2789,-7.2642,-7.2642,-7.3046,-7.2936,-7.2789,-7.2789,-7.2789,-7.2716,-7.2532,-7.2496,-7.2496,-7.2496,-7.2496,-7.2496,-7.2496,-7.2496,-7.1908,-7.0477,-7.022,-6.9449,-6.8054,-6.7797,-6.732,-6.6512,-6.5925,-6.4787,-6.3135,-6.2915,-6.278,-6.278,-6.2629,-6.2578,-6.5411,-6.7871,-7.0403,-7.1505,-7.3413,-7.5065,-7.5139,-7.5726,-7.624,-7.6276,-7.6937,-7.7781,-7.8626,-8.0021,-8.0791,-7.9984,-7.9837,-7.958,-7.8772,-7.8626,-7.8295,-7.7494,-7.668,-7.6497,-7.7273,-7.6644,-7.6166,-7.6166,-7.613,-7.5432,-7.3891,-7.3744,-7.3707,-7.3707,-7.2973,-7.2936,-7.367,-7.2202,-7.2165,-7.3597,-7.2129,-7.1798,-7.2496,-7.2496,-7.2569,-7.2642,-7.2642,-7.2642,-7.2642,-7.2642,-7.3083,-7.367,-7.2936,-7.356,-7.4918,-7.4955,-7.5469,-7.6093,-7.6166,-7.5652,-7.4992,-7.5028,-7.4478,-7.3964,-7.4735,-7.4441,-7.3817,-7.3707,-7.3156,-7.2569,-7.2496,-7.2496,-7.2496,-7.2496,-7.2496,-7.2496,-7.2569,-7.312,-7.3634,-7.3634,-7.301,-7.2973,-7.4515,-7.4147,-7.3634,-7.3634,-7.3634,-7.334,-7.2606,-7.2496,-7.2496,-7.2496,-7.2496,-7.2496,-7.2496,-7.2496,-7.2165,-7.1321,-7.0513,-6.9706,-6.8862,-6.8091,-6.732,-6.6512,-6.6476,-6.5632,-6.4016,-6.3209,-6.278,-6.278,-6.2526,-6.2475,-6.5558,-6.6549,-6.7724,-7.0587,-7.2349,-7.3487,-7.4001,-7.5139,-7.5946,-7.5432,-7.5983,-7.6497,-7.6276,-7.7561,-7.8552,-7.8259,-7.8222,-7.7745,-7.6423,-7.7121,-7.7268,-7.5916,-7.5983,-7.6019,-7.5769,-7.5506,-7.5322,-7.5322,-7.4845,-7.4294,-7.3707,-7.3193,-7.2936,-7.2936,-7.2642,-7.2642,-7.2936,-7.1872,-7.1615,-7.2165,-7.1578,-7.1439,-7.1762,-7.2275,-7.2496,-7.2459,-7.1945,-7.2018,-7.2496,-7.2496,-7.2679,-7.2899,-7.2606,-7.2863,-7.3413,-7.3927,-7.4661,-7.5395,-7.5909,-7.5579,-7.4992,-7.5506,-7.4771,-7.3744,-7.4037,-7.3927,-7.3597,-7.3083,-7.2716,-7.2496,-7.2496,-7.2496,-7.2496,-7.2496,-7.2899,-7.3266,-7.3266,-7.3891,-7.4478,-7.4478,-7.3817,-7.3634,-7.4735,-7.4221,-7.3891,-7.4404,-7.4478,-7.4184,-7.3377,-7.3266,-7.3083,-7.2569,-7.2496,-7.2496,-7.2496,-7.2496,-7.2165,-7.1329,-7.055,-6.9743,-6.8935,-6.8128,-6.754,-6.7283,-6.6769,-6.5962,-6.4861,-6.4053,-6.3613,-6.3613,-6.2782,-6.2459,-6.5154,-6.5521,-6.6219,-6.9963,-7.1101,-7.1725,-7.334,-7.3891,-7.4074,-7.4111,-7.4294,-7.4478,-7.4515,-7.4955,-7.5549,-7.6356,-7.6276,-7.5836,-7.5028,-7.5806,-7.6099,-7.5028,-7.5139,-7.5175,-7.4955,-7.4661,-7.4515,-7.4515,-7.4001,-7.356,-7.3303,-7.2789,-7.2496,-7.2496,-7.2496,-7.2386,-7.2092,-7.1321,-7.0917,-7.0917,-7.0917,-7.1064,-7.1329,-7.2129,-7.2349,-7.2092,-7.1513,-7.1762,-7.2496,-7.2202,-7.2275,-7.2496,-7.2496,-7.2679,-7.2973,-7.3487,-7.4221,-7.4992,-7.5506,-7.5175,-7.4588,-7.5102,-7.4404,-7.3303,-7.3303,-7.3303,-7.3193,-7.2642,-7.2496,-7.2496,-7.2496,-7.2496,-7.2496,-7.2496,-7.312,-7.3707,-7.3707,-7.4331,-7.4992,-7.5249,-7.4661,-7.4441,-7.5542,-7.5028,-7.4698,-7.5212,-7.5322,-7.5028,-7.4221,-7.4111,-7.378,-7.2973,-7.2899,-7.2789,-7.2532,-7.2496,-7.2165,-7.1329,-7.0807,-7.0036,-6.8935,-6.8385,-6.7981,-6.7714,-6.7173,-6.6596,-6.603,-6.493,-6.4233,-6.3925,-6.3116,-6.2583,0.0,0.0,0.0,-6.9155,-6.9376,-6.9669,-7.2789,-7.1725,-7.055,-7.2129,-7.1835,-7.1798,-7.334,-7.2349,-7.2055,-7.4404,-7.4111,-7.3891,-7.4661,-7.4808,-7.4808,-7.4771,-7.4074,-7.3927,-7.4735,-7.4074,-7.3634,-7.367,-7.367,-7.3303,-7.2496,-7.2459,-7.2459,-7.2496,-7.2459,-7.2092,-7.1293,-7.0477,-7.0073,-7.0073,-7.0073,-7.0477,-7.1284,-7.2055,-7.2018,-7.1256,-7.1256,-7.1725,-7.2422,-7.1651,-7.1798,-7.2496,-7.2496,-7.2973,-7.367,-7.367,-7.4184,-7.4918,-7.4882,-7.4368,-7.3707,-7.3707,-7.3156,-7.2496,-7.2496,-7.2496,-7.2496,-7.2496,-7.2496,-7.2496,-7.2496,-7.2496,-7.2496,-7.2496,-7.312,-7.3707,-7.3707,-7.4368,-7.5175,-7.5946,-7.5469,-7.5432,-7.7017,-7.6644,-7.6093,-7.613,-7.613,-7.5836,-7.5065,-7.4955,-7.4625,-7.3817,-7.3707,-7.3377,-7.2606,-7.2496,-7.2165,-7.1366,-7.1293,-7.0596,-6.9045,-6.8935,-6.8531,-6.7724,-6.7687,-6.7633,-6.747,-6.5823,-6.4573,-6.3673,-6.3475,-6.2903,-6.3099,0.0,0.0,0.0,0.0,0.0,-6.8274,-6.9339,-7.022,-7.066,-7.1064,-7.1439,-7.1872,-7.1138,-7.066,-7.1321,-7.1725,-7.1835,-7.1468,-7.2422,-7.2753,-7.1578,-7.1762,-7.2055,-7.2247,-7.2092,-7.2202,0.0,-7.2826,-7.2496,-7.1688,-7.1101,-7.1284,-7.2459,-7.1358,-7.0954,-7.1293,-6.9926,-6.9229,-6.9229,-6.9229,-6.9339,-6.9596,-7.0403,-7.0624,-7.044,-7.044,-7.0881,-7.1615,-7.1366,-7.1798,-7.2496,-7.2496,-7.2642,-7.2826,-7.2826,-7.3707,-7.4845,-7.4221,-7.4258,-7.4478,-7.3891,-7.3156,-7.2496,-7.2496,-7.2496,-7.2496,-7.2496,-7.2496,-7.2496,-7.2496,-7.2496,-7.2496,-7.2496,-7.312,-7.3854,-7.4441,-7.5212,-7.5836,-7.6056,-7.5469,-7.5432,-7.7017,-7.6644,-7.6313,-7.687,-7.6974,-7.668,-7.5873,-7.5763,-7.5469,-7.4661,-7.4037,-7.3597,-7.3377,-7.2826,-7.2422,-7.2202,-7.1651,-7.1073,-7.0632,-6.9522,-6.8788,-6.8568,-6.7981,-6.7579,-6.7266,-6.6318,-6.5669,-6.5287,-6.3985,-6.2903,-6.2915,-6.278,-6.3172,-6.4714,0.0,0.0,-6.7687,-6.8825,-6.9706,-7.0036,-7.0734,-7.1293,-7.1293,-7.0917,-7.0587,-7.0587,-7.044,-7.0146,-6.9669,-7.0697,-7.0881,-6.9265,-6.9816,-7.0293,-7.0293,-7.0293,-7.0624,-7.1431,-7.1798,-7.1945,-7.1835,-7.0734,-7.0697,-7.1982,-7.077,-7.0146,-7.0293,-6.9376,-6.8752,-6.8385,-6.8752,-6.8898,-6.8935,-6.9743,-6.9926,-6.9633,-6.9963,-7.0367,-7.0844,-7.1174,-7.1798,-7.2496,-7.2496,-7.2496,-7.2496,-7.2496,-7.3083,-7.3891,-7.3744,-7.378,-7.3891,-7.3744,-7.3156,-7.2496,-7.2496,-7.2496,-7.2496,-7.2496,-7.2496,-7.2496,-7.2496,-7.2496,-7.2569,-7.2936,-7.334,-7.3817,-7.4294,-7.5028,-7.5799,-7.6497,-7.624,-7.6173,-7.7127,-7.6937,-7.6754,-7.7237,-7.7273,-7.698,-7.6203,-7.6093,-7.5652,-7.4515,-7.4294,-7.3927,-7.3266,-7.3083,-7.2863,-7.2532,-7.2055,-7.1651,-7.1293,-7.0403,-6.9743,-6.9412,-6.8605,-6.7881,-6.721,-6.682,-6.6335,-6.5812,-6.4456,-6.3356,-6.3319,-6.3135,-6.3723,-6.5742,-6.5962,0.0,-6.8862,-6.9155,-6.9082,0.0,-7.0477,-7.0999,-7.0999,-7.1138,-7.1138,-7.0954,-6.9853,-6.9009,-6.8898,-6.9449,-6.9265,-6.7724,-6.8201,-6.8678,-6.8752,-6.8678,-6.9009,-6.9889,-7.055,-7.1284,-7.2202,-7.0697,-7.0257,-7.1138,-7.0293,-6.9522,-6.8898,-6.8825,-6.8421,-6.7714,-6.8421,-6.8788,-6.8788,-6.9596,-6.9596,-6.8972,-6.9853,-7.022,-7.0293,-7.1101,-7.1872,-7.2496,-7.2496,-7.2496,-7.2496,-7.2496,-7.2569,-7.2716,-7.334,-7.3156,-7.2753,-7.334,-7.3083,-7.2496,-7.2496,-7.2496,-7.2496,-7.2496,-7.2496,-7.2496,-7.2496,-7.2496,-7.2716,-7.3487,-7.378,-7.3854,-7.3927,-7.4588,-7.5549,-7.6907,-7.7163,-7.72,-7.7273,-7.7273,-7.7273,-7.7273,-7.7273,-7.698,-7.6203,-7.6093,-7.5506,-7.4001,-7.4404,-7.4184,-7.2753,-7.3193,-7.3266,-7.2569,-7.2496,-7.2202,-7.1468,-7.1329,-7.0954,-7.0257,-6.9348,-6.8367,-6.732,-6.7219,-6.6611,-6.5591,-6.4867,-6.4106,-6.5044,-6.5301,-6.5595,-6.4751,-6.6402,0.0,-6.5705,-6.7136,-6.8752,0.0,-6.8825,-6.9376,-6.9376,-6.9889,-6.9926,-6.8605,-6.9229,-6.9633,-6.9009,-6.8458,-6.7797,-6.6843,-6.688,-6.721,-6.7871,-6.7357,-6.7577,-6.9009,-6.8678,-6.9045,-7.0477,-6.9045,-6.8825,-7.0293,-6.8935,-6.8385,-6.8898,-6.8238,-6.7834,-6.7687,-6.7834,-6.7907,-6.7944,-6.8752,-6.9045,-6.8972,-7.044,-7.1064,-7.1138,-7.1945,-7.2349,-7.2496,-7.2496,-7.2496,-7.2496,-7.2496,-7.2899,-7.3377,-7.2899,-7.3046,-7.3377,-7.2899,-7.2642,-7.2496,-7.2496,-7.2496,-7.2496,-7.2496,-7.2496,-7.2496,-7.2496,-7.2496,-7.2716,-7.3487,-7.4184,-7.4845,-7.5506,-7.6276,-7.6723,-7.6423,-7.635,-7.6533,-7.7163,-7.7273,-7.7273,-7.7273,-7.7273,-7.698,-7.6203,-7.6093,-7.5726,-7.4771,-7.4221,-7.3817,-7.3487,-7.301,-7.2679,-7.2496,-7.2496,-7.2422,-7.2275,-7.1651,-7.1219,-7.1064,-6.9558,-6.8548,-6.8187,-6.7281,-6.6446,-6.5591,-6.5446,-6.4939,-6.5852,-6.5595,-6.5888,-6.5888,-6.6512,0.0,0.0,-6.7136,-6.7687,-6.7687,-6.8348,-6.8898,-6.8898,-6.9559,-7.011,-7.0073,-7.011,-7.022,-7.066,-6.9302,-6.7687,-6.6109,-6.6256,-6.6512,-6.6512,-6.6145,-6.6402,-6.7614,-6.732,-6.7614,-6.8825,-6.8128,-6.8054,-6.8862,-6.8091,-6.7871,-6.8311,-6.7907,-6.7907,-6.8274,-6.7871,-6.7907,-6.8311,-6.8715,-6.8898,-6.9009,-7.0596,-7.1293,-7.1329,-7.2165,-7.2496,-7.2496,-7.2496,-7.2496,-7.2496,-7.2496,-7.2753,-7.3046,-7.2642,-7.2753,-7.3046,-7.2642,-7.2496,-7.2496,-7.2496,-7.2496,-7.2496,-7.2496,-7.2496,-7.2496,-7.2496,-7.2789,-7.3303,-7.4111,-7.4918,-7.5616,-7.6019,-7.6754,-7.7053,-7.6276,-7.6423,-7.6717,-7.6717,-7.7017,-7.7273,-7.7273,-7.7273,-7.698,-7.6203,-7.6093,-7.5652,-7.4441,-7.4294,-7.3964,-7.3156,-7.3083,-7.2936,-7.2532,-7.2496,-7.2496,-7.2496,-7.2129,-7.1541,-7.0734,-6.9786,-6.8804,-6.7794,-6.7201,-6.6656,-6.6207,-6.6207,-6.5772,-6.7687,-6.7136,-6.7467,-6.7834,-6.765,-6.7577,0.0,0.0,0.0,-6.7614,-6.8201,0.0,0.0,0.0,0.0,-7.1394,0.0,0.0,0.0,-7.033,0.0,-6.6219,-6.6586,-6.6659,-6.5852,-6.5485,-6.5521,-6.5999,-6.6035,-6.6402,-6.7173,-6.7247,-6.7247,-6.7247,-6.7393,-6.7467,-6.7467,-6.7614,-6.8017,-6.8678,-6.8017,-6.8017,-6.8678,-6.8825,-6.8898,-6.9009,-7.0596,-7.1293,-7.1329,-7.2018,-7.2349,-7.2496,-7.2496,-7.2496,-7.2496,-7.2496,-7.2496,-7.2496,-7.2496,-7.2496,-7.2496,-7.2496,-7.2496,-7.2496,-7.2496,-7.2496,-7.2496,-7.2496,-7.2606,-7.2716,-7.2716,-7.334,-7.4147,-7.4955,-7.5616,-7.613,-7.6313,-7.6864,-7.7053,-7.6276,-7.6754,-7.709,-7.646,-7.69,-7.7273,-7.7273,-7.7273,-7.698,-7.6203,-7.6093,-7.5542,-7.4074,-7.4368,-7.4147,-7.2826,-7.3193,-7.3193,-7.2532,-7.2496,-7.2496,-7.2496,-7.2349,-7.1651,-7.0339,-6.9896,-6.8921,-6.7401,-6.7113,-6.6932,-6.6786,-6.6786,-6.646,-7.3046,-7.378,-7.3891,-6.9779,-7.1835,-7.345,-6.8017,0.0,-6.9302,-6.8008,0.0,-6.7834,-6.7834,0.0,0.0,0.0,0.0,0.0,-7.1321,-6.9963,-6.8788,-6.8531,-6.8568,-6.8311,-6.7504,-6.6145,-6.5044,-6.442,-6.4347,-6.4714,-6.5521,-6.5595,-6.5595,-6.5595,-6.6256,-6.6623,-6.6623,-6.732,-6.7724,-6.7834,-6.7724,-6.7724,-6.7834,-6.8568,-6.8898,-6.9009,-7.0596,-7.1293,-7.1293,-7.1431,-7.1872,-7.2496,-7.2496,-7.2496,-7.2496,-7.2496,-7.2496,-7.2496,-7.2496,-7.2496,-7.2496,-7.2496,-7.2496,-7.2496,-7.2496,-7.2496,-7.2496,-7.2496,-7.301,-7.356,-7.356,-7.4147,-7.4992,-7.5763,-7.6019,-7.6313,-7.698,-7.7237,-7.7053,-7.6276,-7.6754,-7.7273,-7.7163,-7.7237,-7.7273,-7.7273,-7.7273,-7.698,-7.6203,-7.6093,-7.5763,-7.4882,-7.4221,-7.3744,-7.356,-7.2973,-7.2606,-7.2496,-7.2496,-7.2496,-7.2496,-7.1835,-7.1301,-7.1003,-6.9583,-6.8572,-6.8066,-6.7375,-6.6932,-6.6786,-6.6786,-6.675,-7.3222,-7.3849,-7.4499,-7.0602,-7.1172,-7.1908,-6.9192,-6.7944,-6.7393,-6.765,0.0,0.0,0.0,0.0,0.0,0.0,-6.9265,0.0,0.0,0.0,-6.9596,-6.9596,0.0,0.0,-6.6439,-6.6953,-6.6476,-6.4273,-6.4934,-6.5228,-6.464,-6.5044,-6.5081,-6.4604,-6.5375,-6.5815,-6.5815,-6.6586,-6.7247,-6.7687,-6.7687,-6.7944,-6.8421,-6.8752,-6.8898,-6.8972,-7.011,-7.0587,-7.0587,-7.0587,-7.0807,-7.1138,-7.1615,-7.2092,-7.2496,-7.2496,-7.2496,-7.2496,-7.2496,-7.2496,-7.2496,-7.2496,-7.2496,-7.2496,-7.2496,-7.2496,-7.2496,-7.2496,-7.3083,-7.3707,-7.3707,-7.4625,-7.5689,-7.6019,-7.646,-7.69,-7.7237,-7.7273,-7.72,-7.6864,-7.7053,-7.7273,-7.7273,-7.7273,-7.7273,-7.7273,-7.7273,-7.7163,-7.6864,-7.6827,-7.6497,-7.5689,-7.5285,-7.4882,-7.4441,-7.367,-7.3193,-7.3193,-7.2753,-7.2467,-7.2416,-7.2058,-7.1377,-7.0245,-6.9587,-6.8669,-6.7491,-6.7164,-6.6932,-6.6786,-6.6361,-6.6172,-7.3354,-7.4117,-7.4952,-7.0919,-7.0519,-7.0668,-6.8953,-6.7591,-6.6915,-6.7854,-6.826,0.0,0.0,0.0,0.0,0.0,0.0,-6.9633,0.0,-7.0073,0.0,0.0,0.0,0.0,0.0,-6.8128,-6.776,-6.4971,-6.5632,-6.5558,-6.4163,-6.4861,-6.4824,-6.3759,-6.4751,-6.5301,-6.5301,-6.6109,-6.688,-6.7687,-6.7687,-6.8017,-6.8568,-6.8568,-6.8568,-6.8605,-6.9412,-6.9779,-6.9779,-6.9779,-6.9889,-7.0146,-7.0734,-7.1468,-7.2202,-7.2422,-7.2496,-7.2496,-7.2496,-7.2496,-7.2496,-7.2496,-7.2496,-7.2496,-7.2496,-7.2496,-7.2496,-7.2496,-7.3083,-7.3744,-7.3964,-7.5065,-7.6166,-7.6387,-7.69,-7.7273,-7.7273,-7.7273,-7.7273,-7.7273,-7.7273,-7.7273,-7.7273,-7.7273,-7.7273,-7.7273,-7.7273,-7.7273,-7.7273,-7.7273,-7.7053,-7.6497,-7.624,-7.5763,-7.4992,-7.4147,-7.3597,-7.3318,-7.2739,-7.2321,-7.2204,-7.2021,-7.1238,-6.9887,-6.9449,-6.8561,-6.7288,-6.707,-6.6903,-6.6793,-6.6233,-6.5887,-7.5035,-7.6576,-7.6997,-7.072,-7.1475,-7.2187,-6.6088,-6.7478,-6.9839,-6.9124,-7.1306,-7.3139,-7.2448,0.0,0.0,0.0,0.0,0.0,0.0,0.0,0.0,0.0,0.0,0.0,0.0,-6.9779,-6.8201,-6.6549,-6.5742,-6.4971,-6.4127,-6.4861,-6.4567,-6.289,-6.4457,-6.5301,-6.5301,-6.6109,-6.688,-6.7687,-6.7687,-6.7687,-6.7724,-6.7724,-6.7724,-6.776,-6.8605,-6.8935,-6.8935,-6.8935,-6.9412,-7.011,-7.011,-7.0624,-7.1431,-7.2202,-7.2496,-7.2496,-7.2496,-7.2496,-7.2496,-7.2496,-7.2496,-7.2496,-7.2496,-7.2496,-7.2496,-7.2496,-7.3083,-7.3891,-7.4661,-7.5469,-7.6313,-7.7053,-7.7273,-7.7273,-7.7273,-7.7273,-7.7273,-7.7273,-7.7273,-7.7273,-7.7273,-7.7273,-7.7273,-7.7273,-7.7273,-7.7273,-7.7273,-7.7273,-7.7273,-7.7237,-7.657,-7.5763,-7.4992,-7.4147,-7.3318,-7.2402,-7.2144,-7.2018,-7.2018,-7.1258,-7.0761,-7.0544,-6.9054,-6.813,-6.7981,-6.7184,-6.6786,-6.6786,-6.6757,-6.6391,-7.6327,-7.7578,-7.7892,-7.1467,-7.1528,-7.187,-6.7103,-6.8199,-6.9949,-6.9164,-7.1441,-7.3224,-7.1935,0.0,0.0,0.0,0.0,0.0,0.0,0.0,0.0,-6.9045,-7.0036,-6.9669,0.0,0.0,-6.9743,-6.5999,-6.6439,-6.6292,-6.4971,-6.464,-6.4237,-6.3686,-6.3649,-6.4174,-6.5301,-6.5595,-6.6109,-6.6916,-6.743,-6.7687,-6.7687,-6.7687,-6.7687,-6.7724,-6.7981,-6.8091,-6.8091,-6.8091,-6.8568,-6.9376,-6.9889,-7.0587,-7.1431,-7.2202,-7.2496,-7.2496,-7.2496,-7.2496,-7.2496,-7.2496,-7.2496,-7.2496,-7.2496,-7.2496,-7.2496,-7.2496,-7.3083,-7.3891,-7.4698,-7.5506,-7.6313,-7.709,-7.7273,-7.715,-7.67,-7.6993,-7.715,-7.6668,-7.6993,-7.7273,-7.7273,-7.7273,-7.7273,-7.7273,-7.7273,-7.7273,-7.7273,-7.7273,-7.7279,-7.7186,-7.693,-7.6673,-7.638,-7.5135,-7.3939,-7.2954,-7.231,-7.1957,-7.1872,-7.1618,-7.1162,-7.0464,-6.992,-6.9382,-6.8778,-6.7981,-6.7583,-6.7583,-6.704,-6.6103,-7.5853,-7.6883,-7.727,-7.204,-7.1729,-7.1588,-6.7423,-6.8434,-7.0057,-6.9247,-7.1517,0.0,0.0,0.0,0.0,0.0,0.0,0.0,0.0,-6.6219,-6.6219,-6.7467,-6.8568,-6.8862,0.0,-7.0146,-7.0367,-6.7247,-6.743,-6.699,-6.5411,-6.5081,-6.453,-6.3686,-6.3392,-6.3943,-6.5301,-6.5301,-6.5852,-6.6916,-6.743,-6.7687,-6.7687,-6.7687,-6.7687,-6.7687,-6.7687,-6.7687,-6.7687,-6.7687,-6.8164,-6.8972,-6.9779,-7.0587,-7.1431,-7.2202,-7.2496,-7.2496,-7.2496,-7.2496,-7.2496,-7.2496,-7.2496,-7.2475,-7.2533,-7.2546,-7.2486,-7.2236,-7.2692,-7.3423,-7.3964,-7.4848,-7.5873,-7.668,-7.709,-7.7118,-7.6336,-7.6603,-7.6765,-7.6303,-7.6567,-7.6956,-7.7243,-7.7273,-7.7273,-7.7273,-7.7273,-7.7273,-7.7273,-7.7273,-7.7279,-7.7186,-7.7124,-7.6841,-7.6194,-7.4853,-7.3696,-7.2735,-7.2158,-7.1775,-7.1687,-7.1687,-7.1983,-7.2504,-7.1096,-7.0698,-7.1277,-6.9358,-6.8271,-6.7981,-6.7184,-6.5959]},{"header":{"parameterUnit":"m.s-1","parameterCategory":1,"la1":30.6,"la2":29.2853,"lo1":-89.7004,"lo2":-87.6739,"dy":0.0162,"dx":0.0183,"nx":112,"ny":82,"refTime":"2023-04-02T06:00:00:Z","depth":0,"parameterNumber":3,"parameterNumberName":"V-component_of_WINDS"},"data":[0.0,0.0,0.0,0.0,0.0,0.0,0.0,0.0,0.0,0.0,0.0,0.0,0.0,0.0,0.0,0.0,0.0,0.0,0.0,0.0,0.0,0.0,0.0,0.0,0.0,0.0,0.0,0.0,0.0,0.0,0.0,0.0,0.0,0.0,0.0,0.0,0.0,0.0,0.0,0.0,0.0,0.0,0.0,0.0,0.0,0.0,0.0,0.0,0.0,0.0,0.0,0.0,0.0,0.0,0.0,0.0,0.0,0.0,0.0,0.0,0.0,0.0,0.0,0.0,0.0,0.0,0.0,0.0,0.0,0.0,0.0,0.0,0.0,0.0,0.0,0.0,0.0,0.0,0.0,0.0,0.0,0.0,0.0,0.0,0.0,0.0,0.0,0.0,0.0,0.0,2.0347,2.1681,2.3447,2.4356,2.3821,2.342,2.2819,2.1977,0.0,0.0,0.0,0.0,0.0,0.0,0.0,0.0,0.0,0.0,0.0,0.0,0.0,0.0,0.0,0.0,0.0,0.0,0.0,0.0,0.0,0.0,0.0,0.0,0.0,0.0,0.0,0.0,0.0,0.0,0.0,0.0,0.0,0.0,0.0,0.0,0.0,0.0,0.0,0.0,0.0,0.0,0.0,0.0,0.0,0.0,0.0,0.0,0.0,0.0,0.0,0.0,0.0,0.0,0.0,0.0,0.0,0.0,0.0,0.0,0.0,0.0,0.0,0.0,0.0,0.0,0.0,0.0,0.0,0.0,0.0,0.0,0.0,0.0,0.0,0.0,0.0,0.0,0.0,0.0,0.0,0.0,0.0,0.0,0.0,0.0,0.0,0.0,0.0,0.0,0.0,0.0,0.0,0.0,0.0,0.0,0.0,0.0,0.0,0.0,0.0,0.0,0.0,0.0,2.0802,2.2552,2.3621,2.4142,2.3794,2.302,2.2285,2.1722,0.0,0.0,0.0,0.0,0.0,0.0,0.0,0.0,0.0,0.0,0.0,0.0,0.0,0.0,0.0,0.0,0.0,0.0,0.0,0.0,0.0,0.0,0.0,0.0,0.0,0.0,0.0,0.0,0.0,0.0,0.0,0.0,0.0,0.0,0.0,0.0,0.0,0.0,0.0,0.0,0.0,0.0,0.0,0.0,0.0,0.0,0.0,0.0,0.0,0.0,0.0,0.0,0.0,0.0,0.0,0.0,0.0,0.0,0.0,0.0,0.0,0.0,0.0,0.0,0.0,0.0,0.0,0.0,0.0,0.0,0.0,0.0,0.0,0.0,0.0,0.0,0.0,0.0,0.0,0.0,0.0,0.0,0.0,0.0,0.0,0.0,0.0,0.0,0.0,0.0,0.0,0.0,0.0,0.0,0.0,0.0,0.0,0.0,0.0,0.0,0.0,0.0,0.0,2.0882,2.1563,2.318,2.4008,2.4315,2.4035,2.3033,2.2231,2.1817,2.1069,0.0,0.0,0.0,0.0,0.0,0.0,0.0,0.0,0.0,0.0,0.0,0.0,0.0,0.0,0.0,0.0,0.0,0.0,0.0,0.0,0.0,0.0,0.0,0.0,0.0,0.0,0.0,0.0,0.0,0.0,0.0,0.0,0.0,0.0,0.0,0.0,0.0,0.0,0.0,0.0,0.0,0.0,0.0,0.0,0.0,0.0,0.0,0.0,0.0,0.0,0.0,0.0,0.0,0.0,0.0,0.0,0.0,0.0,0.0,0.0,0.0,0.0,0.0,0.0,0.0,0.0,0.0,0.0,0.0,0.0,0.0,0.0,0.0,0.0,0.0,0.0,0.0,0.0,0.0,0.0,0.0,0.0,0.0,0.0,0.0,0.0,0.0,0.0,0.0,0.0,0.0,0.0,0.0,0.0,0.0,0.0,0.0,0.0,0.0,0.0,0.0,0.0,2.171,2.2271,2.3621,2.4289,2.4489,2.4128,2.3073,2.2231,2.1804,2.0869,0.0,0.0,0.0,0.0,0.0,0.0,0.0,0.0,0.0,0.0,0.0,0.0,0.0,0.0,0.0,0.0,0.0,0.0,0.0,0.0,0.0,0.0,0.0,0.0,0.0,0.0,0.0,0.0,0.0,0.0,0.0,0.0,0.0,0.0,0.0,0.0,0.0,0.0,0.0,0.0,0.0,0.0,0.0,0.0,0.0,0.0,0.0,0.0,0.0,0.0,0.0,0.0,0.0,0.0,0.0,0.0,0.0,0.0,0.0,0.0,0.0,0.0,0.0,0.0,0.0,0.0,0.0,0.0,0.0,0.0,0.0,0.0,0.0,0.0,0.0,0.0,0.0,0.0,0.0,0.0,0.0,0.0,0.0,0.0,0.0,0.0,0.0,0.0,0.0,0.0,0.0,0.0,0.0,0.0,0.0,0.0,0.0,0.0,0.0,0.0,0.0,0.0,2.163,2.2418,2.3634,2.4289,2.4409,2.3848,2.2953,2.2058,2.1229,2.0842,0.0,0.0,0.0,0.0,0.0,0.0,0.0,0.0,0.0,0.0,0.0,0.0,0.0,0.0,0.0,0.0,0.0,0.0,0.0,0.0,0.0,0.0,0.0,0.0,0.0,0.0,0.0,0.0,0.0,0.0,0.0,0.0,0.0,0.0,0.0,0.0,0.0,0.0,0.0,0.0,0.0,0.0,0.0,0.0,0.0,0.0,0.0,0.0,0.0,0.0,0.0,0.0,0.0,0.0,0.0,0.0,0.0,0.0,0.0,0.0,0.0,0.0,0.0,0.0,0.0,0.0,0.0,0.0,0.0,0.0,0.0,0.0,0.0,0.0,0.0,0.0,0.0,0.0,0.0,0.0,0.0,0.0,0.0,0.0,0.0,0.0,0.0,0.0,0.0,0.0,0.0,0.0,0.0,0.0,0.0,0.0,0.0,0.0,0.0,0.0,0.0,0.0,2.1577,2.2311,2.3621,2.3968,2.4008,2.3794,2.2779,2.1924,2.1416,0.0,0.0,0.0,0.0,0.0,0.0,0.0,0.0,0.0,0.0,0.0,0.0,0.0,0.0,0.0,0.0,0.0,0.0,0.0,0.0,0.0,0.0,0.0,0.0,0.0,0.0,0.0,0.0,0.0,0.0,0.0,0.0,0.0,0.0,0.0,0.0,0.0,0.0,0.0,0.0,0.0,0.0,0.0,0.0,0.0,0.0,0.0,0.0,0.0,0.0,0.0,0.0,0.0,0.0,0.0,0.0,0.0,0.0,0.0,0.0,0.0,0.0,0.0,0.0,0.0,0.0,0.0,0.0,0.0,0.0,0.0,0.0,0.0,0.0,0.0,0.0,0.0,0.0,0.0,0.0,0.0,0.0,0.0,0.0,0.0,0.0,0.0,0.0,0.0,0.0,0.0,0.0,0.0,0.0,0.0,0.0,0.0,0.0,0.0,0.0,0.0,0.0,2.1243,2.1641,2.2191,2.3487,2.3714,2.3728,2.3634,2.2539,2.1724,2.143,0.0,0.0,0.0,0.0,0.0,0.0,0.0,0.0,0.0,0.0,0.0,0.0,0.0,0.0,0.0,0.0,0.0,0.0,0.0,0.0,0.0,0.0,0.0,0.0,0.0,0.0,0.0,0.0,0.0,0.0,0.0,0.0,0.0,0.0,0.0,0.0,0.0,0.0,0.0,0.0,0.0,0.0,0.0,0.0,0.0,0.0,0.0,0.0,0.0,0.0,0.0,0.0,0.0,0.0,0.0,0.0,0.0,0.0,0.0,0.0,0.0,0.0,0.0,0.0,0.0,0.0,0.0,0.0,0.0,0.0,0.0,0.0,0.0,0.0,0.0,0.0,0.0,0.0,0.0,0.0,0.0,0.0,0.0,0.0,0.0,0.0,0.0,0.0,0.0,0.0,0.0,0.0,0.0,0.0,0.0,0.0,0.0,0.0,0.0,0.0,0.0,0.0,2.1002,2.1617,2.2325,2.322,2.3581,2.3647,2.334,2.2231,2.1416,0.0,0.0,0.0,0.0,0.0,0.0,0.0,0.0,0.0,0.0,0.0,0.0,0.0,0.0,0.0,0.0,0.0,0.0,0.0,0.0,0.0,0.0,0.0,0.0,0.0,0.0,0.0,0.0,0.0,0.0,0.0,0.0,0.0,0.0,0.0,0.0,0.0,0.0,0.0,0.0,0.0,0.0,0.0,0.0,0.0,0.0,0.0,0.0,0.0,0.0,0.0,0.0,0.0,0.0,0.0,0.0,0.0,0.0,0.0,0.0,0.0,0.0,0.0,0.0,0.0,0.0,0.0,0.0,0.0,0.0,0.0,0.0,0.0,0.0,0.0,0.0,0.0,0.0,0.0,0.0,0.0,0.0,0.0,0.0,0.0,0.0,0.0,0.0,0.0,0.0,0.0,0.0,0.0,0.0,0.0,0.0,0.0,0.0,0.0,0.0,0.0,0.0,0.0,2.1002,2.1443,2.2017,2.2899,2.3086,2.3169,2.3006,2.1737,2.0989,2.1096,0.0,0.0,0.0,0.0,0.0,0.0,0.0,0.0,0.0,0.0,0.0,0.0,0.0,0.0,0.0,0.0,0.0,0.0,0.0,0.0,0.0,0.0,0.0,0.0,0.0,0.0,0.0,0.0,0.0,0.0,0.0,0.0,0.0,0.0,0.0,0.0,0.0,0.0,0.0,0.0,0.0,0.0,0.0,0.0,0.0,0.0,0.0,0.0,0.0,0.0,0.0,0.0,0.0,0.0,0.0,0.0,0.0,0.0,0.0,0.0,0.0,0.0,0.0,0.0,0.0,0.0,0.0,0.0,0.0,0.0,0.0,0.0,0.0,0.0,0.0,0.0,0.0,0.0,0.0,0.0,0.0,0.0,0.0,0.0,0.0,0.0,0.0,0.0,0.0,0.0,0.0,0.0,0.0,0.0,0.0,0.0,0.0,0.0,0.0,0.0,0.0,0.0,2.1015,2.147,2.2017,2.2847,2.2928,2.2887,2.2699,2.167,2.0949,2.0775,0.0,0.0,0.0,0.0,0.0,0.0,0.0,0.0,0.0,0.0,0.0,0.0,0.0,0.0,0.0,0.0,0.0,0.0,0.0,0.0,0.0,0.0,0.0,0.0,0.0,0.0,0.0,0.0,0.0,0.0,0.0,0.0,0.0,0.0,0.0,0.0,0.0,0.0,0.0,0.0,0.0,0.0,0.0,0.0,0.0,0.0,0.0,0.0,0.0,0.0,0.0,0.0,0.0,0.0,0.0,0.0,0.0,0.0,0.0,0.0,0.0,0.0,0.0,0.0,0.0,0.0,0.0,0.0,0.0,0.0,0.0,0.0,0.0,0.0,0.0,0.0,0.0,0.0,0.0,0.0,0.0,0.0,0.0,0.0,0.0,0.0,0.0,0.0,0.0,0.0,0.0,0.0,0.0,0.0,0.0,0.0,0.0,0.0,0.0,0.0,0.0,0.0,2.1029,2.1617,2.2218,2.2874,2.2928,2.2739,2.2445,2.1857,2.1149,2.0294,0.0,0.0,0.0,0.0,0.0,0.0,0.0,0.0,0.0,0.0,0.0,0.0,0.0,0.0,0.0,0.0,0.0,0.0,0.0,0.0,0.0,0.0,0.0,0.0,0.0,0.0,0.0,0.0,0.0,0.0,0.0,0.0,0.0,0.0,0.0,0.0,0.0,0.0,0.0,0.0,0.0,0.0,0.0,0.0,0.0,0.0,0.0,0.0,0.0,0.0,0.0,0.0,0.0,0.0,0.0,0.0,0.0,0.0,0.0,0.0,2.2084,0.0,0.0,0.0,0.0,0.0,0.0,0.0,0.0,0.0,0.0,0.0,0.0,0.0,0.0,0.0,0.0,0.0,0.0,0.0,0.0,0.0,0.0,0.0,0.0,0.0,0.0,0.0,0.0,0.0,0.0,0.0,0.0,0.0,0.0,0.0,0.0,0.0,0.0,0.0,0.0,0.0,2.1029,2.1617,2.2218,2.2874,2.2928,2.2739,2.2445,2.167,2.0922,2.0207,1.9533,0.0,0.0,0.0,0.0,0.0,0.0,0.0,0.0,0.0,0.0,0.0,0.0,0.0,0.0,0.0,0.0,0.0,0.0,0.0,0.0,0.0,0.0,0.0,0.0,0.0,0.0,0.0,0.0,0.0,0.0,0.0,0.0,0.0,0.0,0.0,0.0,0.0,0.0,0.0,0.0,0.0,0.0,0.0,0.0,0.0,0.0,0.0,0.0,0.0,0.0,0.0,0.0,0.0,0.0,0.0,0.0,0.0,0.0,0.0,0.0,2.3006,0.0,0.0,0.0,0.0,0.0,0.0,0.0,0.0,0.0,0.0,0.0,0.0,0.0,0.0,0.0,0.0,0.0,0.0,0.0,0.0,0.0,0.0,0.0,0.0,0.0,0.0,0.0,0.0,0.0,0.0,0.0,0.0,0.0,0.0,0.0,0.0,0.0,0.0,0.0,0.0,2.0828,2.1416,2.2058,2.2847,2.2928,2.2686,2.2245,2.179,2.1096,2.0094,1.9733,0.0,0.0,0.0,0.0,0.0,0.0,0.0,0.0,0.0,0.0,0.0,0.0,0.0,0.0,0.0,0.0,0.0,0.0,0.0,0.0,0.0,0.0,0.0,0.0,0.0,0.0,0.0,0.0,0.0,0.0,0.0,0.0,0.0,0.0,0.0,0.0,0.0,0.0,0.0,0.0,0.0,0.0,0.0,0.0,0.0,0.0,0.0,0.0,0.0,0.0,0.0,0.0,0.0,2.3811,2.4249,2.4583,2.4529,2.477,2.5184,2.4262,2.3434,2.2779,2.3487,0.0,0.0,0.0,0.0,0.0,0.0,0.0,0.0,0.0,0.0,0.0,0.0,0.0,0.0,0.0,0.0,0.0,0.0,0.0,0.0,0.0,0.0,0.0,0.0,2.1655,2.1614,2.1256,0.0,0.0,0.0,0.0,0.0,0.0,0.0,0.0,0.0,0.0,0.0,2.0681,2.1333,2.2016,2.2847,2.2928,2.2686,2.2031,2.1991,2.1363,1.9893,2.0027,1.9653,0.0,0.0,0.0,0.0,0.0,0.0,0.0,0.0,0.0,0.0,0.0,0.0,0.0,0.0,0.0,0.0,0.0,0.0,0.0,0.0,0.0,0.0,0.0,0.0,0.0,0.0,0.0,0.0,0.0,0.0,0.0,0.0,2.1374,2.1615,0.0,0.0,0.0,0.0,0.0,0.0,0.0,0.0,0.0,0.0,0.0,0.0,0.0,2.3571,2.3866,2.4383,2.4618,2.4694,2.5113,2.5571,2.6092,2.5838,2.5849,2.5929,2.5945,0.0,2.3955,2.3821,0.0,0.0,0.0,0.0,0.0,0.0,0.0,0.0,0.0,0.0,0.0,0.0,0.0,0.0,0.0,0.0,0.0,0.0,0.0,0.0,0.0,0.0,2.2218,2.1748,2.1815,2.1844,0.0,2.1323,2.1162,2.1122,2.0909,0.0,0.0,0.0,0.0,0.0,0.0,0.0,2.0975,2.1563,2.2164,2.2792,2.2928,2.2686,2.2031,2.1991,2.1363,1.9893,1.984,1.9452,1.8531,1.849,0.0,0.0,0.0,0.0,0.0,0.0,0.0,0.0,0.0,0.0,0.0,0.0,0.0,0.0,0.0,0.0,0.0,0.0,0.0,0.0,0.0,0.0,0.0,0.0,0.0,0.0,0.0,0.0,0.0,2.1672,2.1931,2.2336,2.1887,2.1558,0.0,0.0,0.0,0.0,0.0,0.0,0.0,0.0,0.0,2.4318,2.4851,2.5319,2.5633,2.5884,2.6096,2.6255,2.6427,2.672,2.7121,2.6987,2.7028,2.7256,2.6974,2.6426,2.5625,2.501,2.4209,2.3367,0.0,0.0,0.0,0.0,2.3287,2.3581,2.3607,2.3447,2.3247,2.334,0.0,0.0,0.0,0.0,0.0,0.0,0.0,0.0,0.0,0.0,2.2779,2.2178,2.2258,2.2392,2.2098,2.1804,2.151,0.0,2.1136,2.1015,2.0508,0.0,0.0,0.0,0.0,2.0201,2.0788,2.1376,2.2031,2.2847,2.2712,2.2445,2.2017,2.1844,2.1256,2.012,2.004,1.9573,1.8531,1.8651,1.8637,0.0,0.0,0.0,0.0,0.0,0.0,0.0,0.0,0.0,0.0,0.0,0.0,0.0,0.0,0.0,0.0,0.0,0.0,0.0,0.0,0.0,0.0,0.0,0.0,0.0,0.0,0.0,0.0,2.2313,2.255,2.2754,2.2576,2.2241,0.0,0.0,0.0,0.0,0.0,0.0,2.3709,2.4397,2.4967,2.5478,2.6374,2.6947,2.7161,2.7241,2.7428,2.7722,2.7722,2.7909,2.8257,2.819,2.827,2.8542,2.7936,2.7468,2.6974,2.6026,2.4983,2.3968,2.3741,2.3621,2.3527,2.3287,2.35,2.3901,2.4048,2.4088,2.4062,2.3834,2.3514,2.3153,2.2859,0.0,0.0,0.0,0.0,2.3046,2.2819,2.31,2.33,2.2779,2.2873,2.2993,2.2619,2.2365,2.2017,0.0,2.1336,2.1229,2.0575,0.0,0.0,0.0,1.9746,2.0241,2.0828,2.1416,2.2124,2.2847,2.2592,2.2298,2.2004,2.1724,2.1176,2.0294,2.0167,1.9773,1.8758,1.8771,1.8611,1.8115,0.0,0.0,0.0,0.0,0.0,0.0,0.0,0.0,0.0,0.0,0.0,0.0,0.0,0.0,0.0,0.0,0.0,0.0,0.0,0.0,0.0,0.0,0.0,0.0,0.0,0.0,0.0,0.0,0.0,2.2722,2.3001,0.0,0.0,0.0,0.0,2.3437,2.4058,2.477,2.5838,2.632,2.6854,2.7161,2.7749,2.814,2.8167,2.8364,2.8671,2.8951,2.8951,2.9245,2.9793,2.9526,2.9406,2.9406,2.9085,2.8457,2.7562,2.6413,2.5398,2.4596,2.4569,2.4396,2.4155,2.4142,2.4155,2.4142,2.3888,2.3794,2.3794,2.3768,2.3367,2.2993,2.3541,2.3313,0.0,0.0,2.3941,2.3714,2.3701,2.3728,2.3674,2.3354,2.3514,2.3567,2.2966,2.2832,2.2633,0.0,2.1309,2.1122,2.1069,0.0,2.0,2.0508,2.0615,2.0842,2.1494,2.2017,2.2498,2.2832,2.2592,2.2298,2.2004,2.1724,2.1176,2.0294,2.0167,1.996,1.9403,1.8798,1.8504,1.8464,1.8504,0.0,0.0,0.0,0.0,0.0,0.0,0.0,0.0,0.0,0.0,0.0,0.0,0.0,0.0,0.0,0.0,0.0,0.0,0.0,0.0,0.0,0.0,0.0,0.0,0.0,0.0,0.0,0.0,2.4759,2.4885,0.0,2.4666,2.4328,2.4462,2.5341,2.5471,2.5909,2.7028,2.7094,2.7509,2.8377,2.8791,2.9192,2.9566,2.9673,2.9793,2.9887,2.97,2.9713,2.9913,2.9806,2.9766,2.9753,2.9446,2.9032,2.8497,2.7696,2.6627,2.5464,2.5277,2.5024,2.4743,2.4556,2.4596,2.473,2.4422,2.4449,2.4556,2.4168,2.3901,2.3728,2.3768,2.3621,2.3514,2.3834,2.3848,2.3768,2.3768,2.3915,2.3981,2.3688,2.3688,2.3661,2.3247,2.3166,2.2953,2.2245,2.1724,2.1336,2.1149,2.0695,2.0441,2.0641,2.0842,2.1162,2.1764,2.2178,2.2539,2.2832,2.2432,2.2098,2.1991,2.155,2.0975,2.0281,2.0054,1.9613,1.8838,1.8597,1.8303,1.7916,1.8103,1.849,0.0,0.0,0.0,0.0,0.0,0.0,0.0,0.0,0.0,0.0,0.0,0.0,0.0,0.0,0.0,0.0,0.0,0.0,0.0,0.0,0.0,0.0,0.0,0.0,0.0,2.449,2.5386,2.6175,2.6505,2.6692,2.6453,2.6242,2.6427,2.6961,2.6987,2.7375,2.8257,2.831,2.8671,2.9459,2.9673,2.9967,3.0354,3.0261,3.0207,3.0207,3.0007,2.9913,2.9913,2.9913,2.9913,2.99,2.9713,2.9406,2.9005,2.8604,2.7696,2.6507,2.6106,2.5718,2.5358,2.5157,2.5144,2.5184,2.489,2.4917,2.4997,2.4502,2.4289,2.4168,2.3981,2.3915,2.3915,2.3915,2.3981,2.4062,2.4062,2.4209,2.4302,2.4115,2.4062,2.3981,2.3688,2.3621,2.3447,2.2846,2.2325,2.1897,2.1603,2.1309,2.1189,2.139,2.1577,2.1884,2.2378,2.2605,2.2806,2.2993,2.2485,2.2084,2.1991,2.163,2.1029,2.0147,2.0,1.9506,1.8531,1.8584,1.845,1.805,1.8182,1.8531,1.8918,0.0,0.0,0.0,0.0,0.0,0.0,0.0,0.0,0.0,0.0,0.0,0.0,0.0,0.0,0.0,0.0,0.0,0.0,0.0,0.0,0.0,0.0,0.0,2.406,2.5361,2.6528,2.6747,2.7883,2.8337,2.7468,2.7629,2.7923,2.8315,2.8778,2.9232,2.9539,3.006,3.0354,3.0354,3.0354,3.0341,3.0341,3.006,2.9913,2.9913,2.9913,2.9913,2.9913,2.9913,2.9913,2.9913,2.9913,2.9593,2.8971,2.9045,2.8524,2.7669,2.7081,2.6493,2.5985,2.5985,2.5785,2.5491,2.5197,2.509,2.5037,2.473,2.4449,2.4222,2.4222,2.4222,2.4222,2.4222,2.4422,2.4636,2.4636,2.4636,2.4636,2.4636,2.4549,2.4543,2.4262,2.4209,2.4035,2.3447,2.31,2.2806,2.2485,2.2178,2.2191,2.2847,2.2928,0.0,2.3287,2.3313,2.3313,2.334,2.2792,2.2298,2.2017,2.1977,2.1336,1.9893,2.004,1.9679,1.8517,1.8731,1.8878,1.8878,1.8905,1.8624,1.7995,0.0,0.0,0.0,0.0,0.0,0.0,0.0,0.0,0.0,0.0,0.0,0.0,0.0,0.0,0.0,0.0,0.0,0.0,0.0,0.0,0.0,2.5188,2.5948,2.5713,2.7168,2.8525,2.9331,2.9824,3.0181,3.014,3.002,3.0154,3.0662,3.0461,3.0528,3.1049,3.0621,3.0354,3.0354,3.0154,3.0034,3.0034,2.9953,2.9913,2.9913,2.9913,2.9913,2.9913,2.9913,2.9913,2.9913,2.9913,2.9713,2.9339,2.9125,2.8764,2.8297,2.7696,2.7094,2.6587,2.6587,2.6266,2.5798,2.5491,2.5251,2.5037,2.473,2.4583,2.4516,2.4516,2.4516,2.4516,2.4516,2.4569,2.4636,2.4636,2.4636,2.4636,2.4636,2.4476,2.4302,2.4222,2.4209,2.4088,2.3728,2.3754,2.3607,2.2873,2.2325,2.2191,2.2847,2.2672,0.0,2.326,2.3126,2.3153,2.3607,2.2913,2.2392,2.2311,2.1724,2.0909,1.9867,1.9479,1.8945,1.8142,1.8036,1.7956,1.7956,1.8384,1.8534,0.0,0.0,0.0,0.0,0.0,0.0,0.0,0.0,0.0,0.0,0.0,0.0,0.0,0.0,0.0,0.0,0.0,0.0,0.0,0.0,0.0,0.0,2.6547,2.7575,2.831,2.9205,3.01,3.0982,3.1343,3.1597,3.1757,3.1623,3.1623,3.1837,3.165,3.1517,3.149,3.1116,3.0742,3.0368,3.0194,3.0047,2.9913,2.9913,2.9913,2.9913,2.9913,2.9913,2.9913,2.9913,2.9913,2.9913,2.9913,2.9686,2.9285,2.9112,2.8791,0.0,0.0,0.0,0.0,0.0,2.6346,2.5919,2.5611,2.5317,2.5037,2.473,2.4636,2.4636,2.4636,2.4636,2.4636,2.4636,2.4636,2.4636,2.4636,2.4636,2.4636,2.4636,2.4502,2.4382,2.4382,2.4382,2.4302,2.4008,2.4088,0.0,2.3514,2.314,2.3073,2.3541,2.346,2.3474,2.3834,2.35,2.342,2.3901,2.314,2.2552,2.2432,2.1844,0.0,0.0,0.0,1.9025,1.8382,1.8237,0.0,0.0,0.0,1.8762,1.851,1.8915,0.0,0.0,1.8739,1.9055,0.0,0.0,0.0,0.0,0.0,0.0,0.0,0.0,0.0,0.0,0.0,0.0,0.0,0.0,0.0,0.0,2.803,2.9419,3.1169,3.1263,3.1423,3.2158,3.2478,3.2639,3.2639,3.2683,3.2465,3.2265,3.2398,3.2158,3.137,3.1517,0.0,0.0,0.0,3.0181,2.9913,2.9913,2.9913,2.9913,2.9913,2.9913,2.9913,2.9913,2.9913,2.9913,2.9913,2.9619,2.9138,2.9072,2.8684,2.8221,2.8154,2.7792,2.7148,2.66,2.6199,2.5919,2.5611,0.0,0.0,2.473,2.4636,2.4636,2.4636,2.4636,2.4636,2.4636,2.4636,2.4636,2.4636,2.4636,2.4636,2.4636,2.4636,2.4636,2.4636,2.4636,2.4556,2.4302,2.4249,2.4249,2.4249,2.4195,2.4249,2.4543,2.4556,2.4556,2.4583,2.4115,2.3888,2.4222,0.0,0.0,2.2485,2.2138,2.1336,1.9933,1.976,1.9452,1.8905,1.8838,1.8838,1.8878,1.9105,1.9028,1.8601,1.8857,1.8722,1.8211,1.8892,1.9192,0.0,0.0,0.0,0.0,0.0,0.0,0.0,0.0,0.0,0.0,0.0,0.0,0.0,0.0,0.0,2.7936,2.9245,3.0635,3.2398,3.3013,3.3253,3.3173,3.3213,3.324,3.324,3.2826,3.2719,3.3133,3.2559,3.2118,3.1944,3.1543,3.1022,3.0381,3.0127,2.998,2.9913,2.9913,2.9913,2.9913,0.0,0.0,2.9913,2.9913,2.9913,2.9913,2.9913,2.9847,2.9713,2.9232,2.8684,2.8181,2.7615,2.7215,2.6867,2.652,2.6199,2.5919,2.5611,2.5317,2.5037,2.473,2.4636,2.4636,2.4636,2.4636,0.0,2.4636,2.4636,2.4636,2.4636,2.4636,2.4636,2.4636,2.4636,2.4636,2.4636,2.4636,2.4549,2.4569,2.4556,2.4556,2.4556,2.4168,2.3955,2.4249,2.4088,2.4022,2.4262,2.3981,2.3968,2.4489,2.3768,2.3113,2.2806,2.2137,2.1216,2.0214,1.9479,1.8931,1.8584,1.8343,1.8275,1.8571,1.8397,1.8577,1.925,1.9306,1.9333,1.944,1.8906,1.8495,0.0,0.0,0.0,0.0,0.0,0.0,0.0,0.0,0.0,0.0,0.0,2.4022,2.4917,0.0,2.7455,2.9392,3.0448,3.1583,3.32,3.3427,3.348,3.3627,3.3654,3.3534,3.3227,3.2933,3.2759,3.2759,3.2492,3.2198,3.1904,3.1744,3.133,3.0595,3.0434,3.0207,2.9913,2.9913,2.9913,2.9913,2.9913,2.9913,2.9913,2.9913,2.9913,2.9913,2.9913,2.9833,2.9646,2.9058,2.8551,2.8167,2.7578,2.7175,2.6987,2.6547,2.6199,2.5919,2.5611,2.5424,2.5224,2.4783,2.473,2.4836,2.4676,2.4636,2.4636,2.4636,2.4636,2.4636,2.4636,2.4636,2.4636,2.4636,2.4636,2.4636,2.4636,2.4636,2.4636,2.4636,2.4636,2.4636,2.4636,2.4396,2.4249,2.4396,2.4302,2.4262,2.4396,2.4168,2.4155,2.4596,2.3848,2.326,2.3113,2.2004,2.1015,2.0281,1.9767,1.9386,1.8945,1.8784,1.8637,1.849,1.849,1.8668,1.9138,1.9302,1.9359,1.9319,1.909,1.8859,0.0,0.0,0.0,0.0,0.0,0.0,0.0,2.2605,2.3006,2.3554,2.4369,2.5317,2.644,2.7602,2.8965,3.0688,3.1503,3.2385,3.3708,3.3507,3.3374,3.3748,3.3694,3.344,3.2946,3.2839,3.2639,3.2225,3.2305,3.2171,3.169,3.1837,3.1557,3.0742,3.0715,3.0448,2.9927,2.9913,2.9913,2.9913,2.9913,2.9913,2.9913,2.9913,2.9913,2.9913,2.986,2.9673,2.9352,2.8764,2.8337,2.8003,2.7415,2.7175,2.7121,2.6587,2.6199,2.5919,2.5678,2.5558,2.5424,2.489,2.489,2.5024,2.473,2.4636,2.4636,2.4636,2.4636,2.4636,2.4636,2.4636,2.4636,2.4636,2.4636,2.4636,2.4636,2.4636,2.4636,2.4636,2.4636,2.4636,2.4636,2.4636,2.4636,2.4636,2.4636,2.4636,2.4636,2.4436,2.4382,2.4609,2.3901,2.334,2.3166,2.2004,2.1029,2.0441,2.034,2.0147,1.9559,1.9484,1.9229,1.8758,1.8865,1.8945,1.9068,1.9367,1.9354,1.9068,1.9358,1.941,2.3474,2.2886,2.2472,2.2712,2.2887,2.2979,0.0,2.3995,2.4476,2.481,2.5585,2.6466,2.7388,2.8524,2.982,3.133,3.2278,3.308,3.3788,3.4055,3.3988,3.3521,3.3013,3.2763,3.2696,3.2358,3.2278,3.2478,3.2051,3.1744,3.1677,3.145,3.1049,3.0434,3.0408,3.0247,2.9913,2.9913,2.9913,2.9913,2.9913,2.9913,2.9913,2.9913,2.9913,2.99,2.9646,2.9366,2.9045,2.8444,2.8016,2.7682,2.7094,2.6867,2.6827,2.6507,2.6199,2.5959,2.5996,2.5732,2.5464,2.513,2.505,2.5024,2.473,2.4636,2.4636,2.4636,2.4636,2.4636,2.4636,2.4636,2.4636,2.4636,2.4636,2.4636,2.4636,2.4636,2.4636,2.4636,2.4636,2.4636,2.4636,2.4636,2.4636,2.4636,2.4636,2.4636,2.4636,2.4609,2.4596,2.4636,2.4088,2.3394,2.2592,2.2138,2.163,2.1042,2.1015,2.0748,2.016,1.9639,1.9452,1.9653,1.9172,1.9166,1.971,1.9737,1.9737,1.9696,1.9749,1.9427,2.2752,2.2739,2.2926,2.2873,2.3584,2.4222,2.4476,2.4983,2.5585,2.6226,2.7054,2.8003,2.9058,3.0074,3.1062,3.2024,3.2625,3.3133,3.3547,3.328,3.2879,3.2452,3.1877,3.173,3.2238,3.2171,3.2091,3.2038,3.181,3.1664,3.1664,3.1383,3.1116,3.0875,3.0541,3.0301,3.0181,3.0007,2.9913,2.9913,2.9913,2.9913,2.9913,2.9913,2.9913,2.9913,2.978,2.9566,2.9272,2.8845,2.839,2.7896,2.7308,2.6974,2.6787,2.6493,2.6319,2.6186,2.6012,2.5879,2.5718,2.5424,2.5224,2.5064,2.493,2.477,2.4636,2.4636,2.4636,2.4636,2.4636,2.4636,2.4636,2.4636,2.4636,2.4636,2.4636,2.4636,2.4636,2.4636,2.4636,2.4636,2.4636,2.4636,2.4636,2.4636,2.4636,2.4636,2.4636,2.4636,2.4569,2.4396,2.4022,2.3474,2.2739,2.2405,2.2058,2.1643,2.1456,2.1176,2.0762,2.0347,2.0027,1.98,1.9559,1.947,1.9591,1.9591,1.9591,1.9591,1.9571,1.9516,2.2298,2.2819,2.3527,2.338,2.4409,2.5504,2.5745,2.6319,2.7054,2.7936,2.8698,2.9499,3.0421,3.1249,3.1957,3.2465,3.2933,3.324,3.328,3.2679,3.1998,3.1383,3.0795,3.0675,3.1316,3.1597,3.169,3.1557,3.1476,3.1463,3.1543,3.1263,3.1076,3.0996,3.0581,3.0314,3.0234,3.002,2.9913,2.9913,2.9913,2.9913,2.9913,2.9913,2.9913,2.9913,2.974,2.9553,2.9325,2.8858,2.8417,2.7963,2.7375,2.7014,2.6787,2.6493,2.6386,2.636,2.6146,2.6026,2.5905,2.5611,2.5317,2.5064,2.4983,2.481,2.4636,2.4636,2.4636,2.4636,2.4636,2.4636,2.4636,2.4636,2.4636,2.4636,2.4636,2.4636,2.4636,2.4636,2.4636,2.4636,2.4636,2.4636,2.4636,2.4636,2.4636,2.4636,2.4636,2.4636,2.4529,2.4235,2.4022,2.3647,2.3046,2.2792,2.2512,2.2124,2.183,2.1537,2.1243,2.0882,2.0481,2.0054,1.988,1.9693,1.9492,1.947,1.943,1.943,1.943,1.9475,2.2485,2.3273,2.4249,2.4516,2.5478,2.6573,2.7428,2.831,2.9192,3.0087,3.0515,3.0822,3.1142,3.169,3.2185,3.2492,3.328,3.3654,3.3066,3.2732,3.1998,3.0568,2.9887,2.9539,2.9566,3.0327,3.0942,3.1223,3.0982,3.0942,3.1223,3.0969,3.0675,3.0394,3.0368,3.0221,2.9927,2.9927,2.9913,2.9913,2.9913,2.9913,2.9913,2.9913,2.9913,2.9887,2.9312,2.9058,2.8991,2.8096,2.7722,2.7655,2.7068,2.6827,2.6787,2.6493,2.6386,2.6386,2.6373,2.6186,2.5905,2.5611,2.5317,2.5024,2.473,2.4649,2.4636,2.4636,2.4636,2.4636,2.4636,2.4636,2.4636,2.4636,2.4636,2.4636,2.4636,2.4636,2.4636,2.4636,2.4636,2.4636,2.4636,2.4636,2.4636,2.4636,2.4636,2.4636,2.4636,2.4636,2.4529,2.4235,2.4195,2.3955,2.3367,2.33,2.3046,2.2445,2.2138,2.1844,2.1614,2.1052,2.0668,2.0655,2.0094,1.98,1.9786,1.9506,1.943,1.943,1.943,1.943,2.3233,2.4315,2.5531,2.6213,2.7268,2.8323,2.9018,2.9713,3.0287,3.0581,3.0568,3.0595,3.0889,3.1423,3.1851,3.1944,3.2706,3.3013,3.2225,3.1851,3.1049,2.9392,2.9192,2.8951,2.8364,2.9285,3.0207,3.0889,3.1022,3.1036,3.0942,3.0849,3.0755,3.0648,3.0274,3.0114,3.0207,3.002,2.9913,2.9913,2.9913,2.9913,2.9913,2.9913,2.9913,2.99,2.9713,2.9406,2.9018,2.8711,2.8243,2.7682,2.7482,2.7281,2.7081,2.6787,2.668,2.6653,2.6453,2.6199,2.605,2.6066,2.5772,2.5384,2.5478,2.5371,2.5211,2.5211,2.5211,2.5211,2.5211,2.5211,2.517,2.497,2.493,2.4877,2.4676,2.4636,2.4636,2.4636,2.4636,2.4636,2.4636,2.4636,2.4636,2.4636,2.4636,2.4636,2.4636,2.4636,2.4596,2.4502,2.4315,2.4128,2.3928,2.3554,2.3233,2.3033,2.2552,2.2231,2.2124,2.1563,2.1162,2.0962,2.0575,2.0281,2.0094,1.9987,1.984,1.9653,1.9653,1.9663,2.4329,2.5705,2.7094,2.7869,2.8871,2.9793,3.0274,3.0595,3.0795,3.0795,3.0474,3.0194,3.0167,3.0474,3.0768,3.0875,3.145,3.1757,3.141,3.0915,3.014,2.8911,2.8644,2.8417,2.8056,2.8617,2.9419,3.0408,3.0755,3.0875,3.0795,3.0702,3.0635,3.0635,3.0167,3.0007,3.0207,3.0007,2.9913,2.9913,2.9913,2.9913,2.9913,2.9913,2.9913,2.99,2.97,2.9392,2.9018,2.8804,2.8377,2.7843,2.7736,2.7589,2.7388,2.7094,2.6907,2.6774,2.6493,2.6199,2.6063,2.6172,2.5905,2.5545,2.5745,2.5665,2.5518,2.5518,2.5518,2.5518,2.5518,2.5438,2.5304,2.5117,2.4997,2.4863,2.4676,2.4636,2.4636,2.4636,2.4636,2.4636,2.4636,2.4556,2.4476,2.4476,2.4396,2.4369,2.4462,2.4476,2.4436,2.4342,2.4155,2.4048,2.4048,2.3607,2.3327,2.3327,2.2752,2.2418,2.2418,2.1857,2.1534,2.1269,2.0882,2.0588,2.0388,2.0174,1.9987,1.98,1.9693,1.9708,2.5745,2.7362,2.8831,2.9419,3.0207,3.0902,3.1169,3.0996,3.0768,3.0715,3.0221,2.9619,2.9018,2.8951,2.9098,2.9392,2.9753,3.0181,3.0742,3.0087,2.9419,2.9085,2.8283,2.7976,2.8537,2.8337,2.8657,2.9806,0.0,3.0461,3.0755,3.0515,3.0354,3.0354,3.0074,2.9913,2.9913,2.9913,2.9913,2.9913,2.9913,2.9913,2.9913,2.9913,2.9913,2.986,2.9299,2.9045,2.8978,2.8404,2.8248,2.8194,2.7829,2.7722,2.7682,2.7402,2.7094,2.68,2.6507,2.6226,2.605,2.605,2.5785,2.5558,2.5558,2.5558,2.5558,2.5558,2.5558,2.5558,2.5558,2.5358,2.5144,2.513,2.4903,2.4703,2.469,2.4676,2.4676,2.4676,2.4589,2.4636,2.4549,2.4369,2.4182,2.4182,2.3941,2.3875,2.4142,2.4182,2.4075,2.3794,2.3768,2.3768,2.3768,2.35,2.3327,2.3327,2.2752,2.2418,2.2418,2.1871,2.1641,2.1641,2.1065,2.0708,2.0722,2.0134,1.984,1.984,1.9533,1.9546,2.7283,2.881,3.0047,3.0635,3.1116,3.141,3.1263,3.0996,3.0541,2.9673,2.8831,2.8016,2.7215,2.7776,2.847,2.8778,2.9993,3.0942,3.1089,3.0742,3.01,2.9152,2.8831,2.8577,2.8283,2.8591,2.9032,2.9553,2.986,3.0154,3.0448,3.0394,3.0354,3.0354,3.0074,2.9913,2.9913,2.9913,2.9913,2.9913,2.9913,2.9913,2.9913,2.9913,2.9793,2.9579,2.9432,2.9125,2.8711,2.8551,2.835,2.8221,2.814,2.8114,2.7989,2.7696,2.7402,2.7108,2.6814,2.652,2.6279,2.6279,2.6226,2.6172,2.6172,2.6172,2.6172,2.6172,2.6172,2.6172,2.6172,2.6106,2.5999,2.5785,2.5678,2.5558,2.5331,2.5291,2.5291,2.5291,2.493,2.4569,2.4356,2.4075,2.3888,2.3888,2.3821,2.3794,2.3875,2.3888,2.3848,2.3781,2.3768,2.3768,2.3768,2.35,2.3327,2.3327,2.2752,2.2418,2.2418,2.2071,2.1871,2.1871,2.1296,2.1109,2.1387,2.0735,2.0454,2.0441,1.9933,1.9631,2.9058,3.0287,3.1263,3.1851,3.1824,3.153,3.0969,3.0421,2.9646,2.8337,2.7455,2.6587,2.5451,2.6199,2.7041,2.7215,2.8617,2.986,3.0381,3.0207,2.9927,2.9646,2.9392,2.9205,2.9212,2.9192,2.9352,2.9646,2.994,3.0127,3.0167,3.0287,3.0301,3.0167,3.0007,2.9913,2.9913,2.9913,2.9913,2.9913,2.9913,2.9913,2.9913,2.9913,2.982,2.9659,2.9406,2.9098,2.8778,2.8511,2.8297,2.8221,2.8221,2.8221,2.8207,2.7949,2.7709,2.7415,2.7121,2.6827,2.656,2.6426,2.6386,2.6386,2.6386,2.6386,2.6386,2.6386,2.6386,2.6386,2.6386,2.6293,2.6159,2.6077,2.5852,2.5718,2.5545,2.5518,2.5478,2.5344,2.505,2.4703,2.4275,2.3968,2.3728,2.3594,2.346,2.3437,2.3437,2.3487,2.3527,2.338,2.3437,2.3434,2.3567,2.33,2.318,2.3313,2.2873,2.2552,2.2418,2.2138,2.1871,2.1603,2.1149,2.0935,2.0975,2.0521,2.0361,2.0468,1.9746,1.9457,3.0942,3.1797,3.2345,3.2853,3.2318,3.1423,3.0515,2.9526,2.8377,2.6894,2.6066,2.5211,2.3888,2.4609,2.5464,2.5651,2.6921,2.8297,2.9486,2.9406,2.9499,3.0274,2.9873,2.9753,3.0301,2.99,2.97,2.9953,3.0247,3.0287,2.9993,3.0181,3.0181,2.9927,2.9913,2.9913,2.9913,2.9913,2.9913,2.9913,2.9913,2.9913,2.9913,2.9913,2.9873,2.9766,2.9259,2.8991,2.8885,2.8364,2.8221,2.8221,2.8221,2.8221,2.8221,2.8221,2.7923,2.7602,2.7348,2.7041,2.672,2.6466,2.6386,2.6386,2.6386,2.6386,2.6386,2.6386,2.6386,2.6386,2.6386,2.6199,2.6012,2.6012,2.5812,2.5625,2.5625,2.5625,2.5531,2.5197,2.5077,2.4836,2.4249,2.3875,2.3567,2.33,2.3033,2.2928,2.2928,2.31,2.3166,2.2886,2.2928,2.2966,2.3247,2.302,2.2979,2.3247,2.2979,2.2672,2.2378,2.2124,2.1724,2.1176,2.0842,2.0575,2.0347,1.9987,1.9947,2.0153,1.9372,1.9206,3.1971,3.2559,3.2853,3.2946,3.2318,3.137,3.0247,2.8738,2.7161,2.5678,2.4529,2.3634,2.3113,2.3995,2.5184,2.64,2.7843,2.9219,3.0394,3.0314,3.0194,3.0341,3.006,2.998,3.0327,3.0274,3.0234,3.0274,3.0555,3.0595,3.0301,3.01,2.9967,2.9913,2.9913,2.9913,2.9913,2.9913,2.9913,2.9913,2.9913,2.9913,2.9913,2.9913,2.9646,2.9192,2.9085,0.0,2.8283,2.8274,2.8221,2.8221,2.8221,2.8221,2.8221,2.8221,2.7886,2.7335,2.7281,2.6921,2.6453,2.6413,2.6386,2.6386,2.6386,2.6386,2.6386,2.6386,2.6386,2.6386,2.6386,2.636,2.6319,2.6319,2.6279,2.6239,2.6239,2.6239,2.6079,2.5545,2.505,2.4529,2.3941,2.338,2.3075,2.2953,2.2899,2.2928,2.2928,2.2913,2.2926,2.2873,2.2928,2.2954,2.2939,2.2968,2.2954,2.2939,2.2659,2.2365,2.2071,2.2004,2.183,2.1547,2.0949,2.0775,2.0949,2.0174,1.9947,2.0214,1.9586,1.9243,3.3106,3.3467,3.3414,3.324,3.2078,3.0595,2.9098,2.7281,2.5478,2.3995,2.3247,2.2712,2.2338,2.3273,2.4516,2.5518,2.6667,2.8003,2.9646,2.9486,2.9588,3.0274,3.0234,3.0261,3.0555,3.0581,3.0528,3.0368,3.0488,3.0434,3.014,2.9993,2.9913,2.9913,2.9913,2.9913,2.9913,2.9913,2.9913,2.9913,2.9913,2.9913,2.9913,2.9913,2.9686,2.9259,2.9112,2.8791,2.8377,2.8301,2.8221,2.8221,2.8221,2.8221,2.8221,2.8221,2.8047,2.7765,2.7375,2.7081,2.68,2.6493,2.6386,2.6386,2.6386,2.6493,2.6587,2.6426,2.6493,2.6587,2.6426,2.6386,2.6386,2.6386,2.6386,2.6386,2.6386,2.6386,2.6213,2.5625,2.5291,2.4863,2.4115,2.3634,2.3287,2.3126,2.2966,2.2928,2.2928,2.2928,2.2928,2.2928,2.2928,2.2928,2.2928,2.2928,2.2928,2.2928,2.2726,2.2512,2.2218,2.2071,2.1777,2.1336,2.0895,2.0601,2.0428,2.0,1.9867,2.0,1.9412,1.9145,3.3908,3.4055,3.3801,3.3414,3.173,2.9726,2.807,2.6012,2.4062,2.2699,2.2365,2.2191,2.1724,2.2766,2.3901,2.4623,2.5531,2.68,2.8684,2.8644,2.8885,3.0114,3.0327,3.0448,3.0675,3.0808,3.0742,3.0381,3.0301,3.0167,2.9927,2.9913,2.9913,2.9913,2.9913,2.9913,2.9913,2.9913,2.9913,2.9913,2.9913,2.9913,2.9913,2.9913,2.9753,2.9472,2.9232,2.8965,2.8671,2.8364,2.8328,2.8315,2.8248,2.8221,2.8221,2.8221,2.8181,2.806,2.7522,2.7321,2.7188,2.6734,2.6493,2.64,2.6466,2.66,2.6694,2.6533,2.66,2.668,2.6453,2.6386,2.6386,2.6386,2.6386,2.6373,2.6306,2.6346,2.6199,2.5545,2.5424,2.5157,2.4342,2.3915,2.3594,2.3367,2.306,2.2928,2.2928,2.2928,2.2928,2.2928,2.2928,2.2928,2.2928,2.2928,2.2928,2.2928,2.2928,2.2726,2.2432,2.2205,2.1804,2.1216,2.0922,2.0481,1.9893,1.9826,1.9773,1.9693,1.9239,1.9105,3.3895,3.3908,3.3748,3.316,3.1276,2.9232,2.7989,2.5705,2.3581,2.2619,2.2205,2.2004,2.1951,2.2726,2.3741,2.4863,2.5999,2.7188,2.847,2.9058,2.9513,2.9913,3.0194,3.0368,3.0394,3.0875,3.0955,3.0408,3.0114,2.994,2.9913,2.9913,2.9913,2.9913,2.9913,2.9913,2.9913,2.9913,2.9913,2.9913,2.9913,2.9913,2.9913,2.9913,2.9753,2.9486,2.9459,2.9272,0.0,2.8684,2.8564,2.8537,2.8341,2.8221,2.8221,2.8221,2.7976,2.7736,2.7682,2.7482,2.7255,2.7201,2.6827,2.644,2.6707,2.6613,2.648,2.6707,2.6613,2.6426,2.64,2.6386,2.6386,2.6386,2.6386,2.6319,2.6052,2.6199,2.6132,2.5277,2.5117,2.493,2.4315,2.3741,2.3367,2.3327,2.306,2.2928,2.2928,2.2928,2.2928,2.2928,2.2928,2.2928,2.2928,2.2928,2.2928,2.2928,2.2928,2.2726,2.2432,2.2392,2.2111,2.1588,2.1216,2.0775,2.0127,1.9933,1.9666,1.947,1.9359,1.9199,3.3814,3.4015,3.3694,3.2919,3.0822,2.8644,2.7442,2.4983,2.2806,2.2271,2.2071,2.2044,2.2218,2.2539,2.3166,2.4356,2.4649,2.5251,2.68,2.7054,2.7602,2.8965,2.9539,3.0047,3.0568,3.1156,3.1249,3.0662,3.0181,2.9913,2.9913,2.9913,2.9913,2.9913,2.9913,2.9913,2.9913,2.9913,2.9913,2.9913,2.9913,2.9913,2.9913,2.9913,2.9753,2.9486,2.9486,2.9312,0.0,2.8724,2.8604,2.8577,2.827,2.8221,2.8221,2.8221,2.8154,2.7936,2.7762,2.7629,2.7495,2.7321,2.7108,2.6907,2.6841,2.6867,2.6867,2.6627,2.66,2.6613,2.644,2.6386,2.6346,2.6172,2.6132,2.6092,2.5985,2.5905,2.5758,2.5411,2.5197,2.4943,2.4543,2.4128,2.3794,2.3621,2.334,2.3073,2.2886,2.2928,2.2928,2.2928,2.2928,2.2928,2.2928,2.2928,2.2928,2.2928,2.2928,2.2806,2.2699,2.2512,2.2311,2.2084,2.1617,2.1176,2.0762,2.0294,1.9907,1.9626,1.9511,1.9305,3.3133,3.3708,3.3627,3.2559,3.0501,2.8404,2.7108,2.4743,2.2686,2.2205,2.2178,2.2285,2.2392,2.2485,2.2886,2.3915,2.3875,2.4235,2.5745,2.5852,2.644,2.8257,2.8831,2.9472,3.0434,3.0982,3.1142,3.0822,3.0247,2.9913,2.9913,2.9913,2.9913,2.9913,2.9913,2.9913,2.9913,2.9913,2.9913,2.9913,2.9913,2.9913,2.9913,2.9913,2.9806,2.9606,2.9606,2.9446,0.0,2.8858,2.8684,2.8577,2.827,2.8221,2.8221,2.8221,2.8221,2.8194,2.7896,2.7829,2.7802,2.7589,2.7604,2.7468,2.7175,2.7175,2.7175,2.676,2.6734,2.6774,2.6573,2.652,2.6466,2.6266,2.6079,2.601,2.5838,2.5665,2.5464,2.5291,2.5157,2.4983,2.469,2.4396,2.4142,2.3928,2.3647,2.3354,2.3033,2.2993,2.2966,2.2941,2.2928,2.2928,2.2928,2.2928,2.2928,2.2928,2.2928,2.2928,2.2928,2.2659,2.2472,2.2298,2.1977,2.1577,2.1109,2.0775,2.0428,2.0054,1.976,1.9533,3.169,3.2772,3.3534,3.2051,3.0341,2.8644,2.7161,2.5237,2.35,2.2605,2.2645,2.2766,2.2472,2.2659,2.306,2.3674,2.4249,2.493,2.5838,2.6199,2.6814,2.8087,2.8234,2.8617,2.9806,3.0194,3.0488,3.0768,3.0247,0.0,2.9913,2.9913,2.9913,2.9913,2.9913,2.9913,2.9913,2.9913,2.9913,2.9913,2.9913,2.9913,2.9913,2.9913,2.9913,2.9913,2.9913,2.9753,0.0,2.9152,2.8871,2.8577,2.827,2.8221,2.8221,2.8221,2.8221,2.8221,2.8221,2.8221,2.8221,2.8221,2.8221,2.8167,2.7776,2.7495,2.7268,2.7255,2.7041,2.6827,2.6814,2.6814,2.6814,2.6814,2.6373,2.5879,2.5585,2.5518,2.5344,2.4756,2.4877,2.4983,2.469,2.4396,2.4209,2.4195,2.3955,2.3661,2.3367,2.3327,2.3207,2.2968,2.2928,2.2928,2.2928,2.2928,2.2928,2.2928,2.2928,2.2928,2.2928,2.2928,2.2579,2.2004,2.2271,2.1977,2.1109,2.1403,2.1306,2.0655,2.0361,1.992,2.99,3.0662,3.0969,3.0087,2.8845,2.7549,2.648,2.4957,2.3567,2.2873,2.2792,2.2901,2.2739,2.2806,2.3126,2.3941,2.4062,2.4422,2.5504,2.5905,2.66,2.806,2.9219,3.0181,3.0755,3.0541,3.0394,3.0488,3.014,2.9913,2.9913,2.9913,2.9913,2.9913,2.9913,2.9913,2.9913,2.9913,2.9913,2.9913,2.9913,2.9913,2.9913,2.9913,2.9913,2.9913,2.9913,2.9753,2.9459,2.9165,2.8871,2.8577,2.827,2.8221,2.8221,2.8221,2.8221,2.8221,2.8221,2.8221,2.8221,2.8221,2.8221,2.8207,2.803,2.7802,2.7522,2.7321,2.7201,2.7121,2.7121,2.6974,2.672,2.6319,2.5932,2.5571,2.5277,2.5064,2.4917,2.493,2.485,2.4743,2.4649,2.4556,2.4436,2.4235,2.4128,2.3955,2.3661,2.3447,2.3287,2.3193,2.2993,2.2928,2.2928,2.2928,2.2928,2.2928,2.2928,2.2928,2.2928,2.2928,2.2672,2.2285,2.2178,2.1884,2.1416,2.1296,2.0949,2.0374,2.0449,2.0218,2.8016,2.9098,2.9606,2.9018,2.815,2.7134,2.6039,2.4823,2.3728,2.3075,2.2928,2.2928,2.2928,2.2928,2.3086,2.3768,2.3714,2.3968,2.5037,2.5625,2.6587,2.8283,2.9753,3.0702,3.0889,3.0568,3.0354,3.0354,3.0087,2.9913,2.9913,2.9913,2.9913,2.9913,2.9913,2.9913,2.9913,2.9913,2.9913,2.9913,2.9913,2.9913,2.9913,2.9913,2.9913,2.9913,2.9806,2.9593,0.0,2.9005,2.8698,2.8417,2.8301,2.8221,2.8221,2.8221,2.8221,2.8221,2.8221,2.8221,2.8221,2.8221,2.8221,2.8221,2.8221,2.7936,2.7669,2.7482,2.7428,2.7428,2.7428,2.7215,2.6894,2.6533,2.6052,2.5638,2.5451,2.509,2.4863,2.5037,2.4836,2.4636,2.4636,2.4636,2.4569,2.4396,2.4369,2.4262,2.3968,2.3768,2.3621,2.3514,2.322,2.3033,2.3033,2.2926,2.2928,2.2928,2.2928,2.2928,2.2928,2.2928,2.2726,2.2432,2.2245,2.2004,2.1775,2.1416,2.1029,2.0561,2.0638,2.0449,0.0,2.7829,2.9005,2.843,2.7883,2.7108,2.5705,2.4756,0.0,2.3115,2.2928,2.2941,2.2886,2.2873,2.2979,2.3327,2.3367,2.3674,2.4596,2.5571,2.6907,2.8898,2.9873,3.0368,3.0301,3.0341,3.0354,3.0327,3.0074,2.9913,2.9913,2.9913,2.9913,2.9913,2.9913,2.9913,2.9913,2.9913,2.9913,2.9913,2.9913,2.9913,2.9913,2.99,2.99,0.0,2.9593,2.9312,2.9045,2.8738,2.843,2.8261,2.8234,2.8221,2.8221,2.8221,2.8221,2.8221,2.8221,2.8221,2.8221,2.8221,2.8221,2.8221,2.8221,2.7949,2.7736,2.7736,2.7736,2.7736,2.7736,2.7509,2.7295,2.7268,2.6627,2.6012,2.5999,2.5545,2.5144,2.5144,2.489,2.4676,2.4676,2.4649,2.4636,2.4636,2.4636,2.4543,2.4262,2.4222,2.4102,2.3834,2.3541,2.3354,2.3327,2.3046,2.2928,2.2928,2.2928,2.2928,2.2928,2.2928,2.2726,2.2432,2.2378,2.2218,2.1951,2.1748,2.1403,2.1096,2.0891,2.0596,2.4022,0.0,2.5692,2.5331,2.5291,2.5144,0.0,2.4022,2.3674,2.3075,2.2928,2.2939,2.318,2.302,2.3113,2.3875,2.3808,2.4128,2.5464,2.7188,2.8751,2.9913,3.0434,3.0421,2.9753,3.01,3.0261,3.0034,2.9953,2.9913,2.9913,2.9913,2.9913,2.9913,2.9913,2.9913,2.9913,2.9913,2.9913,2.9913,2.9913,2.9913,2.9913,2.9686,2.9713,2.9887,2.9366,2.9232,2.9339,2.8818,2.8564,2.847,2.8315,2.8221,2.8221,2.8221,2.8221,2.8221,2.8221,2.8221,2.8221,2.8221,2.8221,2.8221,2.8221,2.8181,2.8043,2.8043,2.8043,2.8043,2.8043,2.7816,2.7535,2.7321,2.6934,2.656,2.6333,2.5999,2.5758,2.5758,2.5331,2.497,2.497,2.4783,2.4636,2.4636,2.4636,2.4609,2.4543,2.4342,2.4182,2.4115,2.3848,2.3581,2.334,2.3046,2.2928,2.2928,2.2928,2.2928,2.2928,2.2928,2.2726,2.2432,2.1977,2.1789,2.1722,2.1655,2.1403,2.1109,2.1294,2.1094,2.3113,2.3955,2.4836,2.481,2.4823,2.4716,2.4275,2.3861,2.3434,2.2966,2.2928,2.2913,2.3086,2.3086,2.3233,2.3728,2.3781,2.4329,2.5932,2.7348,2.8711,3.0007,3.0181,3.0114,2.9913,3.0047,3.0087,2.9927,2.9913,2.9913,2.9913,2.9913,2.9913,2.9913,2.9913,2.9913,2.9913,2.9913,2.9913,2.9913,2.9913,2.9913,2.9913,2.9753,2.9766,2.9887,2.9432,2.9259,2.9245,2.8791,2.8524,2.8377,2.8288,2.8221,2.8221,2.8221,2.8221,2.8221,2.8221,2.8221,2.8221,2.8221,2.8221,2.8221,2.8221,2.8221,2.8221,2.8221,2.8221,2.8221,2.8221,2.7923,2.7655,2.7495,2.7241,2.6947,2.6653,2.6253,2.5919,2.5785,2.5277,2.4877,2.4877,2.4743,2.469,2.4823,2.4836,2.489,2.5024,2.4783,2.4609,2.4609,2.4222,2.3901,2.3741,2.3327,2.302,2.2941,2.2928,2.2928,2.2928,2.2928,2.2726,2.2432,2.2111,2.1817,2.1614,2.1614,2.1403,2.1109,2.1299,2.1186,2.3048,2.3981,2.5037,2.5157,2.5064,2.4863,2.4569,2.3901,2.326,2.3046,2.3035,2.2953,2.3062,2.322,2.3394,2.3394,2.3794,2.473,2.6547,2.7255,2.8177,2.9726,2.974,2.9766,3.0127,3.0007,2.9913,2.9913,2.9913,2.9913,2.9913,2.9913,2.9913,2.9913,2.9913,2.9913,2.9913,2.9913,2.9913,2.9913,2.9913,2.9913,2.9913,2.9873,2.9873,2.99,2.9566,0.0,2.9085,2.8751,2.8457,2.8301,2.8248,2.8221,2.8221,2.8221,2.8221,2.8221,2.8221,2.8221,2.8221,2.8221,2.8221,2.8221,2.8221,2.8221,2.8221,2.8221,2.8221,2.8221,2.8221,2.7949,2.7762,2.7762,2.7575,2.7335,2.7081,2.6573,2.6066,2.5772,2.5237,2.4823,2.4783,2.477,2.485,2.5104,2.5144,2.5237,2.5478,2.5291,2.5144,2.5144,2.4663,2.4302,2.4209,2.3701,2.3247,2.2954,2.2928,2.2928,2.2928,2.2928,2.2726,2.2432,2.2418,2.2151,2.1681,2.1681,2.147,2.1176,2.1176,2.1149,2.3487,2.4155,2.4529,2.3834,2.4008,2.4262,2.3968,2.3607,2.338,2.3594,2.3434,2.334,2.3581,2.3674,2.3701,2.3701,2.4783,2.6319,2.835,2.8925,2.9339,2.986,3.01,2.9967,2.9312,2.9646,2.9913,2.9913,2.9913,2.9913,2.9913,2.9913,2.9913,2.9913,2.9913,2.9913,2.9913,2.9913,2.9913,2.9913,2.9913,2.9913,2.9913,2.9659,2.9686,2.9887,0.0,2.9219,2.9379,2.8831,2.8577,2.8511,2.8328,2.8221,2.8221,2.8221,2.8221,2.8221,2.8221,2.8221,2.8221,2.8221,2.8221,2.8221,2.8221,2.8221,2.8221,2.8221,2.8221,2.8221,2.8221,2.8194,2.8154,2.8154,2.8127,2.8087,2.8033,2.7564,2.6974,2.668,2.6146,2.5678,2.5424,2.5371,2.5398,2.5438,2.5451,2.5464,2.5504,2.5478,2.5451,2.5451,2.5144,2.4743,2.4249,2.3901,2.346,2.2899,2.2928,2.2928,2.2928,2.2928,2.2726,2.2432,2.2418,2.2258,2.1924,2.1924,2.1764,2.1547,2.1547,2.1349,2.3276,2.3834,2.4235,2.35,2.4008,2.4636,2.4502,2.4008,2.3647,2.3941,2.3768,2.3554,2.3527,2.4048,2.469,2.5317,2.6119,2.7001,2.7949,2.8337,2.8698,2.9152,2.9472,2.9606,2.9526,2.9753,2.9913,2.9913,2.9913,2.9913,2.9913,2.9913,2.9913,2.9913,2.9913,2.9913,2.9913,2.9913,2.9913,2.9913,2.9913,2.9913,2.9913,2.978,2.9793,2.9887,0.0,2.9259,2.9205,2.8778,2.8511,2.8337,2.8288,2.8221,2.8221,2.8221,2.8221,2.8221,2.8221,2.8221,2.8221,2.8221,2.8221,2.8221,2.8221,2.8221,2.8221,2.8221,2.8221,2.8221,2.8221,2.8221,2.8221,2.8221,2.8221,2.8181,2.7936,2.7562,2.7175,2.6881,2.636,2.5919,2.5772,2.5625,2.5571,2.5732,2.5758,2.5812,2.5972,2.5852,2.5692,2.5531,2.5251,2.4903,2.4476,2.4168,2.3674,2.2981,2.2928,2.2928,2.2928,2.2928,2.2806,2.2659,2.2659,2.2512,2.2218,2.2218,2.2071,2.179,2.179,2.176,2.3033,2.3621,2.4115,2.3728,2.4315,2.4997,2.5064,2.4502,2.4102,2.4529,2.4329,2.3968,2.3607,2.4382,2.5504,2.6814,2.7335,2.7655,2.7856,2.8083,2.839,2.8858,2.9112,2.9419,2.9873,2.9913,2.9913,2.9913,2.9913,2.9913,2.9913,2.9913,2.9913,2.9913,2.9913,2.9887,2.982,2.982,2.982,2.982,2.9887,2.9887,2.982,2.982,2.982,2.9793,2.9513,2.9205,2.8925,2.8698,2.843,2.8221,2.8221,2.8221,2.8221,2.8221,2.8221,2.8221,2.8221,2.8221,2.8221,2.8221,2.8221,2.8221,2.8221,2.8221,2.8221,2.8221,2.8221,2.8221,2.8221,2.8221,2.8221,2.8221,2.8221,2.814,2.7762,2.7522,2.7255,2.6894,2.6466,2.6132,2.6066,2.5865,2.5798,2.6026,2.6052,2.6132,2.636,2.6199,2.5945,2.5651,2.5358,2.501,2.4569,2.4262,2.3781,2.302,2.2899,2.2928,2.2928,2.2928,2.2928,2.2928,2.2928,2.2752,2.2525,2.2525,2.2378,2.2084,2.2084,2.2121,2.3554,2.3955,2.4262,2.4489,2.4609,2.4743,2.5024,2.4823,2.481,2.5651,2.5384,2.481,2.4249,2.4649,2.5638,2.7362,2.8123,2.8791,2.9606,2.974,2.978,2.982,2.9833,2.9873,2.9913,2.9913,2.9913,2.9913,2.9913,2.9913,2.9913,2.9913,2.9913,2.9913,2.9913,2.978,2.9513,2.9513,2.9513,2.9526,2.978,2.978,2.9513,2.9513,2.9513,2.9499,2.9205,2.8911,2.8631,2.8617,2.843,2.8221,2.8221,2.8221,2.8221,2.8221,2.8221,2.8221,2.8221,2.8221,2.8221,2.8221,2.8221,2.8221,2.8221,2.8221,2.8221,2.8221,2.8221,2.8221,2.8221,2.8221,2.8221,2.8221,2.8221,2.814,2.7762,2.7682,2.7495,2.6934,2.6787,2.668,2.64,2.6346,2.6333,2.636,2.636,2.636,2.6386,2.6373,2.6253,2.5959,2.5651,2.5144,2.4302,2.3968,2.3661,2.3313,2.302,2.2928,2.2928,2.2928,2.2928,2.2928,2.2928,2.2914,2.2832,2.2832,2.2672,2.2392,2.2392,2.2431,2.3434,2.3714,2.3915,2.3834,2.3968,2.4409,2.5611,2.5531,2.5438,2.6306,2.6319,2.5985,2.5398,2.5772,2.6507,2.7535,2.8671,2.9539,2.9873,2.9913,2.9913,2.9913,2.9913,2.9913,2.9913,2.9913,2.9913,2.9913,2.9913,2.9913,2.9913,2.9913,2.9913,2.9913,2.974,2.9593,2.9486,2.9299,2.9112,2.8938,2.9232,2.9499,2.974,2.9379,2.9312,2.9459,2.8978,2.8711,2.8591,2.8404,2.8243,2.8221,2.8221,2.8221,2.8221,2.8221,2.8221,2.8221,2.8221,2.8221,2.8221,2.8221,2.8221,2.8221,2.8221,2.8221,2.8221,2.8221,2.8221,2.8221,2.8221,2.8221,2.8221,2.8221,2.8221,2.814,2.7762,2.7843,2.7856,2.7442,2.7228,2.7068,2.6947,2.6627,2.6386,2.6386,2.6386,2.6386,2.6386,2.6386,2.6213,2.5732,2.5251,2.4836,2.4502,2.4209,2.3995,2.3875,2.342,2.306,2.2941,2.2928,2.2928,2.2928,2.2928,2.2928,2.2928,2.2928,2.2806,2.2699,2.2889,2.3078,2.3327,2.3474,2.3607,2.3487,2.3554,2.4142,2.6079,2.6213,2.6226,2.7308,2.6934,2.64,2.6373,2.6547,2.7001,2.7963,2.9125,2.9953,3.0047,2.998,2.9913,2.9913,2.9913,2.9913,2.9913,2.9913,2.9913,2.9913,2.9833,2.982,2.9913,2.974,2.9686,2.978,2.9499,2.9299,2.9205,2.9005,2.8804,2.8604,2.8711,2.9018,2.9486,2.9085,2.9018,2.9179,2.8684,2.8457,2.8444,2.8315,2.8221,2.8221,2.8221,2.8221,2.8221,2.8221,2.8221,2.8221,2.8221,2.8221,2.8221,2.8221,2.8221,2.8221,2.8221,2.8221,2.8221,2.8221,2.8221,2.8207,2.8114,2.8154,2.8221,2.8221,2.8221,2.8114,2.7642,2.7869,2.8003,2.7522,2.7335,2.7241,2.7134,2.672,2.6386,2.6386,2.6386,2.6386,2.6386,2.6386,2.6159,2.5571,2.4983,2.4636,2.4636,2.4449,2.4302,2.4209,2.3821,2.342,2.3033,2.3006,2.2966,2.2928,2.2928,2.2928,2.2928,2.2928,2.2928,2.3065,2.327,2.3569,2.3327,2.3327,2.3394,2.3701,2.3554,2.3955,2.6293,2.6827,2.7241,2.8738,2.7175,2.5892,2.7054,2.68,2.6987,2.8751,2.9526,3.002,3.0314,3.01,2.9913,2.9913,2.9913,2.9913,2.9913,2.9913,2.9913,2.9913,2.9646,2.9606,2.99,2.9352,2.9179,2.9472,2.9192,2.8898,2.8604,2.8604,2.8604,2.8604,2.8283,2.831,2.8604,2.8604,2.8604,2.8591,2.8283,2.8221,2.8221,2.8221,2.8221,2.8221,2.8221,2.8221,2.8221,2.8221,2.8221,2.8221,2.8221,2.8221,2.8221,2.8221,2.8221,2.8221,2.8221,2.8221,2.8221,2.8221,2.8221,2.8154,2.7776,2.7923,2.8221,2.8221,2.8221,2.806,2.7388,2.7805,2.7883,2.6987,2.7068,2.7175,2.6867,2.6587,2.6386,2.6386,2.6386,2.6386,2.6386,2.6386,2.6159,2.5585,2.4983,2.4562,2.4562,2.4636,2.4516,2.4222,2.4209,2.3941,2.3354,2.3327,2.318,2.2941,2.2928,2.2928,2.2928,2.2928,2.3065,2.3406,2.3406,2.3816,2.306,2.3006,2.3126,2.3647,2.4168,2.5064,2.7001,2.6961,2.7054,2.8965,2.8123,2.7215,2.7776,2.7923,2.8056,2.8364,2.9259,2.994,3.0034,2.9967,2.9913,2.9913,2.9913,2.9913,2.9913,2.9913,2.9833,2.9633,2.9726,2.9646,2.9312,2.9339,2.9299,2.9179,2.8885,2.8698,2.8604,2.839,2.8283,2.8283,2.8274,2.8417,2.8898,2.847,2.8404,2.8591,2.8283,2.8221,2.8221,2.8221,2.8221,2.8221,2.8221,2.8221,2.8221,2.8221,2.8221,2.8221,2.8221,2.8221,2.8221,2.8221,2.8221,2.8221,2.8221,2.8221,2.8221,2.8221,2.8221,2.8207,2.8114,2.7923,2.7829,2.7829,2.7829,2.7722,2.7348,2.7562,2.7629,2.6947,2.7068,2.7175,2.6867,2.6587,2.6386,2.6386,2.6386,2.6386,2.6386,2.6213,2.6012,2.5838,2.5304,2.4943,2.4943,2.4756,2.4596,2.4516,2.4502,2.4249,2.3661,2.3434,2.3287,2.3193,2.2979,2.2928,2.2928,2.2928,2.3065,2.3406,2.3679,2.4088,2.3247,2.3046,2.3155,2.4048,2.4596,2.5424,2.7415,2.7923,2.8323,2.9579,2.8791,2.8043,2.8577,2.8537,2.847,2.8644,2.9379,2.9913,2.9913,2.9913,2.9913,2.9913,2.9913,2.9913,2.9913,2.9913,2.9793,2.9499,2.9539,2.9406,2.9058,2.8978,2.8925,2.8871,2.8577,2.8417,2.8417,2.8315,2.8221,2.8221,2.8221,2.8337,2.8671,2.831,2.8328,2.8417,2.8315,2.8221,2.8221,2.8221,2.8221,2.8221,2.8221,2.8221,2.8221,2.8221,2.8221,2.8221,2.8221,2.8221,2.8221,2.8221,2.8221,2.8221,2.8221,2.8221,2.8221,2.8221,2.8221,2.8207,2.8003,2.7923,2.7883,2.7883,2.7696,2.7482,2.7308,2.7402,2.7348,2.676,2.6881,2.7001,2.6694,2.6507,2.6386,2.6386,2.6386,2.6386,2.6386,2.6132,2.6037,2.6037,2.5531,2.5251,2.5251,2.4983,2.481,2.481,2.4703,2.4476,2.4128,2.3834,2.3567,2.3327,2.314,2.2993,2.2928,2.2928,2.3065,2.3406,2.3816,2.417,2.3621,2.334,2.3327,2.477,2.5077,2.5611,2.7802,2.9352,3.0314,3.0314,2.9333,2.865,2.9406,2.8871,2.8564,2.9392,2.974,2.9913,2.9913,2.9913,2.9913,2.9913,2.9913,2.9913,2.9913,2.9887,2.9753,2.9459,2.9192,2.9018,2.8965,2.847,2.831,2.8564,2.8283,2.8221,2.8221,2.8221,2.8221,2.8221,2.8221,2.8221,2.8221,2.8221,2.8221,2.8221,2.8221,2.8221,2.8221,2.8221,2.8221,2.8221,2.8221,2.8221,2.8221,2.8221,2.8221,2.8221,2.8221,2.8221,2.8221,2.8221,2.8221,2.8221,2.8221,2.8221,2.8221,2.8221,2.8207,2.8043,2.7762,2.7883,2.814,2.814,2.7738,2.7268,2.7268,2.7241,2.7068,2.6533,2.664,2.6734,2.644,2.6386,2.6386,2.6386,2.6386,2.6386,2.6386,2.6159,2.6077,2.6077,2.5732,2.5558,2.5558,2.5291,2.5117,2.5117,2.4836,2.4676,2.4676,2.4369,2.3941,2.338,2.334,2.318,2.2928,2.2928,2.3065,2.3406,2.3816,2.417,2.3113,2.3474,2.4155,2.517,2.676,2.835,2.9312,2.978,3.0007,3.0007,2.9753,2.9659,3.0087,2.982,2.9593,2.9793,2.9873,2.9913,2.9913,2.9913,2.9913,2.9913,2.9913,2.9913,2.9913,2.9713,2.9446,2.9152,2.9072,2.8831,2.8364,2.8444,2.843,2.8243,2.8261,2.8221,2.8221,2.8221,2.8221,2.8221,2.8221,2.8221,2.8221,2.8221,2.8221,2.8221,2.8221,2.8221,2.8221,2.8221,2.8221,2.8221,2.8221,2.8221,2.8221,2.8221,2.8221,2.8221,2.8221,2.8221,2.8221,2.8221,2.8221,2.8221,2.8221,2.8221,2.8221,2.8221,2.7976,2.7776,2.7709,2.7575,2.7455,2.7455,2.7362,2.7268,2.7268,2.7081,2.6881,2.6747,2.6774,2.6734,2.644,2.6386,2.6386,2.6386,2.6386,2.6386,2.6386,2.6333,2.6293,2.6293,2.6039,2.5865,2.5865,2.5585,2.5424,2.5424,2.5144,2.4983,2.4983,2.4476,2.4035,2.3688,2.3447,2.318,2.2928,2.2928,2.3065,2.3406,2.3816,2.417,2.33,2.3941,2.497,2.6413,2.803,2.9366,2.982,2.9806,2.9753,2.9887,2.9913,2.9967,3.0114,3.002,2.9913,2.9913,2.9913,2.9913,2.9913,2.9793,2.9766,2.99,2.9673,2.9553,2.97,2.9446,2.9152,2.8858,2.8831,2.8631,2.8248,2.8163,2.8096,2.7936,2.7936,2.7936,2.7936,2.7936,2.8003,2.8221,2.7939,2.7805,2.7819,2.81,2.8221,2.8221,2.8221,2.8221,2.8221,2.8221,2.8221,2.8221,2.8221,2.8221,2.8221,2.8221,2.8221,2.8221,2.8221,2.8221,2.8221,2.8221,2.8221,2.8221,2.8221,2.8221,2.8194,2.7963,2.7816,2.7669,2.7522,2.7375,2.7228,2.7094,2.7054,2.7054,2.7054,2.6827,2.6613,2.6613,2.6613,2.656,2.6413,2.6386,2.6386,2.6386,2.6386,2.6386,2.6386,2.6386,2.6386,2.6386,2.6253,2.6159,2.6159,2.5892,2.5665,2.5518,2.5237,2.5024,2.4877,2.4569,2.4209,2.3781,2.3621,2.3313,2.2928,2.2928,2.2996,2.3201,2.3543,2.3816,2.3688,2.4556,2.5812,2.7698,2.8738,2.9472,2.9713,2.9619,2.9553,2.9793,2.9887,2.9913,2.9913,2.9913,2.9913,2.9913,2.9913,2.99,2.9847,2.9633,2.9553,2.974,2.9339,2.9138,2.9379,2.9138,2.8871,2.8631,2.8564,2.839,2.8167,2.7829,2.7696,2.7696,2.7655,2.7642,2.7696,2.7696,2.7802,2.8073,2.7495,2.7268,2.7281,2.7859,2.8073,2.8073,2.8073,2.8073,2.8073,2.8073,2.81,2.814,2.81,2.81,2.8154,2.8154,2.8154,2.8154,2.8207,2.8194,2.8154,2.8207,2.8194,2.8154,2.8207,2.8194,2.81,2.7762,2.7629,2.7495,2.7255,2.7188,2.7108,2.6814,2.6787,2.6827,2.6827,2.66,2.64,2.6453,2.6426,2.6386,2.6386,2.6386,2.6386,2.6386,2.6386,2.6386,2.6386,2.6386,2.6386,2.6386,2.6386,2.6386,2.6386,2.6172,2.5919,2.5678,2.5344,2.505,2.4796,2.469,2.4369,2.3781,2.3768,2.3474,2.2928,2.2928,2.2928,2.2928,2.3338,2.3475,2.3688,2.5157,2.6774,2.7562,2.843,2.9112,2.9152,2.9325,2.9499,2.9539,2.974,2.9913,2.9913,2.9913,2.9913,2.9913,2.9913,2.9833,2.9579,2.9513,2.9406,2.9179,2.9085,2.9058,2.9098,2.8831,2.8644,2.8604,2.835,2.807,2.7776,2.7722,2.7696,2.7696,2.7455,2.7442,2.7696,2.7696,2.7589,2.7388,2.7308,2.7268,2.7268,2.7348,2.7388,2.7388,2.7388,2.7388,2.7388,2.7388,2.7535,2.7736,2.7482,2.7535,2.7762,2.7762,2.7762,2.7789,2.814,2.7976,2.7802,2.814,2.7963,2.7802,2.8154,2.7963,2.7749,2.7709,2.7335,2.6934,2.6894,2.6881,2.6814,2.652,2.664,2.6827,2.6827,2.66,2.6466,2.6707,2.656,2.6386,2.6386,2.6386,2.6386,2.6386,2.6386,2.6386,2.6386,2.6386,2.6386,2.6386,2.6386,2.6386,2.6386,2.636,2.6319,2.6279,2.5758,2.5438,2.5398,2.4903,2.4369,2.3781,2.3768,2.3474,2.2928,2.2928,2.2928,2.2928,2.3611,2.3747,2.489,2.5772,2.668,2.8096,2.8497,2.8631,2.8965,2.9018,2.9032,2.9205,2.9472,2.9726,2.9887,2.9913,2.986,2.97,2.9673,2.9566,2.9272,2.9098,2.9005,2.9032,2.8738,2.8604,2.8778,2.8524,2.835,2.835,2.807,2.7843,2.7709,2.7388,2.7215,2.7215,2.7081,2.7081,2.7201,2.7215,2.7068,2.6774,2.6934,2.6934,2.6774,2.6774,2.6961,2.7268,2.7268,2.7268,2.7268,2.7268,2.7348,2.7442,2.7321,2.7348,2.7468,2.7642,2.7696,2.7749,2.8043,2.7949,2.7749,2.8127,2.7936,2.7722,2.7856,2.7802,2.7629,2.7295,2.7028,2.6787,2.6613,2.6587,2.6547,2.6413,2.6493,2.6627,2.6787,2.66,2.6426,2.656,2.648,2.6386,2.6386,2.6386,2.6386,2.6386,2.6386,2.6386,2.6386,2.6386,2.6386,2.6386,2.6386,2.6386,2.6386,2.6386,2.6253,2.5919,2.5651,2.5371,2.5037,2.477,2.4436,2.4022,2.3848,2.3474,2.2928,2.2928,2.2928,2.2928,2.3406,2.3543,2.5291,2.5785,2.6226,2.7856,2.8083,2.8043,2.8484,2.8484,2.843,2.8657,2.8938,2.9232,2.9526,2.97,2.9713,2.9419,2.9366,2.9272,2.8965,2.8751,2.8657,2.8791,2.835,2.815,2.8457,2.8217,2.803,2.803,2.7829,2.7629,2.7482,2.7054,2.6827,2.6827,2.6747,2.6747,2.6827,2.668,2.656,2.6507,2.6573,2.6533,2.6386,2.6386,2.6627,2.7041,2.7041,2.7041,2.7041,2.7041,2.7081,2.7148,2.7068,2.7134,2.7295,2.7509,2.7629,2.7736,2.7949,2.7843,2.7629,2.7926,2.7722,2.7495,2.7562,2.7535,2.7388,2.6947,2.6774,2.6667,2.6453,2.6386,2.6386,2.6386,2.6386,2.6453,2.6667,2.66,2.6493,2.6493,2.644,2.644,2.6587,2.6547,2.6493,2.6493,2.6493,2.6466,2.64,2.6386,2.6386,2.6386,2.6386,2.6386,2.6386,2.6386,2.6172,2.5651,2.5558,2.5277,2.477,2.4676,2.4502,2.4209,2.3995,2.3581,2.2979,2.2899,2.2928,2.2928,2.3338,2.3475,2.3808,2.4703,2.5625,2.6026,2.672,2.7321,2.7348,2.7562,2.7749,2.7762,2.8003,2.831,2.8617,2.9125,2.9406,2.9112,2.9058,2.8965,2.8671,2.8617,2.8497,2.8301,2.7909,2.7843,2.8221,2.7896,2.7722,2.7722,2.7709,2.7455,2.6894,2.6841,2.6827,2.6827,2.656,2.6547,2.6814,2.6279,2.6266,2.6787,2.6253,2.6132,2.6386,2.6386,2.6413,2.644,2.644,2.644,2.644,2.644,2.66,2.6814,2.6547,2.6774,2.7268,2.7281,2.7468,2.7696,2.7722,2.7535,2.7295,2.7308,2.7108,2.6921,2.7201,2.7094,2.6867,2.6827,2.6627,2.6413,2.6386,2.6386,2.6386,2.6386,2.6386,2.6386,2.6413,2.6613,2.68,2.68,2.6573,2.656,2.7121,2.6987,2.68,2.68,2.68,2.6694,2.6426,2.6386,2.6386,2.6386,2.6386,2.6386,2.6386,2.6386,2.6266,2.5959,2.5665,2.5371,2.5064,2.4783,2.4502,2.4209,2.4195,2.3888,2.33,2.3006,2.2928,2.2928,2.3611,2.3747,2.3861,2.4222,2.4649,2.5692,2.6333,2.6747,2.6934,2.7348,2.7642,2.7455,2.7655,2.7843,2.7762,2.823,2.8591,2.8484,2.847,2.8297,2.7816,2.807,2.8123,2.7725,2.7655,2.7669,2.7671,2.7482,2.7415,2.7415,2.7241,2.7041,2.6827,2.664,2.6547,2.6547,2.644,2.644,2.6547,2.6159,2.6066,2.6266,2.6052,2.609,2.6119,2.6306,2.6386,2.6373,2.6186,2.6213,2.6386,2.6386,2.6453,2.6533,2.6426,2.652,2.672,2.6907,2.7175,2.7442,2.7629,2.7509,2.7295,2.7482,2.7215,2.6841,2.6947,2.6907,2.6787,2.66,2.6466,2.6386,2.6386,2.6386,2.6386,2.6386,2.6533,2.6667,2.6667,2.6894,2.7108,2.7108,2.6867,2.68,2.7201,2.7014,2.6894,2.7081,2.7108,2.7001,2.6707,2.6667,2.66,2.6413,2.6386,2.6386,2.6386,2.6386,2.6266,2.605,2.5678,2.5384,2.509,2.4796,2.4583,2.4489,2.4302,2.4008,2.3607,2.3313,2.3153,2.3153,2.3708,2.3898,2.3714,2.3848,2.4102,2.5464,2.5879,2.6106,2.6694,2.6894,2.6961,2.6974,2.7041,2.7108,2.7121,2.7281,2.7591,2.7886,2.7762,2.7602,2.7308,2.7685,2.7792,2.7308,2.7348,2.7362,2.7281,2.7175,2.7121,2.7121,2.6934,2.6774,2.668,2.6493,2.6386,2.6386,2.6386,2.6346,2.6239,2.5959,2.5812,2.5812,2.5812,2.5865,2.605,2.6253,2.6333,2.6239,2.6117,2.6119,2.6386,2.6279,2.6306,2.6386,2.6386,2.6453,2.656,2.6747,2.7014,2.7295,2.7482,2.7362,2.7148,2.7335,2.7081,2.668,2.668,2.668,2.664,2.644,2.6386,2.6386,2.6386,2.6386,2.6386,2.6386,2.6613,2.6827,2.6827,2.7054,2.7295,2.7388,2.7175,2.7094,2.7495,2.7308,2.7188,2.7375,2.7415,2.7308,2.7014,2.6974,2.6854,2.656,2.6533,2.6493,2.64,2.6386,2.6266,2.605,2.5772,2.5491,2.509,2.489,2.4743,2.4562,2.4449,2.4321,2.4278,2.3873,2.3617,2.3662,2.4149,2.4337,0.0,0.0,0.0,2.517,2.5251,2.5358,2.6493,2.6106,2.5678,2.6253,2.6146,2.6132,2.6694,2.6333,2.6226,2.7081,2.6974,2.6894,2.7175,2.7228,2.7228,2.7215,2.6961,2.6907,2.7201,2.6961,2.68,2.6814,2.6814,2.668,2.6386,2.6373,2.6373,2.6386,2.6373,2.6239,2.6037,2.5651,2.5504,2.5504,2.5504,2.5651,2.5945,2.6226,2.6213,2.6023,2.6023,2.6106,2.636,2.6079,2.6132,2.6386,2.6386,2.656,2.6814,2.6814,2.7001,2.7268,2.7255,2.7068,2.6827,2.6827,2.6627,2.6386,2.6386,2.6386,2.6386,2.6386,2.6386,2.6386,2.6386,2.6386,2.6386,2.6386,2.6613,2.6827,2.6827,2.7068,2.7362,2.7642,2.7468,2.7455,2.8127,2.7896,2.7696,2.7709,2.7709,2.7602,2.7321,2.7281,2.7161,2.6867,2.6827,2.6707,2.6426,2.6386,2.6266,2.6063,2.6037,2.5782,2.513,2.509,2.4943,2.4649,2.4636,2.4784,2.5226,2.461,2.4384,2.4442,2.4844,2.5016,2.2966,0.0,0.0,0.0,0.0,0.0,2.485,2.5237,2.5558,2.5718,2.5865,2.609,2.6159,2.5892,2.5718,2.5959,2.6106,2.6146,2.6012,2.636,2.648,2.6052,2.6119,2.6226,2.6385,2.6239,2.6279,0.0,2.6507,2.6386,2.6092,2.5879,2.5945,2.6373,2.5972,2.5825,2.6037,2.5451,2.5197,2.5197,2.5197,2.5237,2.5331,2.5625,2.5705,2.5638,2.5638,2.5798,2.6066,2.6063,2.6132,2.6386,2.6386,2.644,2.6507,2.6507,2.6827,2.7241,2.7014,2.7028,2.7108,2.6894,2.6627,2.6386,2.6386,2.6386,2.6386,2.6386,2.6386,2.6386,2.6386,2.6386,2.6386,2.6386,2.6613,2.6881,2.7094,2.7375,2.7602,2.7682,2.7468,2.7455,2.8127,2.7896,2.7776,2.8073,2.8016,2.7909,2.7615,2.7575,2.7468,2.7175,2.6947,2.6787,2.6707,2.6507,2.636,2.6279,2.6079,2.5956,2.5795,2.5304,2.5037,2.4957,2.4743,2.4931,2.5653,2.496,2.4798,2.5143,2.5043,2.5016,2.2899,2.2928,2.2993,2.3554,0.0,0.0,2.4636,2.505,2.5371,2.5491,2.5745,2.6037,2.6037,2.5812,2.5692,2.5692,2.5638,2.5531,2.5358,2.5732,2.5798,2.5211,2.5411,2.5585,2.5585,2.5585,2.5705,2.5999,2.6132,2.6186,2.6146,2.5745,2.5732,2.6199,2.5758,2.5531,2.5585,2.5251,2.5024,2.489,2.5024,2.5077,2.509,2.5384,2.5451,2.5344,2.5464,2.5611,2.5785,2.5905,2.6132,2.6386,2.6386,2.6386,2.6386,2.6386,2.66,2.6894,2.6841,2.6854,2.6894,2.6841,2.6627,2.6386,2.6386,2.6386,2.6386,2.6386,2.6386,2.6386,2.6386,2.6386,2.6413,2.6547,2.6694,2.6867,2.7041,2.7308,2.7589,2.7843,2.7749,2.7819,2.8167,2.8003,2.7936,2.8207,2.8221,2.8114,2.7736,2.7696,2.7535,2.7121,2.7041,2.6907,2.6667,2.66,2.652,2.64,2.6226,2.6079,2.6037,2.5625,2.5384,2.5264,2.497,2.5127,2.58,2.5399,2.5464,2.5841,2.5552,2.5357,2.3046,2.2979,2.3193,2.3928,2.4008,0.0,2.5064,2.517,2.5144,0.0,2.5651,2.5929,2.5929,2.5892,2.5892,2.5825,2.5424,2.5117,2.5077,2.5277,2.5211,2.4649,2.4823,2.4997,2.5024,2.4997,2.5117,2.5438,2.5678,2.5945,2.6279,2.5732,2.5571,2.5892,2.5585,2.5304,2.5077,2.505,2.4903,2.4562,2.4903,2.5037,2.5037,2.5331,2.5331,2.5104,2.5424,2.5558,2.5585,2.5879,2.6159,2.6386,2.6386,2.6386,2.6386,2.6386,2.6413,2.6466,2.6694,2.6627,2.648,2.6694,2.66,2.6386,2.6386,2.6386,2.6386,2.6386,2.6386,2.6386,2.6386,2.6386,2.6466,2.6747,2.6854,2.6881,2.6907,2.7148,2.7591,2.8087,2.8181,2.8194,2.8221,2.8221,2.8221,2.8221,2.8221,2.8114,2.7736,2.7696,2.7482,2.6934,2.7081,2.7001,2.648,2.664,2.6667,2.6413,2.6386,2.6279,2.6012,2.605,2.5825,2.5571,2.5326,2.5391,2.5842,2.5887,2.6155,2.65,2.6208,2.59,2.3674,2.3768,2.3875,2.3567,2.4168,0.0,2.3915,2.4436,2.5024,0.0,2.505,2.5251,2.5251,2.5438,2.5451,2.497,2.5197,2.5344,2.5117,2.4917,2.4676,2.4329,2.4342,2.4462,2.4703,2.4516,2.4596,2.5117,2.4997,2.513,2.5651,2.513,2.505,2.5585,2.509,2.489,2.5077,2.4836,2.469,2.4636,2.469,2.4716,2.473,2.5024,2.513,2.5104,2.5638,2.5865,2.5892,2.6186,2.6333,2.6386,2.6386,2.6386,2.6386,2.6386,2.6533,2.6707,2.6533,2.6587,2.6707,2.6533,2.644,2.6386,2.6386,2.6386,2.6386,2.6386,2.6386,2.6386,2.6386,2.6386,2.6466,2.6747,2.7001,2.7241,2.7482,2.7762,2.802,2.7816,2.7789,2.7856,2.8181,2.8221,2.8221,2.8221,2.8221,2.8114,2.7736,2.7696,2.7562,2.7215,2.7014,2.6867,2.6747,2.6573,2.6453,2.6386,2.6386,2.636,2.6306,2.6079,2.601,2.5865,2.5661,2.58,2.6089,2.6587,2.6677,2.65,2.6442,2.6237,2.3968,2.3875,2.3981,2.3981,2.4209,0.0,0.0,2.4436,2.4636,2.4636,2.4877,2.5077,2.5077,2.5317,2.5518,2.5504,2.5518,2.5558,2.5718,2.5224,2.4636,2.4062,2.4115,2.4209,2.4209,2.4075,2.4168,2.4609,2.4502,2.4609,2.505,2.4796,2.477,2.5064,2.4783,2.4703,2.4863,2.4716,2.4716,2.485,2.4703,2.4716,2.4863,2.501,2.5077,2.5117,2.5782,2.6037,2.605,2.6266,2.6386,2.6386,2.6386,2.6386,2.6386,2.6386,2.648,2.6587,2.644,2.648,2.6587,2.644,2.6386,2.6386,2.6386,2.6386,2.6386,2.6386,2.6386,2.6386,2.6386,2.6493,2.668,2.6974,2.7268,2.7522,2.7669,2.7936,2.814,2.7762,2.7816,2.7923,2.7923,2.8127,2.8221,2.8221,2.8221,2.8114,2.7736,2.7696,2.7535,2.7094,2.7041,2.6921,2.6627,2.66,2.6547,2.64,2.6386,2.6386,2.6386,2.6253,2.6039,2.5745,2.5832,2.5896,2.6024,2.6471,2.6678,2.6749,2.6749,2.6574,2.4636,2.4436,2.4556,2.469,2.4623,2.4596,0.0,0.0,0.0,2.4609,2.4823,0.0,0.0,0.0,0.0,2.5985,0.0,0.0,0.0,2.5598,0.0,2.4102,2.4235,2.4262,2.3968,2.3834,2.3848,2.4022,2.4035,2.4168,2.4449,2.4476,2.4476,2.4476,2.4529,2.4556,2.4556,2.4609,2.4756,2.4997,2.4756,2.4756,2.4997,2.505,2.5077,2.5117,2.5782,2.6037,2.605,2.6213,2.6333,2.6386,2.6386,2.6386,2.6386,2.6386,2.6386,2.6386,2.6386,2.6386,2.6386,2.6386,2.6386,2.6386,2.6386,2.6386,2.6386,2.6386,2.6426,2.6466,2.6466,2.6694,2.6987,2.7281,2.7522,2.7709,2.7776,2.7976,2.814,2.7762,2.7936,2.8154,2.7829,2.7989,2.8221,2.8221,2.8221,2.8114,2.7736,2.7696,2.7495,2.6961,2.7068,2.6987,2.6507,2.664,2.664,2.64,2.6386,2.6386,2.6386,2.6333,2.6079,2.5688,2.5873,2.6026,2.5957,2.6267,2.6619,2.6983,2.6983,2.6852,2.6587,2.6854,2.6894,2.5398,2.6146,2.6734,2.4756,0.0,2.5224,2.4669,0.0,2.469,2.469,0.0,0.0,0.0,0.0,0.0,2.5959,2.5464,2.5037,2.4943,2.4957,2.4863,2.4569,2.4075,2.3674,2.3447,2.342,2.3554,2.3848,2.3875,2.3875,2.3875,2.4115,2.4249,2.4249,2.4502,2.4649,2.469,2.4649,2.4649,2.469,2.4957,2.5077,2.5117,2.5782,2.6037,2.6037,2.5999,2.6159,2.6386,2.6386,2.6386,2.6386,2.6386,2.6386,2.6386,2.6386,2.6386,2.6386,2.6386,2.6386,2.6386,2.6386,2.6386,2.6386,2.6386,2.6573,2.6774,2.6774,2.6987,2.7295,2.7575,2.7669,2.7776,2.8114,2.8207,2.814,2.7762,2.7936,2.8221,2.8181,2.8207,2.8221,2.8221,2.8221,2.8114,2.7736,2.7696,2.7575,2.7255,2.7014,2.6841,2.6774,2.656,2.6426,2.6386,2.6386,2.6386,2.6386,2.6146,2.6128,2.6371,2.593,2.6065,2.6726,2.6455,2.6619,2.6983,2.6983,2.6969,2.8016,2.7795,2.7392,2.7102,2.6699,2.6172,2.5184,2.473,2.4529,2.4623,0.0,0.0,0.0,0.0,0.0,0.0,2.5211,0.0,0.0,0.0,2.5331,2.5331,0.0,0.0,2.4182,2.4369,2.4195,2.3394,2.3634,2.3741,2.3527,2.3674,2.3688,2.3514,2.3794,2.3955,2.3955,2.4235,2.4476,2.4636,2.4636,2.473,2.4903,2.5024,2.5077,2.5104,2.5518,2.5692,2.5692,2.5692,2.5772,2.5892,2.6066,2.6239,2.6386,2.6386,2.6386,2.6386,2.6386,2.6386,2.6386,2.6386,2.6386,2.6386,2.6386,2.6386,2.6386,2.6386,2.66,2.6827,2.6827,2.7161,2.7549,2.7669,2.7829,2.7989,2.8207,2.8221,2.8194,2.7976,2.814,2.8221,2.8221,2.8221,2.8221,2.8221,2.8221,2.8181,2.7976,2.7963,2.7843,2.7549,2.7402,2.7255,2.7094,2.6814,2.664,2.664,2.648,2.6465,2.6716,2.6673,2.6598,2.6613,2.6364,2.636,2.6586,2.6457,2.6619,2.6983,2.7913,2.8259,2.8434,2.808,2.7744,2.8115,2.7423,2.6598,2.6382,2.6115,2.6022,2.6302,2.6117,0.0,0.0,0.0,0.0,0.0,0.0,2.5344,0.0,2.5504,0.0,0.0,0.0,0.0,0.0,2.4796,2.4663,2.3647,2.3888,2.3861,2.3354,2.3607,2.3594,2.3207,2.3567,2.3768,2.3768,2.4062,2.4342,2.4636,2.4636,2.4756,2.4957,2.4957,2.4957,2.497,2.5264,2.5398,2.5398,2.5398,2.5438,2.5531,2.5745,2.6012,2.6279,2.636,2.6386,2.6386,2.6386,2.6386,2.6386,2.6386,2.6386,2.6386,2.6386,2.6386,2.6386,2.6386,2.66,2.6841,2.6921,2.7321,2.7722,2.7802,2.7989,2.8221,2.8221,2.8221,2.8221,2.8221,2.8221,2.8221,2.8221,2.8221,2.8221,2.8221,2.8221,2.8221,2.8221,2.8221,2.814,2.7843,2.7749,2.7575,2.7295,2.6987,2.6787,2.6867,2.6745,2.686,2.7175,2.7107,2.7079,2.7002,2.6833,2.6748,2.6675,2.6589,2.6692,2.7071,2.8114,2.8819,2.7403,2.7966,2.8406,2.7768,2.8515,2.9257,2.865,2.9955,3.1277,3.0867,3.0359,2.9922,2.9547,0.0,0.0,0.0,0.0,0.0,0.0,0.0,0.0,0.0,0.0,0.0,0.0,2.5398,2.4823,2.4222,2.3928,2.3647,2.334,2.3607,2.35,2.2968,2.346,2.3768,2.3768,2.4062,2.4342,2.4636,2.4636,2.4636,2.4649,2.4649,2.4649,2.4663,2.497,2.509,2.509,2.509,2.5264,2.5518,2.5518,2.5705,2.5999,2.6279,2.6386,2.6386,2.6386,2.6386,2.6386,2.6386,2.6386,2.6386,2.6386,2.6386,2.6386,2.6386,2.66,2.6894,2.7175,2.7468,2.7776,2.814,2.8221,2.8221,2.8221,2.8221,2.8221,2.8221,2.8221,2.8221,2.8221,2.8221,2.8221,2.8221,2.8221,2.8221,2.8221,2.8221,2.8221,2.8207,2.7869,2.7575,2.7295,2.6987,2.6867,2.698,2.7333,2.7555,2.7555,2.7353,2.734,2.7788,2.7201,2.7095,2.7466,2.7144,2.6983,2.6983,2.7056,2.784,2.9299,2.9198,2.9026,2.9877,2.9628,2.9311,2.9352,3.0543,3.151,3.1065,3.1714,3.2124,3.1465,0.0,0.0,0.0,0.0,0.0,0.0,0.0,0.0,2.513,2.5491,2.5358,0.0,0.0,2.5384,2.4022,2.4182,2.4128,2.3647,2.3527,2.338,2.318,2.3166,2.3437,2.3768,2.3875,2.4062,2.4356,2.4543,2.4636,2.4636,2.4636,2.4636,2.4649,2.4743,2.4783,2.4783,2.4783,2.4957,2.5251,2.5438,2.5692,2.5999,2.6279,2.6386,2.6386,2.6386,2.6386,2.6386,2.6386,2.6386,2.6386,2.6386,2.6386,2.6386,2.6386,2.66,2.6894,2.7188,2.7482,2.7776,2.8154,2.8221,2.8558,2.9635,2.8978,2.8558,2.9718,2.8978,2.8221,2.8221,2.8221,2.8221,2.8221,2.8221,2.8221,2.8221,2.8221,2.8318,2.8571,2.8476,2.8381,2.8273,2.7812,2.7553,2.7731,2.7667,2.7712,2.804,2.794,2.8032,2.8202,2.7984,2.7856,2.7788,2.7466,2.7305,2.7305,2.7086,2.7719,2.9117,2.8937,2.8794,3.0024,3.0263,3.0295,3.046,3.2185,3.3322,3.2199,3.2686,0.0,0.0,0.0,0.0,0.0,0.0,0.0,0.0,2.4102,2.4102,2.4556,2.4957,2.5064,0.0,2.5531,2.5611,2.4476,2.4543,2.4382,2.3808,2.3688,2.3487,2.318,2.3073,2.3273,2.3768,2.3768,2.3968,2.4356,2.4543,2.4636,2.4636,2.4636,2.4636,2.4636,2.4636,2.4636,2.4636,2.4636,2.481,2.5104,2.5398,2.5692,2.5999,2.6279,2.6386,2.6386,2.6386,2.6386,2.6386,2.6386,2.6386,2.6558,2.7299,2.7485,2.7643,2.8182,2.8086,2.7817,2.793,2.7799,2.7615,2.7909,2.8154,2.8642,3.0455,2.9886,2.9467,3.0538,2.9871,2.8964,2.8305,2.8221,2.8221,2.8221,2.8221,2.8221,2.8221,2.8221,2.8318,2.8571,2.874,2.8825,2.8772,2.8453,2.8197,2.8194,2.8061,2.8182,2.851,2.851,2.8718,2.9202,2.8725,2.8564,2.8798,2.8022,2.7583,2.7466,2.7144,2.7659]}]]